[[{"header":{"parameterUnit":"m.s-1","parameterCategory":1,"la1":30.6,"la2":29.2853,"lo1":-89.7004,"lo2":-87.6739,"dx":0.0162,"dy":0.0183,"nx":112,"ny":82,"refTime":"2023-02-01T06:00:00:Z","depth":0,"parameterNumber":2,"parameterNumberName":"U-component_of_WINDS"},"data":[0.0,0.0,0.0,0.0,0.0,0.0,0.0,0.0,0.0,0.0,0.0,0.0,0.0,0.0,0.0,0.0,0.0,0.0,0.0,0.0,0.0,0.0,0.0,0.0,0.0,0.0,0.0,0.0,0.0,0.0,0.0,0.0,0.0,0.0,0.0,0.0,0.0,0.0,0.0,0.0,0.0,0.0,0.0,0.0,0.0,0.0,0.0,0.0,0.0,0.0,0.0,0.0,0.0,0.0,0.0,0.0,0.0,0.0,0.0,0.0,0.0,0.0,0.0,0.0,0.0,0.0,0.0,0.0,0.0,0.0,0.0,0.0,0.0,0.0,0.0,0.0,0.0,0.0,0.0,0.0,0.0,0.0,0.0,0.0,0.0,0.0,0.0,0.0,0.0,0.0,2.2537,2.345,2.3868,2.2838,1.9821,1.9299,1.8313,1.639,0.0,0.0,0.0,0.0,0.0,0.0,0.0,0.0,0.0,0.0,0.0,0.0,0.0,0.0,0.0,0.0,0.0,0.0,0.0,0.0,0.0,0.0,0.0,0.0,0.0,0.0,0.0,0.0,0.0,0.0,0.0,0.0,0.0,0.0,0.0,0.0,0.0,0.0,0.0,0.0,0.0,0.0,0.0,0.0,0.0,0.0,0.0,0.0,0.0,0.0,0.0,0.0,0.0,0.0,0.0,0.0,0.0,0.0,0.0,0.0,0.0,0.0,0.0,0.0,0.0,0.0,0.0,0.0,0.0,0.0,0.0,0.0,0.0,0.0,0.0,0.0,0.0,0.0,0.0,0.0,0.0,0.0,0.0,0.0,0.0,0.0,0.0,0.0,0.0,0.0,0.0,0.0,0.0,0.0,0.0,0.0,0.0,0.0,0.0,0.0,0.0,0.0,0.0,0.0,2.2982,2.2868,2.271,2.2004,2.0454,1.8557,1.7345,1.7045,0.0,0.0,0.0,0.0,0.0,0.0,0.0,0.0,0.0,0.0,0.0,0.0,0.0,0.0,0.0,0.0,0.0,0.0,0.0,0.0,0.0,0.0,0.0,0.0,0.0,0.0,0.0,0.0,0.0,0.0,0.0,0.0,0.0,0.0,0.0,0.0,0.0,0.0,0.0,0.0,0.0,0.0,0.0,0.0,0.0,0.0,0.0,0.0,0.0,0.0,0.0,0.0,0.0,0.0,0.0,0.0,0.0,0.0,0.0,0.0,0.0,0.0,0.0,0.0,0.0,0.0,0.0,0.0,0.0,0.0,0.0,0.0,0.0,0.0,0.0,0.0,0.0,0.0,0.0,0.0,0.0,0.0,0.0,0.0,0.0,0.0,0.0,0.0,0.0,0.0,0.0,0.0,0.0,0.0,0.0,0.0,0.0,0.0,0.0,0.0,0.0,0.0,0.0,2.2846,2.2337,2.248,2.2374,2.1739,2.034,1.8268,1.7098,1.7197,1.5858,0.0,0.0,0.0,0.0,0.0,0.0,0.0,0.0,0.0,0.0,0.0,0.0,0.0,0.0,0.0,0.0,0.0,0.0,0.0,0.0,0.0,0.0,0.0,0.0,0.0,0.0,0.0,0.0,0.0,0.0,0.0,0.0,0.0,0.0,0.0,0.0,0.0,0.0,0.0,0.0,0.0,0.0,0.0,0.0,0.0,0.0,0.0,0.0,0.0,0.0,0.0,0.0,0.0,0.0,0.0,0.0,0.0,0.0,0.0,0.0,0.0,0.0,0.0,0.0,0.0,0.0,0.0,0.0,0.0,0.0,0.0,0.0,0.0,0.0,0.0,0.0,0.0,0.0,0.0,0.0,0.0,0.0,0.0,0.0,0.0,0.0,0.0,0.0,0.0,0.0,0.0,0.0,0.0,0.0,0.0,0.0,0.0,0.0,0.0,0.0,0.0,0.0,2.2366,2.1915,2.2271,2.2296,2.1688,2.012,1.8157,1.7108,1.7368,1.5388,0.0,0.0,0.0,0.0,0.0,0.0,0.0,0.0,0.0,0.0,0.0,0.0,0.0,0.0,0.0,0.0,0.0,0.0,0.0,0.0,0.0,0.0,0.0,0.0,0.0,0.0,0.0,0.0,0.0,0.0,0.0,0.0,0.0,0.0,0.0,0.0,0.0,0.0,0.0,0.0,0.0,0.0,0.0,0.0,0.0,0.0,0.0,0.0,0.0,0.0,0.0,0.0,0.0,0.0,0.0,0.0,0.0,0.0,0.0,0.0,0.0,0.0,0.0,0.0,0.0,0.0,0.0,0.0,0.0,0.0,0.0,0.0,0.0,0.0,0.0,0.0,0.0,0.0,0.0,0.0,0.0,0.0,0.0,0.0,0.0,0.0,0.0,0.0,0.0,0.0,0.0,0.0,0.0,0.0,0.0,0.0,0.0,0.0,0.0,0.0,0.0,0.0,2.2858,2.2517,2.2321,2.2296,2.1688,2.012,1.8157,1.7261,1.79,1.5595,0.0,0.0,0.0,0.0,0.0,0.0,0.0,0.0,0.0,0.0,0.0,0.0,0.0,0.0,0.0,0.0,0.0,0.0,0.0,0.0,0.0,0.0,0.0,0.0,0.0,0.0,0.0,0.0,0.0,0.0,0.0,0.0,0.0,0.0,0.0,0.0,0.0,0.0,0.0,0.0,0.0,0.0,0.0,0.0,0.0,0.0,0.0,0.0,0.0,0.0,0.0,0.0,0.0,0.0,0.0,0.0,0.0,0.0,0.0,0.0,0.0,0.0,0.0,0.0,0.0,0.0,0.0,0.0,0.0,0.0,0.0,0.0,0.0,0.0,0.0,0.0,0.0,0.0,0.0,0.0,0.0,0.0,0.0,0.0,0.0,0.0,0.0,0.0,0.0,0.0,0.0,0.0,0.0,0.0,0.0,0.0,0.0,0.0,0.0,0.0,0.0,0.0,2.263,2.2412,2.231,2.1887,2.108,1.9794,1.7617,1.672,1.7634,0.0,0.0,0.0,0.0,0.0,0.0,0.0,0.0,0.0,0.0,0.0,0.0,0.0,0.0,0.0,0.0,0.0,0.0,0.0,0.0,0.0,0.0,0.0,0.0,0.0,0.0,0.0,0.0,0.0,0.0,0.0,0.0,0.0,0.0,0.0,0.0,0.0,0.0,0.0,0.0,0.0,0.0,0.0,0.0,0.0,0.0,0.0,0.0,0.0,0.0,0.0,0.0,0.0,0.0,0.0,0.0,0.0,0.0,0.0,0.0,0.0,0.0,0.0,0.0,0.0,0.0,0.0,0.0,0.0,0.0,0.0,0.0,0.0,0.0,0.0,0.0,0.0,0.0,0.0,0.0,0.0,0.0,0.0,0.0,0.0,0.0,0.0,0.0,0.0,0.0,0.0,0.0,0.0,0.0,0.0,0.0,0.0,0.0,0.0,0.0,0.0,0.0,2.2669,2.2463,2.2296,2.2296,2.1634,2.0649,1.9296,1.7163,1.6342,1.7362,0.0,0.0,0.0,0.0,0.0,0.0,0.0,0.0,0.0,0.0,0.0,0.0,0.0,0.0,0.0,0.0,0.0,0.0,0.0,0.0,0.0,0.0,0.0,0.0,0.0,0.0,0.0,0.0,0.0,0.0,0.0,0.0,0.0,0.0,0.0,0.0,0.0,0.0,0.0,0.0,0.0,0.0,0.0,0.0,0.0,0.0,0.0,0.0,0.0,0.0,0.0,0.0,0.0,0.0,0.0,0.0,0.0,0.0,0.0,0.0,0.0,0.0,0.0,0.0,0.0,0.0,0.0,0.0,0.0,0.0,0.0,0.0,0.0,0.0,0.0,0.0,0.0,0.0,0.0,0.0,0.0,0.0,0.0,0.0,0.0,0.0,0.0,0.0,0.0,0.0,0.0,0.0,0.0,0.0,0.0,0.0,0.0,0.0,0.0,0.0,0.0,0.0,2.2695,2.2463,2.2296,2.2296,2.1634,2.046,1.8668,1.6909,1.6307,0.0,0.0,0.0,0.0,0.0,0.0,0.0,0.0,0.0,0.0,0.0,0.0,0.0,0.0,0.0,0.0,0.0,0.0,0.0,0.0,0.0,0.0,0.0,0.0,0.0,0.0,0.0,0.0,0.0,0.0,0.0,0.0,0.0,0.0,0.0,0.0,0.0,0.0,0.0,0.0,0.0,0.0,0.0,0.0,0.0,0.0,0.0,0.0,0.0,0.0,0.0,0.0,0.0,0.0,0.0,0.0,0.0,0.0,0.0,0.0,0.0,0.0,0.0,0.0,0.0,0.0,0.0,0.0,0.0,0.0,0.0,0.0,0.0,0.0,0.0,0.0,0.0,0.0,0.0,0.0,0.0,0.0,0.0,0.0,0.0,0.0,0.0,0.0,0.0,0.0,0.0,0.0,0.0,0.0,0.0,0.0,0.0,0.0,0.0,0.0,0.0,0.0,0.0,2.2412,2.2349,2.2296,2.2296,2.113,2.0034,1.928,1.713,1.6425,1.7851,0.0,0.0,0.0,0.0,0.0,0.0,0.0,0.0,0.0,0.0,0.0,0.0,0.0,0.0,0.0,0.0,0.0,0.0,0.0,0.0,0.0,0.0,0.0,0.0,0.0,0.0,0.0,0.0,0.0,0.0,0.0,0.0,0.0,0.0,0.0,0.0,0.0,0.0,0.0,0.0,0.0,0.0,0.0,0.0,0.0,0.0,0.0,0.0,0.0,0.0,0.0,0.0,0.0,0.0,0.0,0.0,0.0,0.0,0.0,0.0,0.0,0.0,0.0,0.0,0.0,0.0,0.0,0.0,0.0,0.0,0.0,0.0,0.0,0.0,0.0,0.0,0.0,0.0,0.0,0.0,0.0,0.0,0.0,0.0,0.0,0.0,0.0,0.0,0.0,0.0,0.0,0.0,0.0,0.0,0.0,0.0,0.0,0.0,0.0,0.0,0.0,0.0,2.3105,2.2651,2.2398,2.2716,2.1366,2.0097,1.9193,1.7345,1.6584,1.7386,0.0,0.0,0.0,0.0,0.0,0.0,0.0,0.0,0.0,0.0,0.0,0.0,0.0,0.0,0.0,0.0,0.0,0.0,0.0,0.0,0.0,0.0,0.0,0.0,0.0,0.0,0.0,0.0,0.0,0.0,0.0,0.0,0.0,0.0,0.0,0.0,0.0,0.0,0.0,0.0,0.0,0.0,0.0,0.0,0.0,0.0,0.0,0.0,0.0,0.0,0.0,0.0,0.0,0.0,0.0,0.0,0.0,0.0,0.0,0.0,0.0,0.0,0.0,0.0,0.0,0.0,0.0,0.0,0.0,0.0,0.0,0.0,0.0,0.0,0.0,0.0,0.0,0.0,0.0,0.0,0.0,0.0,0.0,0.0,0.0,0.0,0.0,0.0,0.0,0.0,0.0,0.0,0.0,0.0,0.0,0.0,0.0,0.0,0.0,0.0,0.0,0.0,2.4321,2.3207,2.2581,2.3325,2.2087,2.049,1.8789,1.7631,1.683,1.646,0.0,0.0,0.0,0.0,0.0,0.0,0.0,0.0,0.0,0.0,0.0,0.0,0.0,0.0,0.0,0.0,0.0,0.0,0.0,0.0,0.0,0.0,0.0,0.0,0.0,0.0,0.0,0.0,0.0,0.0,0.0,0.0,0.0,0.0,0.0,0.0,0.0,0.0,0.0,0.0,0.0,0.0,0.0,0.0,0.0,0.0,0.0,0.0,0.0,0.0,0.0,0.0,0.0,0.0,0.0,0.0,0.0,0.0,0.0,0.0,1.8037,0.0,0.0,0.0,0.0,0.0,0.0,0.0,0.0,0.0,0.0,0.0,0.0,0.0,0.0,0.0,0.0,0.0,0.0,0.0,0.0,0.0,0.0,0.0,0.0,0.0,0.0,0.0,0.0,0.0,0.0,0.0,0.0,0.0,0.0,0.0,0.0,0.0,0.0,0.0,0.0,0.0,2.4372,2.3207,2.2581,2.3325,2.2087,2.0792,1.977,1.8444,1.7644,1.7482,1.6908,0.0,0.0,0.0,0.0,0.0,0.0,0.0,0.0,0.0,0.0,0.0,0.0,0.0,0.0,0.0,0.0,0.0,0.0,0.0,0.0,0.0,0.0,0.0,0.0,0.0,0.0,0.0,0.0,0.0,0.0,0.0,0.0,0.0,0.0,0.0,0.0,0.0,0.0,0.0,0.0,0.0,0.0,0.0,0.0,0.0,0.0,0.0,0.0,0.0,0.0,0.0,0.0,0.0,0.0,0.0,0.0,0.0,0.0,0.0,0.0,1.7727,0.0,0.0,0.0,0.0,0.0,0.0,0.0,0.0,0.0,0.0,0.0,0.0,0.0,0.0,0.0,0.0,0.0,0.0,0.0,0.0,0.0,0.0,0.0,0.0,0.0,0.0,0.0,0.0,0.0,0.0,0.0,0.0,0.0,0.0,0.0,0.0,0.0,0.0,0.0,0.0,2.5371,2.3646,2.2733,2.3814,2.2598,2.1414,2.0653,1.9252,1.826,1.7871,1.6939,0.0,0.0,0.0,0.0,0.0,0.0,0.0,0.0,0.0,0.0,0.0,0.0,0.0,0.0,0.0,0.0,0.0,0.0,0.0,0.0,0.0,0.0,0.0,0.0,0.0,0.0,0.0,0.0,0.0,0.0,0.0,0.0,0.0,0.0,0.0,0.0,0.0,0.0,0.0,0.0,0.0,0.0,0.0,0.0,0.0,0.0,0.0,0.0,0.0,0.0,0.0,0.0,0.0,2.0475,2.0616,2.0087,1.9999,1.9949,1.9862,1.8374,1.763,1.7468,1.7447,0.0,0.0,0.0,0.0,0.0,0.0,0.0,0.0,0.0,0.0,0.0,0.0,0.0,0.0,0.0,0.0,0.0,0.0,0.0,0.0,0.0,0.0,0.0,0.0,1.7862,1.7795,0.0,0.0,0.0,0.0,0.0,0.0,0.0,0.0,0.0,0.0,0.0,0.0,2.6268,2.4078,2.287,2.4247,2.307,2.1846,2.1052,1.9698,1.8575,1.7846,1.6623,1.5939,0.0,0.0,0.0,0.0,0.0,0.0,0.0,0.0,0.0,0.0,0.0,0.0,0.0,0.0,0.0,0.0,0.0,0.0,0.0,0.0,0.0,0.0,0.0,0.0,0.0,0.0,0.0,0.0,0.0,0.0,0.0,0.0,1.5982,1.6437,0.0,0.0,0.0,0.0,0.0,0.0,0.0,0.0,0.0,0.0,0.0,0.0,0.0,2.1852,2.2257,2.1738,2.1455,2.1425,2.1428,2.1354,2.1255,2.0792,2.0578,2.0528,1.9775,0.0,1.808,1.8074,0.0,0.0,0.0,0.0,0.0,0.0,0.0,0.0,0.0,0.0,0.0,0.0,0.0,0.0,0.0,0.0,0.0,0.0,0.0,0.0,0.0,0.0,1.8096,1.8185,1.8138,1.8138,0.0,1.8744,1.911,1.9164,2.0454,0.0,0.0,0.0,0.0,0.0,0.0,0.0,2.5645,2.388,2.2912,2.3884,2.2611,2.1242,2.0152,1.9088,1.8156,1.7427,1.604,1.5291,1.5402,1.5479,0.0,0.0,0.0,0.0,0.0,0.0,0.0,0.0,0.0,0.0,0.0,0.0,0.0,0.0,0.0,0.0,0.0,0.0,0.0,0.0,0.0,0.0,0.0,0.0,0.0,0.0,0.0,0.0,0.0,1.671,1.7087,1.7011,1.7275,1.7576,0.0,0.0,0.0,0.0,0.0,0.0,0.0,0.0,0.0,2.2885,2.33,2.3706,2.4083,2.3872,2.3795,2.3817,2.3892,2.3712,2.3351,2.3113,2.3,2.2949,2.2058,2.1202,2.0401,1.9163,1.8131,1.7454,0.0,0.0,0.0,0.0,2.0737,2.1364,2.1163,2.1326,0.0,2.1357,0.0,0.0,0.0,0.0,0.0,0.0,0.0,0.0,0.0,0.0,1.829,1.8578,1.843,1.8204,1.8204,1.8632,1.8947,0.0,2.0001,2.1276,2.1562,0.0,0.0,0.0,0.0,2.4215,2.5243,2.355,2.2571,2.3384,2.2151,2.1068,2.0559,1.9563,1.8656,1.7958,1.6284,1.5182,1.4869,1.5054,1.5191,0.0,0.0,0.0,0.0,0.0,0.0,0.0,0.0,0.0,0.0,0.0,0.0,0.0,0.0,0.0,0.0,0.0,0.0,0.0,0.0,0.0,0.0,0.0,0.0,0.0,0.0,0.0,0.0,1.7564,1.796,1.7852,1.816,1.8521,0.0,0.0,0.0,0.0,0.0,0.0,2.361,2.429,2.484,2.5272,2.5676,2.604,2.6308,2.6088,2.6026,2.6179,2.6184,2.5979,2.5661,2.5511,2.5372,2.5184,2.4161,2.3376,2.2573,2.0363,1.8943,1.8316,1.9251,1.9758,2.0091,2.1088,2.2069,2.2868,2.2353,2.2503,2.2778,2.1769,0.0,2.1963,2.0942,0.0,0.0,0.0,0.0,1.9727,1.9965,1.9442,1.897,1.9497,1.9346,1.9045,1.9045,1.9472,1.9559,0.0,1.9704,2.0981,2.1603,0.0,0.0,0.0,0.0,2.4055,2.5051,2.3658,2.2663,2.2891,2.1796,2.097,2.0681,1.9644,1.8798,1.831,1.6532,1.5274,1.4787,1.4981,1.5097,1.5097,0.0,0.0,0.0,0.0,0.0,0.0,0.0,0.0,0.0,0.0,0.0,0.0,0.0,0.0,0.0,0.0,0.0,0.0,0.0,0.0,0.0,0.0,0.0,0.0,0.0,0.0,0.0,0.0,0.0,1.889,1.899,0.0,0.0,0.0,0.0,2.1731,2.2786,2.4243,2.6294,2.7046,2.8004,2.9268,2.9028,2.9199,2.9829,2.827,2.7755,2.8253,2.7538,2.7467,2.7921,2.7394,2.6914,2.6386,2.5737,2.4883,2.374,2.1534,2.0539,2.0504,2.1278,2.1867,2.2415,2.3186,2.349,2.355,2.352,2.3535,2.3535,2.3475,2.3436,2.3169,2.1917,2.2338,0.0,0.0,2.1457,2.1342,2.0804,2.0618,2.0704,2.1257,2.1343,2.1317,2.1317,2.1757,2.149,0.0,1.9972,2.0997,2.1605,0.0,2.3568,2.4251,2.4874,2.5238,2.5123,2.457,2.3745,2.2574,2.1745,2.0868,1.9845,1.8675,1.7964,1.7917,1.6405,1.5475,1.5449,1.5586,1.5655,1.5655,1.6199,0.0,0.0,0.0,0.0,0.0,0.0,0.0,0.0,0.0,0.0,0.0,0.0,0.0,0.0,0.0,0.0,0.0,0.0,0.0,0.0,0.0,0.0,0.0,0.0,0.0,0.0,0.0,0.0,2.0041,2.1013,0.0,2.1365,2.2207,2.333,2.4677,2.5625,2.7009,2.9011,2.9176,2.9638,3.0526,3.0227,3.0397,3.1062,2.9858,2.9412,2.9658,2.8762,2.826,2.8097,2.7896,2.7507,2.7014,2.6801,2.6298,2.5556,2.4752,2.3334,2.182,2.2986,2.358,2.3923,2.5094,2.6078,2.6692,2.5824,2.5818,2.5881,2.4101,2.323,2.2682,2.1785,2.1845,2.2075,2.166,2.179,2.1987,2.1776,2.1995,2.2297,2.2468,2.2284,2.202,2.202,2.2171,2.2083,2.1265,2.1484,2.1739,2.1641,2.2282,2.3187,2.4269,2.4702,2.503,2.5374,2.4511,2.3525,2.2687,2.1591,2.0434,1.9284,1.8803,1.837,1.7917,1.6796,1.6099,1.6019,1.5815,1.5693,1.5693,1.6233,1.65,0.0,0.0,0.0,0.0,0.0,0.0,0.0,0.0,0.0,0.0,0.0,0.0,0.0,0.0,0.0,0.0,0.0,0.0,0.0,0.0,0.0,0.0,0.0,0.0,0.0,1.9763,2.101,2.2005,2.3031,2.3672,2.3672,2.435,2.5381,2.675,2.7496,2.8785,3.0757,3.068,3.0906,3.1593,3.1402,3.1322,3.1471,3.0854,3.0406,3.0201,2.9504,2.9026,2.8674,2.8674,2.8373,2.7833,2.7833,2.7519,2.7052,2.7052,2.5925,2.4375,2.5522,2.5854,2.5939,2.7383,2.8472,2.9086,2.7979,2.7556,2.7163,2.5137,2.3935,2.3187,2.2532,2.2474,2.2621,2.2614,2.2874,2.312,2.312,2.3258,2.3446,2.3634,2.3246,2.2984,2.3475,2.3348,2.3241,2.3514,2.3461,2.315,2.2549,2.3236,2.423,2.5279,2.5355,2.5525,2.6183,2.5106,2.3954,2.3092,2.1659,2.0352,1.932,1.9075,1.8597,1.7749,1.7335,1.689,1.6401,1.6121,1.5969,1.5969,1.6129,1.6194,1.6194,0.0,0.0,0.0,0.0,0.0,0.0,0.0,0.0,0.0,0.0,0.0,0.0,0.0,0.0,0.0,0.0,0.0,0.0,0.0,0.0,0.0,0.0,0.0,2.0763,2.173,2.3022,2.4728,2.4912,2.4888,2.4888,2.5418,2.6289,2.7676,2.8303,2.9487,3.1557,3.1598,3.1908,3.2635,3.255,3.2119,3.1244,3.118,3.0696,2.9792,2.9792,2.9792,2.9792,2.9792,2.9478,2.8888,2.8913,2.8599,2.8134,2.8147,2.8147,2.8191,2.8777,2.8699,2.8432,2.9913,3.0438,3.0334,2.9764,2.8561,2.7197,2.658,2.5729,2.4819,2.4234,2.4418,2.4813,2.4813,2.4825,2.4825,2.48,2.4456,2.4205,2.472,2.4443,2.443,2.5805,2.5402,2.5065,2.5897,2.5731,2.5159,2.4276,2.5505,2.6726,2.7216,2.6902,0.0,2.751,2.6422,2.506,2.3782,2.1992,2.0641,1.9918,1.9409,1.857,1.7393,1.7882,1.77,1.6534,1.6457,1.6445,1.6445,1.5864,1.5565,1.5565,0.0,0.0,0.0,0.0,0.0,0.0,0.0,0.0,0.0,0.0,0.0,0.0,0.0,0.0,0.0,0.0,0.0,0.0,0.0,0.0,0.0,2.2385,2.3072,2.2036,2.3152,2.4595,2.5889,2.6719,2.7205,2.7205,2.7892,2.8726,2.9597,3.0338,3.1375,3.283,3.1874,3.2117,3.3827,3.1741,3.1017,3.1902,3.0777,3.0075,2.9792,2.9792,2.9792,2.9792,2.9792,2.9478,2.8913,2.9365,2.9227,2.87,2.9151,2.9076,2.8736,2.914,2.9213,2.9147,2.9748,2.9442,2.8669,2.8484,2.7858,2.6962,2.6263,2.5853,2.5576,2.5235,2.5259,2.5385,2.5385,2.5686,2.5858,2.4988,2.5297,2.5745,2.5448,2.5272,2.5262,2.565,2.5234,2.4885,2.5116,2.5882,2.6083,2.4803,2.5563,2.6357,2.6497,2.698,0.0,2.757,2.6051,2.4781,2.4307,2.254,2.0818,1.9376,1.9119,1.8525,1.7378,1.6705,1.6358,1.6437,1.5632,1.5197,1.5197,1.5039,1.4949,0.0,0.0,0.0,0.0,0.0,0.0,0.0,0.0,0.0,0.0,0.0,0.0,0.0,0.0,0.0,0.0,0.0,0.0,0.0,0.0,0.0,0.0,2.4356,2.5322,2.4808,2.5372,2.6264,2.7356,2.8273,2.89,2.9139,2.982,3.0403,3.0789,3.1268,3.1832,3.2508,3.1745,3.1876,3.3103,3.1785,3.1318,3.1863,3.1318,3.0865,3.0457,3.0244,3.0143,3.0131,2.9892,2.9616,2.9315,2.9641,2.9603,2.9315,2.9654,2.9591,0.0,0.0,0.0,0.0,0.0,2.9614,2.8715,2.8498,2.7919,2.7229,2.6802,2.6589,2.647,2.6371,2.6302,2.6352,2.6578,2.6587,2.6399,2.595,2.5975,2.6109,2.6009,2.5996,2.6148,2.6675,2.6498,2.6291,2.667,2.7095,0.0,2.6038,2.6479,2.6848,2.6549,2.6793,2.7031,2.7099,2.5429,2.4209,2.4134,2.22,2.0435,1.9156,1.9044,0.0,0.0,0.0,1.6146,1.5708,1.505,0.0,0.0,0.0,1.4404,1.4577,0.0,0.0,0.0,1.4679,1.4484,0.0,0.0,0.0,0.0,0.0,0.0,0.0,0.0,0.0,0.0,0.0,0.0,0.0,0.0,0.0,0.0,2.6176,2.7329,2.8323,2.8059,2.8084,2.8976,2.9628,3.0168,3.0658,3.1122,3.1386,3.1386,3.1386,3.1411,3.1486,0.0,0.0,0.0,0.0,3.2329,3.1665,3.2329,3.2223,3.1386,3.0922,3.0708,3.0683,3.0131,2.988,2.988,2.9817,2.9792,2.9792,2.9792,2.9792,2.9895,3.0733,3.0703,3.026,3.0498,3.0153,2.9533,2.9067,0.0,0.0,2.7734,2.7601,2.7369,2.7369,2.7419,2.7557,2.7984,2.7444,2.6876,2.7268,2.6578,2.5925,2.6549,2.6637,2.692,2.8165,2.828,2.8339,2.909,2.8651,2.7946,2.7457,2.7703,2.7709,2.7006,2.6485,2.6238,2.6353,2.4749,2.3595,2.3595,0.0,0.0,1.9245,1.9097,1.8101,1.5915,1.6614,1.6365,1.4648,1.4611,1.4633,1.4633,1.4116,1.4004,1.4349,1.3835,1.3743,1.4094,1.393,1.3538,0.0,0.0,0.0,0.0,0.0,0.0,0.0,0.0,0.0,0.0,0.0,0.0,0.0,0.0,0.0,2.7369,2.8787,3.003,3.067,3.0658,3.052,3.0319,3.0758,3.1122,3.1235,3.1336,3.1386,3.1386,3.1386,3.1587,3.2026,3.1637,3.2227,3.402,3.2523,3.2213,3.3314,3.2226,3.1577,3.1386,0.0,0.0,3.1223,3.0696,3.0457,3.0432,2.998,2.9792,2.9792,2.9792,2.9792,2.983,2.9998,2.972,2.92,2.9258,2.8899,2.84,2.8321,2.8153,2.8022,2.8022,2.799,2.7946,2.7946,2.826,0.0,2.8197,2.8273,2.8373,2.8034,2.7457,2.7092,2.7657,2.7444,2.7339,2.8024,2.8131,2.8133,2.8303,2.8206,2.8072,2.7959,2.7812,2.7458,2.6841,2.6442,2.6209,2.6238,2.4596,2.343,2.343,2.2092,2.0803,1.9762,1.9116,1.8208,1.6895,1.6013,1.4995,1.3781,1.4052,1.4206,1.4206,1.4112,1.4073,1.4152,1.403,1.4026,1.4104,1.406,1.3992,0.0,0.0,0.0,0.0,0.0,0.0,0.0,0.0,0.0,0.0,0.0,2.3742,2.4961,0.0,2.8386,2.9227,3.052,3.1512,3.1763,3.229,3.224,3.1135,3.1474,3.1913,3.2202,3.2478,3.2754,3.3043,3.2805,3.2893,3.3445,3.2943,3.3275,3.465,3.3368,3.3052,3.3843,3.2786,3.2227,3.2227,3.1938,3.18,3.1788,3.1248,3.0859,3.0608,3.0331,3.0043,2.9792,2.9792,2.9792,2.9792,2.9792,2.9616,2.9327,2.9001,2.8712,2.8473,2.8197,2.8109,2.8109,2.8109,2.8298,2.84,2.7877,2.791,2.8003,2.7451,2.7503,2.7701,2.7689,2.7717,2.7758,2.8047,2.8109,2.8185,2.8461,2.875,2.895,2.895,2.895,2.885,2.8561,2.8361,2.7879,2.6771,2.6472,2.6046,2.5208,2.4034,2.3167,2.2884,2.1807,2.0705,1.968,1.8113,1.687,1.6146,1.5164,1.436,1.3828,1.3997,1.4104,1.4104,1.4104,1.4211,1.4463,1.4463,1.4543,1.4747,1.4747,1.4523,0.0,0.0,0.0,0.0,0.0,0.0,0.0,1.9339,2.0243,2.1925,2.3571,2.5158,2.676,2.812,2.9364,3.0505,3.16,3.2381,3.2662,3.3483,3.352,3.2051,3.2265,3.2767,3.3332,3.3709,3.4123,3.4675,3.4311,3.4248,3.47,3.4299,3.4261,3.4713,3.4299,3.406,3.406,3.3621,3.3395,3.3382,3.2817,3.2541,3.2516,3.1851,3.1188,3.0574,3.0434,3.0296,3.0105,3.0105,3.0105,3.0093,2.9993,2.9955,2.988,2.9302,2.9051,2.9001,2.8586,2.8275,2.8102,2.8102,2.8249,2.8289,2.7399,2.7152,2.7037,2.6606,2.6514,2.6658,2.7281,2.7721,2.8014,2.8361,2.8687,2.8925,2.9038,2.9465,2.9792,2.9792,2.9792,2.9641,2.9176,2.9051,2.8574,2.7052,2.6637,2.6009,2.4644,2.3791,2.3058,2.2506,2.1581,2.056,1.9441,1.7295,1.5739,1.5186,1.4656,1.4319,1.4241,1.4309,1.4358,1.4358,1.4358,1.4523,1.4902,1.5019,1.5205,1.5537,1.5625,1.5176,1.6482,1.6248,1.6346,1.7139,1.7392,1.8042,0.0,2.0104,2.0185,2.299,2.3939,2.4656,2.5998,2.7845,2.96,3.0937,3.1977,3.3049,3.4245,3.455,3.4374,3.3696,3.3671,3.3922,3.4487,3.4148,3.4123,3.4675,3.4618,3.4663,3.468,3.4618,3.4663,3.468,3.4618,3.4625,3.4625,3.4562,3.4537,3.4525,3.3972,3.3709,3.3671,3.2604,3.1507,3.0377,2.9911,3.028,3.121,3.121,3.121,3.116,3.0708,3.052,3.0457,2.9905,2.9691,2.9691,2.9628,2.8973,2.8115,2.8115,2.7485,2.6762,2.664,2.6599,2.6569,2.6502,2.6476,2.6735,2.7749,2.7699,2.7746,2.9273,2.9264,2.9026,2.9578,2.9741,2.9792,2.9792,2.9792,2.9779,2.9704,2.9691,2.9289,2.8097,2.7115,2.6424,2.6235,2.4845,2.3678,2.307,2.2498,2.132,1.9304,1.7841,1.6547,1.5437,1.5302,1.5098,1.4727,1.5068,1.5235,1.5235,1.5235,1.5293,1.5342,1.5762,1.5977,1.6026,1.6396,1.6083,1.7039,1.7088,1.7285,1.7656,1.8311,1.9141,2.0209,2.1047,2.2095,2.3679,2.4964,2.6223,2.7656,2.8611,2.9575,3.0719,3.151,3.222,3.2758,3.3492,3.3778,3.3256,3.3615,3.411,3.4663,3.4512,3.4738,3.5604,3.5378,3.5295,3.5655,3.5378,3.5353,3.5667,3.5366,3.5157,3.5157,3.4876,3.468,3.468,3.4487,3.4374,3.4304,3.2818,3.1516,3.0371,2.9849,3.0264,3.1386,3.1386,3.1386,3.1295,3.0073,3.001,3.0557,2.9993,2.9792,2.9702,2.9028,2.8518,2.8016,2.7371,2.6883,2.6389,2.5714,2.5504,2.5378,2.4723,2.501,2.5755,2.6871,2.749,2.811,2.9484,2.9616,2.9503,2.9741,2.9792,2.9792,2.9792,2.9792,2.9792,2.9792,2.9792,2.9628,2.9164,2.8411,2.7544,2.6612,2.5896,2.4671,2.2604,2.2042,2.083,1.8538,1.7698,1.6866,1.586,1.5821,1.5596,1.5166,1.5322,1.541,1.541,1.5664,1.5821,1.5821,1.624,1.6455,1.6455,1.6609,1.6502,1.7695,1.8037,1.8447,1.8773,1.9687,2.0547,2.0908,2.2251,2.3628,2.4298,2.5483,2.6774,2.7989,2.8408,2.896,3.0029,3.0762,3.1263,3.1526,3.2397,3.2744,3.2078,3.2817,3.3444,3.3451,3.4069,3.4951,3.6056,3.5768,3.578,3.638,3.5994,3.5956,3.6405,3.5981,3.5768,3.5768,3.5378,3.4982,3.4601,3.4832,3.4516,3.3764,3.1996,3.0778,3.0103,2.9475,2.9824,3.084,3.084,3.084,3.0694,2.9343,2.932,2.9971,2.9423,2.9285,2.9197,2.8386,2.7723,2.7064,2.6295,2.5808,2.5389,2.4585,2.4339,2.4168,2.3343,2.3671,2.4585,2.5724,2.6933,2.8113,2.9104,2.981,3.0193,3.0043,3.0131,3.0193,3.0043,3.0018,2.9967,2.9817,2.9792,2.9792,2.9792,2.944,2.8674,2.7318,2.6519,2.5012,2.2207,2.1484,2.0466,1.8731,1.7941,1.7285,1.6672,1.6408,1.6103,1.5761,1.5771,1.5771,1.5771,1.6084,1.6281,1.6281,1.6699,1.6882,1.6882,1.6999,1.7058,1.8451,1.8916,1.9551,2.0781,2.1484,2.2148,2.3389,2.3746,2.401,2.4908,2.5104,2.5308,2.5741,2.6506,2.7511,2.8844,2.9749,3.0643,3.1582,3.1724,3.1401,3.0375,3.1378,3.1666,3.0439,3.2509,3.4387,3.5445,3.5508,3.578,3.638,3.6392,3.6392,3.6405,3.6392,3.638,3.638,3.6367,3.5713,3.4435,3.5147,3.4087,3.1558,2.9706,2.9074,2.9407,2.8571,2.8686,2.9454,2.9454,2.9454,2.9409,2.8824,2.8623,2.8611,2.8008,2.7943,2.8136,2.8124,2.6685,2.4904,2.4872,2.4082,2.3222,2.3178,2.3135,2.3135,2.3091,2.3135,2.343,2.4542,2.6104,2.7444,2.8014,2.98,3.1198,3.0708,3.0984,3.1198,3.0683,3.0595,3.0419,2.988,2.9792,2.9792,2.9792,2.9779,2.9541,2.89,2.6627,2.4225,2.2114,2.1124,2.0596,2.0519,1.8957,1.7978,1.7949,1.7135,1.6677,1.6658,1.6658,1.6658,1.6658,1.6668,1.6677,1.6687,1.7148,1.7363,1.7406,1.7783,1.7969,1.9329,2.0234,2.125,2.2204,2.2822,2.333,2.4043,2.4434,2.4639,2.4639,2.4863,2.5165,2.5264,2.5771,2.6447,2.7502,2.8194,2.8681,2.8973,2.9737,2.976,2.8507,2.9747,3.0295,2.9228,3.203,3.4023,3.4299,3.4218,3.484,3.6332,3.4691,3.4105,3.5017,3.5078,3.5078,3.5078,3.5078,3.4836,3.4385,3.3684,3.2313,3.0281,2.9669,2.9098,2.8593,2.8332,2.8655,2.9407,2.9407,2.9407,2.9271,2.7974,2.7914,2.8433,2.7102,2.6691,2.6747,2.6747,2.628,2.5555,2.4765,2.4291,2.389,2.3662,2.3574,2.3574,2.3574,2.3574,2.389,2.5306,2.6057,2.6747,2.7629,2.8399,2.8905,2.87,2.8835,2.916,2.9827,2.9649,2.9602,3.0238,3.003,2.9534,2.8779,2.8385,2.8082,2.7861,2.5878,2.3835,2.2144,2.1485,2.0757,1.9831,1.9193,1.8613,1.8047,1.7734,1.7291,1.6726,1.6697,1.6697,1.6697,1.7021,1.7168,1.7168,1.7588,1.7803,1.7803,1.7939,1.8008,2.0644,2.1572,2.2578,2.3574,2.4043,2.4365,2.4795,2.498,2.499,2.4707,2.4746,2.4834,2.4834,2.5068,2.5498,2.6201,2.6553,2.6896,2.7168,2.7883,2.8105,2.7352,2.8652,2.9152,2.8134,3.0917,3.2717,3.2722,3.3184,3.3899,3.4872,3.3231,3.2694,3.3613,3.3662,3.3662,3.3662,3.3662,3.3662,3.3613,3.1785,3.0476,2.9707,2.9363,2.8614,2.7572,2.7725,2.7866,2.8075,2.8075,2.8075,2.796,2.6889,2.6905,2.7409,2.6352,2.5982,2.5977,2.6048,2.5844,2.5356,2.4644,2.4414,2.4365,2.4092,2.4014,2.4014,2.4014,2.4014,2.4254,2.5239,2.5923,2.6494,2.7006,2.7745,2.8266,2.8043,2.8188,2.8619,2.9663,2.9438,2.9272,2.9914,2.9224,2.8371,2.7654,2.6869,2.6342,2.6211,2.5015,2.3569,2.1873,2.1479,2.0906,1.985,1.96,1.9277,1.8721,1.8398,1.7954,1.7399,1.7233,1.7155,1.7155,1.7461,1.7607,1.7607,1.7881,1.8008,1.8008,1.8008,1.8008,2.2227,2.2877,2.352,2.4795,2.5165,2.5234,2.5567,2.5361,2.5067,2.5028,2.4619,2.4316,2.4287,2.4326,2.4502,2.5037,2.5155,2.5487,2.6328,2.6475,2.6621,2.6973,2.8036,2.8287,2.7114,2.9201,3.0667,3.0726,3.2326,3.3054,3.2459,3.2191,3.2129,3.218,3.218,3.218,3.218,3.218,3.218,3.2079,2.9513,2.8795,2.9597,2.872,2.7617,2.6475,2.6875,2.6572,2.5752,2.5752,2.5752,2.5752,2.5752,2.5752,2.5752,2.5752,2.5752,2.5819,2.6069,2.5422,2.4482,2.4482,2.4482,2.4482,2.4453,2.4453,2.4453,2.4453,2.4453,2.4453,2.4482,2.5649,2.6721,2.6201,2.7696,2.9055,2.8543,2.8844,2.9409,3.0132,2.9863,2.9361,2.8869,2.749,2.6389,2.6389,2.542,2.4587,2.4282,2.4167,2.3381,2.1428,2.121,2.1055,2.0644,2.0185,1.9941,1.9912,1.9095,1.8627,1.8598,1.8198,1.8008,1.8008,1.8008,1.8008,1.8008,1.8008,1.8008,1.8008,1.8008,1.8008,2.3203,2.4258,2.5109,2.5478,2.581,2.5908,2.5361,2.4893,2.4404,2.376,2.3291,2.29,2.2588,2.3047,2.3818,2.494,2.5615,2.6348,2.7268,2.7607,2.7607,2.708,2.7594,2.7714,2.7041,2.8776,2.9568,2.8584,2.9764,3.1529,3.3737,3.0989,2.9765,3.0773,3.0824,3.0824,3.0824,3.0824,3.0317,2.9303,2.8644,2.8445,2.8645,2.8402,2.7939,2.7344,2.7451,2.7187,2.6689,2.6689,2.6689,2.6689,2.6689,2.6689,2.6689,2.6689,2.6689,2.666,2.6765,2.6172,2.5352,2.5352,2.5352,2.5284,2.5,2.4902,2.4902,2.4902,2.4902,2.498,2.5265,2.5671,2.595,2.5841,2.622,2.6628,2.6468,2.6529,2.6989,2.8111,2.8344,2.8159,2.766,2.6282,2.521,2.521,2.4253,2.3803,2.4545,2.3634,2.2631,2.1818,2.1385,2.1055,2.0644,2.0507,2.0264,1.9932,1.9414,1.8975,1.8617,1.8198,1.8008,1.8008,1.8008,1.8008,1.8008,1.8008,1.8008,1.8008,1.8008,1.8008,2.4697,2.5469,2.6025,2.6025,2.5918,2.5625,2.4941,2.3919,2.2924,2.2271,2.1807,2.1405,2.121,2.1909,2.2949,2.4043,2.4805,2.5684,2.6934,2.7471,2.7695,2.7588,2.7793,2.792,2.7861,2.8723,2.9365,2.9409,2.9662,3.0393,3.1684,2.9565,2.89,3.0266,2.9713,2.9408,2.9408,2.9408,2.9049,2.8291,2.8291,2.8291,2.8291,2.8291,2.8066,2.7718,0.0,2.7412,2.7012,2.7012,2.7012,2.7012,2.7012,2.7012,2.7012,2.7012,2.7012,2.7012,2.7012,2.6699,2.6249,2.6249,2.6249,2.625,2.5996,2.5918,2.5879,2.5703,2.5644,2.5664,2.5674,2.5693,2.5693,2.5693,2.5693,2.5693,2.5693,2.5693,2.6003,2.6998,2.7211,2.7031,2.6433,2.5069,2.4049,2.4049,2.3507,2.3343,2.3963,2.3299,2.2627,2.2207,2.1777,2.1338,2.0898,2.0713,2.0498,2.0215,1.9795,1.9453,1.9173,1.8578,1.8247,1.8247,1.8105,1.8008,1.8008,1.8008,1.8008,1.8008,1.8008,1.8008,2.623,2.6514,2.6523,2.6416,2.581,2.5078,2.4278,2.2698,2.1254,2.0652,2.0153,1.9892,2.0072,2.0959,2.202,2.311,2.3672,2.457,2.6318,2.6865,2.7402,2.8203,2.8291,2.8457,2.8877,2.8916,2.9575,3.1226,3.0639,2.9761,2.869,2.8476,2.8937,3.0109,2.9089,2.8524,2.8369,2.832,2.8291,2.8291,2.8291,2.8291,2.8291,2.8291,2.8096,2.7806,2.7806,0.0,2.7187,2.7187,2.7187,2.7187,2.7187,2.7187,2.7187,2.7187,2.7187,2.7187,2.7187,2.7187,2.7168,2.7051,2.7012,2.7012,2.7012,2.7012,2.6943,2.6572,2.6435,2.6299,2.5918,2.5732,2.5693,2.5693,2.5693,2.5693,2.5693,2.5693,2.5847,2.6459,2.6318,2.5962,2.5453,2.4145,2.3179,2.3179,2.313,2.3091,2.3091,2.3091,2.2935,2.2559,2.2187,2.1797,2.1317,2.0967,2.0752,2.0693,2.0244,1.9971,1.9912,1.9114,1.8685,1.8685,1.8276,1.8096,1.8096,1.8037,1.8008,1.8008,1.8008,1.8008,2.667,2.7168,2.7275,2.6562,2.6279,2.5557,2.3112,2.1768,2.053,1.8837,1.8112,1.8181,1.9456,2.0154,2.1304,2.3745,2.456,2.5497,2.7249,2.751,2.7734,2.8232,2.8291,2.8457,2.8877,2.8916,2.9202,2.9911,2.9802,2.9983,3.0501,2.9439,2.8908,2.9115,2.9644,2.9581,2.8809,2.8467,2.8291,2.8291,2.8291,2.8291,2.8291,2.8291,2.8252,2.8184,2.8184,0.0,2.8066,2.8066,2.8066,2.8066,2.8066,2.8066,2.8066,2.8066,2.8066,2.8066,2.8066,2.8066,2.7959,2.7246,2.7012,2.7012,2.7012,2.7012,2.7002,2.6934,2.666,2.6367,2.6299,2.6006,2.5693,2.5693,2.5693,2.5693,2.5693,2.5693,2.5713,2.5867,2.5577,2.5288,2.5172,2.4326,2.3682,2.3682,2.3369,2.3091,2.3091,2.3091,2.2935,2.2559,2.2451,2.2236,2.1807,2.1699,2.1504,2.1103,2.0703,2.0293,1.9932,1.9443,1.918,1.918,1.875,1.849,1.849,1.8149,1.8008,1.8008,1.8008,1.8008,2.6238,2.6787,2.7178,2.6543,2.5409,2.3898,2.1979,1.9966,1.8183,1.7032,1.6495,1.6677,1.8136,1.9383,2.0915,2.3066,2.3975,2.501,2.6758,2.7002,2.7324,2.8193,2.8486,2.8701,2.8896,2.9316,2.9668,2.9883,3.0117,3.03,3.0257,3.0772,3.0268,2.8648,3.0381,3.0474,2.8594,2.8398,2.8291,2.8291,2.8291,2.8408,2.8613,2.8398,2.8408,2.8603,2.8389,0.0,2.8291,2.8291,2.8291,2.8291,2.8291,2.8291,2.8291,2.8291,2.8291,2.8184,2.7447,2.7168,2.7103,2.6655,2.707,2.7676,2.7676,2.7676,2.7627,2.7412,2.7207,2.7002,2.6777,2.6562,2.6396,2.6396,2.624,2.6016,2.5732,2.5693,2.5693,2.5693,2.5371,2.5116,2.5116,2.4541,2.4043,2.3828,2.3613,2.3398,2.312,2.3091,2.3013,2.2818,2.2604,2.2432,2.2227,2.2012,2.1797,2.1582,2.1367,2.1055,2.0586,2.0185,1.9844,1.9619,1.8939,1.8598,1.8598,1.8213,1.8008,1.8018,1.8198,1.8295,2.5665,2.6366,2.698,2.6193,2.4291,2.2195,2.0545,1.8102,1.6045,1.5465,1.5123,1.5378,1.6837,1.8538,2.0277,2.2017,2.3027,2.4258,2.6006,2.6328,2.6826,2.8018,2.8535,2.8857,2.9033,2.9668,3.0137,3.0332,3.0684,3.0508,2.9675,3.156,3.1455,2.8682,3.0819,3.0923,2.8618,2.8389,2.8291,2.8291,2.8389,2.8555,2.8779,2.8633,2.8652,2.8769,2.8535,0.0,0.0,2.8291,2.8291,2.8291,2.8291,2.8291,2.8291,2.8291,2.8121,2.7672,2.649,2.5873,2.5599,2.5599,2.6608,2.7897,2.8174,2.8291,2.8223,2.7891,2.7787,2.764,2.7246,2.709,2.7012,2.7012,2.6768,2.6435,2.6035,2.5888,2.583,2.583,2.5518,2.5215,2.5215,2.4844,2.4443,2.4111,2.3906,2.3662,2.3276,2.3149,2.3091,2.3091,2.2799,2.2646,2.2646,2.2344,2.2119,2.2031,2.2021,2.1787,2.122,2.0898,2.0498,2.0059,1.926,1.875,1.844,1.8027,1.7674,1.7407,1.8008,1.8305,2.5445,2.6582,2.7185,2.5191,2.3727,2.1906,1.8494,1.6817,1.5616,1.4496,1.3972,1.4289,1.6067,1.7375,1.8948,2.1227,2.2467,2.3764,2.5508,2.6143,2.6719,2.7669,2.8096,2.8662,2.9434,2.9636,2.9961,3.0762,3.0869,3.0508,2.9675,3.0963,3.1031,2.9509,3.0545,3.0578,2.9499,2.8682,2.8291,2.8301,2.8682,2.8682,2.8369,2.9121,2.9053,2.8369,2.8711,2.8643,0.0,2.8291,2.8291,2.8291,2.8291,2.8291,2.8291,2.8291,2.7447,2.6264,2.6155,2.5151,2.3989,2.3989,2.5041,2.6545,2.7897,2.8291,2.8281,2.8252,2.7959,2.7708,2.7669,2.7314,2.7012,2.7012,2.6982,2.6943,2.6904,2.6592,2.6328,2.6328,2.5977,2.5625,2.5625,2.5303,2.5047,2.5008,2.4287,2.3779,2.374,2.3379,2.3091,2.3091,2.3062,2.3033,2.3033,2.3003,2.2818,2.248,2.2451,2.209,2.1229,2.1151,2.0957,2.0546,2.0039,1.9191,1.7953,1.7506,1.6652,1.549,1.6741,1.7333,2.2148,2.3253,2.4145,2.2837,2.1282,1.9554,1.7506,1.5739,1.4427,1.4174,1.3707,1.3871,1.5612,1.7064,1.86,2.0438,2.1665,2.2988,2.4707,2.4873,2.543,2.708,2.7656,2.8252,2.9092,2.9639,3.0215,3.084,3.0889,3.0615,2.998,3.1238,3.1093,2.9254,3.0376,3.0553,2.9616,2.8721,2.8418,2.8672,2.8838,2.8965,2.9072,2.9414,2.9385,2.9062,2.8965,2.8682,0.0,2.8291,2.8291,2.8291,2.8291,2.7789,2.6997,2.6997,2.6045,2.4599,2.3702,2.2983,2.2476,2.2476,2.3487,2.4986,2.6499,2.7618,2.8291,2.8291,2.8174,2.8047,2.8047,2.791,2.7715,2.7471,2.7402,2.7334,2.707,2.6885,2.6689,2.6435,2.6455,2.6338,2.5771,2.581,2.5684,2.5194,2.4822,2.4375,2.3857,2.3633,2.3428,2.312,2.3091,2.3091,2.3091,2.3091,2.3023,2.2857,2.2847,2.2192,2.0647,2.0619,1.9975,1.8638,1.8191,1.7716,1.7184,1.6694,1.6208,1.5704,1.6518,1.6885,1.966,2.0747,2.1784,2.0752,1.9286,1.7716,1.6558,1.4824,1.358,1.4008,1.3621,1.362,1.4981,1.664,1.8204,0.0,2.0964,2.2432,2.4014,2.4082,2.459,2.624,2.6826,2.7519,2.8633,2.9746,3.0537,3.0869,3.0889,3.0635,3.0039,3.1049,3.0823,2.9186,2.9934,3.0069,2.9375,2.8662,2.8437,2.874,2.848,2.846,2.8697,2.9069,2.9107,2.885,2.9017,2.8877,0.0,2.834,2.8291,2.8291,2.8291,2.7394,2.61,2.61,2.4875,2.2983,2.1975,2.1309,2.0923,2.0923,2.1926,2.3375,2.4425,2.61,2.7555,2.7114,2.7276,2.7726,2.8184,2.8291,2.8106,2.7425,2.7242,2.6997,2.6212,2.594,2.5937,2.6066,2.5782,2.5479,2.5305,2.5135,2.4793,2.4195,2.4306,2.4108,2.3094,2.3144,2.2979,2.2246,2.2071,2.2183,2.2536,2.2906,2.2818,2.2085,2.2359,2.1724,1.9892,1.9814,1.9031,1.7475,1.7154,1.6796,1.6308,1.5943,1.5575,1.5181,1.5952,1.6483,1.8832,2.0165,2.1024,1.9362,1.8151,1.6981,1.5383,1.4097,1.338,1.3968,1.3621,1.3394,1.3981,1.5842,1.7582,0.0,0.0,2.2334,2.3613,2.415,2.458,2.5077,2.5478,2.6376,2.8135,2.9863,3.0889,3.0889,3.0889,3.0508,2.9675,3.0027,3.0,2.9636,2.9141,2.8916,2.8926,2.8506,2.8291,2.831,2.7493,2.6924,2.6592,2.7818,2.7926,2.7245,2.8869,2.9316,0.0,2.8467,2.8291,2.8291,2.8291,2.7394,2.61,2.61,2.4203,2.1643,2.1586,2.0644,1.9424,1.9424,2.0422,2.1643,2.1643,2.3758,2.5818,2.4267,2.4931,2.6436,2.7897,2.8291,2.795,2.6481,2.6091,2.5709,2.4147,2.3533,2.3666,2.5112,2.3651,2.2627,2.4056,2.2918,2.1752,2.1744,2.2487,2.2545,2.1188,2.163,2.1501,2.0072,1.9703,2.0034,2.1203,2.2403,2.2085,1.9679,2.0666,2.058,1.8968,1.8863,1.8474,1.7811,1.7795,1.6981,1.5298,1.5298,1.4576,1.3253,1.4678,1.6028,1.5819,1.6461,1.6842,1.6084,1.5501,1.4969,1.4213,1.3454,1.3045,1.3407,1.334,1.3559,1.4708,1.6207,1.782,1.9439,2.0922,2.2227,2.3213,2.3919,2.4805,2.585,2.7637,2.8994,2.9541,3.0381,3.0889,3.0889,3.0596,3.0293,3.001,2.957,2.9258,2.9131,2.8994,2.9062,2.9365,2.8652,2.8023,2.7502,2.7241,2.6536,2.5456,2.6381,2.6767,2.6801,2.654,0.0,0.0,2.61,2.5827,2.6717,2.5663,2.4322,2.3031,2.3031,2.1756,2.009,2.009,1.9815,1.9424,1.9424,2.0422,2.1415,2.0422,2.2153,2.4433,2.3933,2.4156,2.4654,2.5105,2.5215,2.5105,2.4654,2.4544,2.4378,2.3933,2.3684,2.3693,2.3879,2.3574,2.3187,2.2857,2.2572,2.2229,2.1776,2.1954,2.1836,2.1081,2.104,2.074,2.0003,1.9657,1.967,2.0034,2.0404,2.0314,1.9542,1.9852,1.9368,1.7799,1.7739,1.7032,1.5584,1.5533,1.5205,1.4469,1.4469,1.4262,1.3814,1.4269,1.4726,1.4015,1.4409,1.4633,1.4402,1.4135,1.3874,1.3646,1.318,1.2904,1.3287,1.3287,1.3679,1.5161,1.6133,1.7483,1.9817,2.082,2.1686,2.293,2.3832,2.4912,2.623,2.8359,2.9717,2.9717,3.043,3.082,3.0644,3.0361,3.0059,2.9736,2.9209,2.8848,2.8682,2.8682,2.8818,2.9092,2.8049,2.7204,2.6738,2.5826,2.4837,2.3851,2.4559,2.4992,2.5163,2.4894,0.0,0.0,2.4659,2.4378,2.5151,2.4156,2.287,2.1586,2.1586,2.0644,1.9424,1.9424,1.9424,1.9424,1.9424,2.0033,2.0587,1.9707,2.0651,2.2266,2.2822,2.2983,2.3095,2.3654,2.3822,2.3654,2.3095,2.2983,2.2814,2.2266,2.2153,2.2204,2.2545,2.2235,2.189,2.1605,2.1215,2.0764,2.0205,2.0582,2.0605,1.9836,1.9803,1.9572,1.8783,1.8347,1.8118,1.8118,1.8948,1.9077,1.8164,1.8542,1.8172,1.6728,1.6675,1.6081,1.4856,1.485,1.471,1.4422,1.4422,1.4302,1.4088,1.4202,1.4195,0.0,1.3734,1.3955,1.3935,1.3734,1.3547,1.3588,1.3231,0.0,1.3507,1.348,1.3879,1.5506,1.5827,1.6854,1.9862,2.0283,2.0915,2.2843,2.3984,2.5088,2.6406,2.8047,2.9043,2.9014,3.0117,3.0664,3.0234,3.0137,2.9756,2.8955,2.8887,2.8701,2.8301,2.8291,2.8237,2.8121,2.6771,2.6063,2.5926,2.3584,2.2326,2.2028,2.2624,2.2789,0.0,0.0,0.0,0.0,2.385,2.3654,2.3654,2.3543,2.2653,2.1415,2.1415,2.0587,1.9424,1.9424,1.9424,1.9424,1.9424,1.9424,1.9424,1.9424,1.9424,1.9707,2.1088,2.1415,2.1756,2.3151,2.3487,2.3159,2.1756,2.1415,2.1088,1.97,1.9424,1.9815,2.1194,2.0075,1.9296,2.0376,1.9148,1.7949,1.7655,1.867,1.902,1.7733,1.8181,1.8094,1.6857,1.6199,1.5852,1.5784,1.7894,1.8257,1.5967,1.6897,1.7037,1.5825,1.5784,1.5691,1.5404,1.5378,1.5237,1.5008,1.5008,1.4727,1.4155,1.4402,1.4376,1.2144,0.0,1.2665,1.2482,1.2505,1.2801,0.0,1.3571,1.3506,1.3658,1.4645,1.5761,1.6602,1.7057,1.833,2.1471,2.12,2.1185,2.2838,2.4982,2.6885,2.8174,2.957,3.0293,2.9932,3.0176,3.0312,3.0205,2.959,2.9131,2.8926,2.8613,2.8398,2.8301,2.8291,2.7789,2.6608,2.6264,2.5639,2.4695,2.2979,2.2088,2.1963,2.1216,2.1215,2.189,0.0,0.0,2.389,2.262,2.2145,2.1975,2.0873,2.0206,1.9924,1.9924,1.97,1.9424,1.9424,1.9424,1.9424,1.9424,1.9424,1.9424,1.9424,1.9424,1.9482,1.9815,1.9924,1.9982,2.0321,2.0429,2.0378,1.9982,1.9924,1.9815,1.9482,1.9424,1.9482,1.9873,1.9588,1.928,1.9302,1.8786,1.827,1.7963,1.7981,1.7943,1.7635,1.7571,1.7302,1.6777,1.6386,1.6079,1.5798,1.6332,1.6426,1.5825,1.6062,1.6109,1.5825,1.5784,1.5691,1.5404,1.5177,1.5075,1.5008,1.5008,1.4941,1.48,1.4596,1.4482,1.1296,1.1906,1.2509,1.2348,1.2429,1.2767,1.3719,1.3821,1.3855,1.4436,1.5431,1.6546,1.7743,1.7916,1.8718,2.1262,2.1158,2.1542,2.3687,2.5752,2.749,2.8769,2.9902,3.0557,3.0518,3.0322,3.0117,2.9922,2.9297,2.8838,2.8643,2.8418,2.8291,2.8291,2.7618,2.6888,2.61,2.538,2.4368,2.3042,2.1663,2.092,2.0792,2.0244,2.0246,0.0,0.0,0.0,2.1771,2.1643,2.1194,2.0537,1.97,1.9424,1.9424,1.9424,1.9424,1.9424,1.9424,1.9424,1.9424,1.9424,1.9424,1.9424,1.9424,1.9424,1.9424,1.9424,1.9424,1.9424,1.9424,1.9424,1.9424,1.9424,1.9424,1.9424,1.9424,1.9424,1.9424,1.9424,1.9424,1.9272,1.8978,1.8791,1.8537,1.8096,1.7896,1.7742,1.7602,1.738,1.7139,1.6927,1.6647,1.6353,1.6059,1.6032,1.5972,1.5791,1.5784,1.5784,1.5784,1.5784,1.5711,1.5598,1.5438,1.5297,1.5164,1.5297,1.5224,1.5008,1.4937,1.4776,1.0834,1.1765,1.275,1.2616,1.2717,1.3144,1.4208,1.4281,1.4402,1.5458,1.6242,1.7196,1.8616,1.8466,1.8752,2.0857,2.1355,2.2466,2.5119,2.6475,2.7666,2.8877,2.9775,3.043,3.0752,3.0371,2.9951,2.9655,2.9101,2.8672,2.831,2.8067,2.795,2.795,2.6545,2.5654,2.5426,2.41,2.2814,2.1586,2.0347,1.9717,1.9771,1.9737,1.9599,1.9482,0.0,0.0,1.9533,2.0973,2.0752,1.9424,1.9424,1.9424,1.9424,1.9424,1.9424,1.9424,1.9424,1.9424,1.9424,1.9424,1.9424,1.9424,1.9424,1.9424,1.9424,1.9424,1.9424,1.9424,1.9424,1.9424,1.9424,1.9424,1.9424,1.9424,1.9424,1.9424,1.9352,1.9305,1.9339,1.9272,1.8978,1.8885,1.8691,1.8135,1.7982,1.7883,1.7615,1.742,1.7253,1.7206,1.6978,1.6653,1.6359,1.6299,1.6166,1.5912,1.5804,1.5784,1.5784,1.5784,1.5784,1.5784,1.5784,1.5705,1.5464,1.5712,1.5578,1.5149,1.5257,1.5064,1.1578,1.2234,1.2603,1.1817,1.2392,1.356,1.5181,1.5695,1.5891,1.6053,1.7814,1.9133,1.8445,1.8427,1.9558,2.2796,2.3961,2.513,2.7021,2.7744,2.8437,2.9355,3.0244,3.0654,3.0332,2.9912,2.9695,2.957,2.8838,2.8359,2.8301,2.7114,2.6436,2.6436,2.4931,2.3535,2.2307,2.2089,2.1805,2.1586,2.0139,2.0081,2.1194,2.0023,1.947,1.9482,0.0,2.0752,1.9533,2.0973,2.0752,1.9424,1.9424,1.9424,1.9424,1.9424,1.9424,1.9424,1.9424,1.9424,1.9424,1.9424,1.9424,1.9424,1.9424,1.9424,1.9424,1.9424,1.9424,1.9424,1.9424,1.9424,1.9424,1.9424,1.9424,1.9424,1.9424,1.9424,1.9292,1.9038,1.9192,1.9272,1.8978,1.8724,1.8524,1.8437,1.7983,1.7635,1.7589,1.7542,1.7474,1.7226,1.7159,1.7012,1.666,1.6413,1.6301,1.6206,1.5972,1.5784,1.5784,1.5784,1.5784,1.5784,1.5784,1.5758,1.5718,1.5758,1.5785,1.5685,1.5237,1.5028,1.1357,1.198,1.2449,1.1997,1.2679,1.3713,1.4874,1.5248,1.5528,1.6213,1.7449,1.8355,1.8204,1.9235,2.1042,2.4011,2.489,2.5581,2.6834,2.7734,2.8525,2.915,2.958,2.9922,3.0176,2.96,2.9219,2.9219,2.8643,2.795,2.7159,2.649,2.5709,2.4875,2.3431,2.2315,2.1586,2.0809,2.0422,2.0422,1.97,1.9758,2.0371,1.9707,1.9424,1.9482,0.0,2.0752,1.9533,2.0973,2.0752,1.9424,1.9424,1.9424,1.9424,1.9424,1.9424,1.9424,1.9424,1.9424,1.9424,1.9424,1.9424,1.9424,1.9424,1.9424,1.9424,1.9424,1.9424,1.9424,1.9424,1.9424,1.9424,1.9424,1.9424,1.9424,1.9424,1.9424,1.9325,1.9192,1.9272,1.9325,1.9185,1.8918,1.8671,1.8517,1.8116,1.7769,1.7602,1.7582,1.7528,1.7454,1.7434,1.7313,1.7025,1.6878,1.6589,1.6059,1.5905,1.5784,1.5784,1.5784,1.5784,1.5784,1.5784,1.5784,1.5784,1.5784,1.5784,1.5771,1.5558,1.5344,1.1263,1.179,1.2318,1.2385,1.2979,1.375,1.4662,1.4877,1.5202,1.6369,1.6999,1.7529,1.7981,2.0097,2.2391,2.4255,2.5316,2.6144,2.69,2.791,2.8711,2.9033,2.9072,2.9326,2.998,2.9365,2.8916,2.8916,2.8192,2.7239,2.6073,2.5348,2.4408,2.3198,2.168,2.0934,2.108,1.9906,1.9299,1.9424,1.9424,1.9424,1.9424,1.9292,1.9265,1.9316,2.0402,2.0245,1.9374,2.048,2.0358,1.9424,1.9424,1.9424,1.9424,1.9424,1.9424,1.9424,1.9424,1.9424,1.9424,1.9424,1.9424,1.9424,1.9424,1.9424,1.9424,1.9424,1.9424,1.9424,1.9424,1.9424,1.9424,1.9424,1.9424,1.9424,1.9424,1.9424,1.9403,1.9279,1.9377,1.9383,1.9185,1.8971,1.8724,1.843,1.813,1.7849,1.7615,1.7582,1.7582,1.7582,1.7582,1.7514,1.7226,1.7139,1.6727,1.5979,1.5818,1.5784,1.5784,1.5784,1.5784,1.5784,1.5784,1.5784,1.5784,1.5784,1.5784,1.5784,1.5758,1.5611,1.2058,1.2251,1.2365,1.2683,1.2979,1.3647,1.5256,1.5629,1.5898,1.678,1.7588,1.8041,1.7766,2.0724,2.3113,2.308,2.5867,2.8213,2.8682,2.916,2.9548,2.9577,2.9521,2.9541,2.9665,2.9189,2.8916,2.8916,2.7275,2.61,2.5665,2.3045,2.1463,2.1289,1.9605,1.898,1.9533,1.9149,1.9092,1.9424,1.9424,1.9424,1.9417,1.9085,1.8958,1.8938,1.8776,1.8816,1.8951,1.9065,1.9233,1.9424,1.9424,1.9424,1.9424,1.9424,1.9424,1.9424,1.9424,1.9424,1.9424,1.9424,1.9424,1.9424,1.9424,1.9424,1.9424,1.9424,1.9424,1.9424,1.9424,1.9424,1.9424,1.9424,1.9424,1.9424,1.9424,1.9424,1.9285,1.9011,1.9178,1.9199,1.8651,1.8537,1.8424,1.8069,1.7816,1.7609,1.7589,1.7582,1.7582,1.7582,1.7582,1.7514,1.7226,1.6894,1.6593,1.6259,1.5979,1.5784,1.5784,1.5784,1.5784,1.5784,1.5784,1.5784,1.5784,1.5784,1.5784,1.5771,1.5551,1.5418,1.1971,1.2335,1.269,1.2998,1.326,1.3662,1.4518,1.5131,1.5708,1.6432,1.6918,1.7533,1.8465,1.9993,2.1414,2.2363,2.5209,2.7297,2.7185,2.832,2.8819,2.7912,2.7567,2.716,2.6501,2.6847,2.6673,2.5538,2.5649,2.4843,2.2686,2.1488,2.0472,1.9507,1.887,1.8597,1.8818,1.8891,1.8978,1.9092,1.9279,1.9424,1.9424,1.9252,1.9098,1.8918,1.8804,1.8824,1.8911,1.8731,1.8938,1.9424,1.9424,1.9424,1.9424,1.9424,1.9424,1.9424,1.9424,1.9424,1.9424,1.9424,1.9424,1.9424,1.9424,1.9424,1.9424,1.9424,1.9424,1.9424,1.9424,1.9424,1.9424,1.9424,1.9424,1.9424,1.9424,1.9424,1.9332,1.9225,1.9292,1.9239,1.8831,1.8611,1.839,1.8035,1.7782,1.7582,1.7582,1.7749,1.7796,1.7602,1.7582,1.7542,1.7481,1.7199,1.6854,1.656,1.6092,1.5784,1.5784,1.5784,1.5784,1.5784,1.5784,1.5784,1.5784,1.5784,1.5784,1.5778,1.5718,1.5665,1.1906,1.2201,1.2583,1.2846,1.3353,1.3908,1.4396,1.4963,1.5618,1.6442,1.6707,1.7231,1.8491,1.9324,2.0229,2.157,2.4157,2.5837,2.5432,2.6618,2.7105,2.5913,2.5547,2.509,2.4338,2.4872,2.4709,2.3473,2.3818,2.3046,2.068,2.0133,1.9403,1.835,1.8257,1.8297,1.849,1.8591,1.8691,1.8791,1.8991,1.9249,1.9417,1.9172,1.8978,1.8778,1.8584,1.8611,1.8764,1.847,1.8698,1.9239,1.939,1.9424,1.9424,1.9424,1.9424,1.9424,1.9424,1.9424,1.9424,1.9424,1.9424,1.9424,1.9424,1.9424,1.9424,1.9424,1.9424,1.9424,1.9424,1.9424,1.9424,1.9424,1.9424,1.9424,1.9424,1.9424,1.9424,1.9424,1.9424,1.9272,1.8978,1.8758,1.8497,1.8049,1.7943,1.7802,1.7609,1.7856,1.7876,1.7615,1.7582,1.7582,1.7582,1.7367,1.7072,1.6727,1.6239,1.5925,1.5784,1.5784,1.5784,1.5784,1.5784,1.5784,1.5784,1.5784,1.5784,1.5784,1.5784,1.5784,1.1906,1.1913,1.1986,1.2238,1.3206,1.4322,1.5204,1.5404,1.5738,1.6965,1.7206,1.73,1.7542,1.8819,2.0001,2.0602,2.2823,2.4291,2.3815,2.4192,2.4339,2.3807,2.3758,2.3758,2.3758,2.3492,2.3394,2.334,2.1705,2.0565,2.0295,1.8817,1.7982,1.7982,1.7736,1.7869,1.847,1.8135,1.8196,1.849,1.849,1.8791,1.9397,1.8758,1.849,1.8457,1.7849,1.7929,1.8464,1.8115,1.8342,1.8951,1.9245,1.9424,1.9424,1.9424,1.9424,1.9424,1.9424,1.9424,1.9424,1.9424,1.9424,1.9424,1.9424,1.9424,1.9424,1.9424,1.9424,1.9424,1.9424,1.9424,1.9424,1.9424,1.9424,1.9424,1.9424,1.9424,1.9424,1.9424,1.9424,1.9272,1.8978,1.8925,1.8724,1.8082,1.8303,1.827,1.7669,1.7856,1.7923,1.7615,1.7582,1.7582,1.7582,1.7373,1.7079,1.6727,1.644,1.6146,1.5791,1.5784,1.5784,1.5784,1.5784,1.5784,1.5784,1.5784,1.5784,1.5784,1.5784,1.5784,1.2171,1.2362,1.2643,1.312,1.378,1.4623,1.5498,1.5858,1.6346,1.7535,1.7782,1.7869,1.8163,1.8591,1.8919,1.9098,2.1033,2.2423,2.2266,2.3086,2.329,2.2078,2.1743,2.1228,2.0154,2.0925,2.0985,1.97,2.0116,1.981,1.845,1.7777,1.7415,1.7415,1.738,1.7414,1.7594,1.7883,1.8035,1.8129,1.839,1.8584,1.8744,1.8571,1.8377,1.8115,1.7935,1.7955,1.8135,1.831,1.8464,1.8651,1.8938,1.9185,1.9424,1.9424,1.9424,1.9424,1.9424,1.9424,1.9424,1.9424,1.9424,1.9424,1.9424,1.9424,1.9424,1.9424,1.9424,1.9424,1.9424,1.9424,1.9424,1.9424,1.9424,1.9424,1.9424,1.9424,1.9424,1.9424,1.9424,1.9272,1.8978,1.8925,1.8798,1.8417,1.8437,1.8424,1.8243,1.7929,1.7769,1.7896,1.7716,1.7582,1.7582,1.7554,1.738,1.7085,1.674,1.6353,1.5804,1.6032,1.6046,1.5784,1.6039,1.6039,1.5784,1.5784,1.5784,1.5784,1.5784,1.5784,1.1957,1.2208,1.261,1.3287,1.3959,1.4783,1.5778,1.6506,1.7215,1.805,1.8223,1.831,1.8611,1.8571,1.8524,1.8644,1.9828,2.0759,2.0759,2.126,2.1274,2.0334,2.0005,1.9497,1.8601,1.9173,1.9182,1.8056,1.8758,1.8756,1.7641,1.736,1.7199,1.7199,1.7199,1.7199,1.7199,1.7622,1.7862,1.7862,1.8043,1.813,1.8136,1.8257,1.8217,1.7995,1.7982,1.7916,1.7896,1.8317,1.8424,1.835,1.8764,1.9032,1.9205,1.9325,1.9424,1.9424,1.9424,1.9424,1.9424,1.9424,1.9424,1.9424,1.9424,1.9424,1.9424,1.9424,1.9424,1.9424,1.9424,1.9424,1.9424,1.9424,1.9424,1.9424,1.9424,1.9424,1.9424,1.9424,1.9424,1.9312,1.9132,1.9098,1.8998,1.8704,1.8564,1.8444,1.833,1.7996,1.7796,1.7856,1.7695,1.7582,1.7582,1.7582,1.7514,1.7219,1.6867,1.6547,1.6192,1.6126,1.6072,1.6005,1.6066,1.6005,1.5784,1.5784,1.5784,1.5784,1.5784,1.5784,1.1495,1.1744,1.2208,1.31,1.4008,1.4963,1.6066,1.7188,1.8035,1.839,1.847,1.8577,1.8871,1.8704,1.8617,1.8878,1.9152,1.9325,1.9325,1.9045,1.8844,1.8844,1.8564,1.837,1.837,1.8103,1.7869,1.7869,1.7662,1.7502,1.7502,1.728,1.7119,1.7119,1.7119,1.7132,1.7159,1.7454,1.7555,1.7582,1.7582,1.7582,1.7595,1.7876,1.7949,1.7949,1.7983,1.7829,1.7622,1.8176,1.8263,1.8049,1.8582,1.8878,1.8958,1.9225,1.9345,1.9424,1.9424,1.9424,1.9424,1.9424,1.9424,1.9424,1.9424,1.9424,1.9424,1.9424,1.9424,1.9424,1.9424,1.9424,1.9424,1.9424,1.9424,1.9424,1.9424,1.9424,1.9424,1.9424,1.9424,1.9424,1.9424,1.9424,1.9265,1.8965,1.8677,1.8384,1.8029,1.7969,1.7896,1.7609,1.7582,1.7582,1.7582,1.7582,1.7521,1.7259,1.6907,1.676,1.6787,1.6219,1.6025,1.6266,1.6059,1.5912,1.5784,1.5804,1.5804,1.5784,1.5784,1.5784,1.2375,1.2543,1.2864,1.3955,1.5077,1.6019,1.6506,1.7168,1.7769,1.8022,1.833,1.8577,1.8871,1.8871,1.8851,1.8911,1.8978,1.9018,1.9018,1.8564,1.8182,1.8182,1.7762,1.7494,1.7494,1.7168,1.6994,1.6994,1.6934,1.6894,1.6894,1.662,1.6509,1.6509,1.6509,1.6573,1.68,1.7146,1.7414,0.0,1.7582,1.7582,1.7589,1.7649,1.7682,1.7682,1.7675,1.7642,1.7595,1.7722,1.7883,1.8002,1.8129,1.8462,1.8931,1.8991,1.9165,1.9424,1.9424,1.9424,1.9424,1.9424,1.9424,1.9424,1.9424,1.9424,1.9424,1.9424,1.9424,1.9424,1.9424,1.9424,1.9424,1.9424,1.9424,1.9424,1.9424,1.9424,1.9424,1.9424,1.9424,1.9424,1.9424,1.9424,1.9265,1.8965,1.8677,1.8384,1.8029,1.7836,1.7655,1.7589,1.7582,1.7582,1.7582,1.7582,1.7555,1.7548,1.7266,1.7213,1.7388,1.6827,1.644,1.6279,1.671,1.652,1.5784,1.6059,1.6059,1.5784,1.5784,1.5784,1.2281,1.2569,1.3105,1.4402,1.5398,1.6139,1.6433,1.684,1.7288,1.7736,1.8183,1.8537,1.8691,1.8718,1.8718,1.8718,1.8718,1.8718,1.8718,1.8203,1.7822,1.7822,1.7301,1.6941,1.6941,1.68,1.6707,1.6707,1.6707,1.6707,1.6707,1.6433,1.6321,1.6321,1.6321,1.6346,1.65,1.6787,1.7014,1.7161,1.7161,1.7161,1.7174,1.7455,1.7508,1.7382,1.6818,1.6935,1.7529,1.6823,1.7025,1.7842,1.7935,1.8175,1.8482,1.8761,1.9025,1.9172,1.9319,1.9424,1.9345,1.9199,1.9252,1.9339,1.9199,1.9252,1.9424,1.9424,1.9424,1.9424,1.9424,1.9424,1.9424,1.9424,1.9424,1.9424,1.9424,1.9424,1.9424,1.9424,1.8765,1.8422,1.9063,1.9038,1.8851,1.8495,1.8497,1.833,1.7883,1.7816,1.7749,1.7595,1.7582,1.7582,1.7582,1.7582,1.7582,1.7582,1.736,1.7266,1.742,1.7132,1.6847,1.6744,1.677,1.6549,1.6039,1.6052,1.5979,1.5784,1.5784,1.5784,1.2027,1.2529,1.334,1.468,1.5364,1.5845,1.6192,1.646,1.678,1.7321,1.7909,1.835,1.8404,1.841,1.841,1.841,1.841,1.8397,1.8343,1.7856,1.7488,1.7435,1.6961,1.6627,1.6627,1.6587,1.6553,1.6553,1.6553,1.6553,1.6553,1.6326,1.6095,1.5894,1.5894,1.5921,1.5967,1.6153,1.6447,1.6707,1.6707,1.668,1.6647,1.7188,1.7301,1.703,1.5829,1.6169,1.7397,1.5948,1.6243,1.7609,1.7862,1.7949,1.8049,1.8535,1.8804,1.8891,1.9185,1.9259,1.9185,1.8985,1.9058,1.9178,1.8985,1.9058,1.9296,1.9397,1.939,1.9299,1.9352,1.9424,1.9424,1.9424,1.9185,1.9004,1.9004,1.9004,1.8887,1.8648,1.7471,1.6937,1.8254,1.8246,1.8101,1.8035,1.8257,1.8217,1.7655,1.7809,1.7869,1.7609,1.7582,1.7582,1.7582,1.7582,1.7582,1.7582,1.7414,1.728,1.728,1.728,1.7253,1.7199,1.6723,1.6402,1.6192,1.5999,1.5879,1.5784,1.5784,1.5784,1.2529,1.3293,1.4117,1.4834,1.5211,1.5598,1.6146,1.6348,1.6426,1.6754,1.7295,1.7782,1.8002,1.8049,1.8049,1.8049,1.8049,1.8016,1.7742,1.7467,1.7166,1.6854,1.6533,1.6333,1.6333,1.6099,1.5898,1.5898,1.5898,1.5898,1.5898,1.5912,1.5347,1.4268,1.422,1.4328,1.4556,1.4592,1.5332,1.6707,1.6707,1.6573,1.6339,1.6673,1.68,1.6717,1.5403,1.5761,1.7156,1.5784,1.6187,1.7589,1.7629,1.7809,1.8002,1.8082,1.8323,1.8591,1.8885,1.8818,1.8644,1.8858,1.8778,1.8651,1.8858,1.8778,1.8711,1.9225,1.9185,1.9038,1.9299,1.9424,1.9424,1.9424,1.8344,1.7325,1.7325,1.7325,1.6909,1.5494,1.4971,1.516,1.6455,1.6608,1.6895,1.7866,1.8029,1.7929,1.7629,1.7615,1.7629,1.7589,1.7582,1.7582,1.7582,1.7582,1.7582,1.7582,1.7549,1.7522,1.7522,1.7522,1.746,1.7206,1.7125,1.6703,1.5885,1.6106,1.6079,1.5784,1.5784,1.5784,1.267,1.3199,1.3734,1.4322,1.4861,1.5264,1.5685,1.6039,1.6306,1.6433,1.68,1.7134,1.7268,1.7243,1.7243,1.7243,1.7243,1.7248,1.7108,1.684,1.6656,1.648,1.6206,1.6025,1.6025,1.5905,1.5784,1.5784,1.5784,1.5784,1.5784,1.5784,1.5242,1.3926,1.4609,1.4665,1.4091,1.4782,1.5486,1.6219,1.6219,1.6146,1.5984,1.5405,1.5601,1.6417,1.5199,1.5543,1.6799,1.545,1.5867,1.7393,1.7393,1.7522,1.7809,1.7929,1.8075,1.8283,1.8577,1.8597,1.8484,1.8444,1.8457,1.8311,1.7469,1.7247,1.7154,1.6588,1.702,1.7501,1.6659,1.776,1.8933,1.8103,1.7277,1.6495,1.5816,1.5622,1.5078,1.3383,1.363,1.4002,1.3546,1.4795,1.5994,1.6485,1.7242,1.7736,1.7602,1.7582,1.7582,1.7582,1.7582,1.7582,1.7582,1.6823,1.6717,1.7529,1.6823,1.6647,1.7348,1.7393,1.7253,1.6907,1.6901,1.6627,1.6079,1.6039,1.5959,1.5784,1.5784,1.5784,1.261,1.2913,1.332,1.3754,1.4362,1.493,1.5217,1.5685,1.6072,1.6146,1.6333,1.648,1.648,1.6607,1.6707,1.6707,1.6707,1.668,1.6607,1.6413,1.6295,1.6166,1.5965,1.5784,1.5784,1.5784,1.5784,1.5784,1.5784,1.5784,1.5784,1.5486,1.4704,1.344,1.4322,1.437,1.3392,1.4997,1.5635,1.5343,1.5343,1.5146,1.4758,1.383,1.4032,1.5125,1.4278,1.4952,1.6494,1.4761,1.5226,1.7048,1.6806,1.6801,1.7022,1.7649,1.7654,1.7417,1.8106,1.8323,1.8237,1.8035,1.7864,1.7499,1.629,1.5728,1.5344,1.4394,1.5007,1.5692,1.4495,1.5966,1.751,1.6443,1.5795,1.5152,1.4208,1.3544,1.2812,1.1475,1.2021,1.2429,1.1445,1.293,1.4556,1.531,1.6333,1.7041,1.7041,1.7041,1.6876,1.6552,1.6823,1.7041,1.7041,1.6387,1.6446,1.7529,1.6552,1.6352,1.7268,1.7306,1.7172,1.682,1.682,1.6673,1.638,1.6086,1.5939,1.5939,1.5818,1.5784,1.2318,1.2759,1.322,1.3247,1.3908,1.4623,1.4961,1.5224,1.5518,1.5751,1.5818,1.5872,1.5872,1.6326,1.6707,1.6707,1.6707,1.6607,1.6382,1.6335,1.6166,1.5838,1.5791,1.5784,1.5784,1.5784,1.5784,1.5784,1.5784,1.5784,1.5784,1.4657,1.3397,1.2042,1.2091,1.2091,1.1994,1.4519,1.5194,1.4022,1.4022,1.3343,1.2091,1.2042,1.2047,1.2111,1.2073,1.3671,1.6146,1.3546,1.4192,1.6653,1.5682,1.5209,1.5349,1.7009,1.6736,1.5749,1.7464,1.7876,1.7675,1.7902,1.687,1.5612,1.5843,1.4767,1.3549,1.3969,1.4045,1.4106,1.431,1.4593,1.4821,1.4703,1.3512,1.238,1.2333,1.1009,0.9797,0.9583,0.9488,0.9785,1.0932,1.1219,1.224,1.4984,1.547,1.5524,1.5524,1.5524,1.4984,1.3642,1.4716,1.5524,1.5524,1.6717,1.7529,1.7582,1.7529,1.7516,1.7562,1.7562,1.7474,1.7186,1.7179,1.7032,1.6687,1.6393,1.6253,1.6295,1.5965,1.5784,1.2623,1.2784,1.2951,1.2951,1.344,1.3946,1.4088,1.4636,1.515,1.5251,1.5424,1.5611,1.5792,1.5999,1.6146,1.6146,1.6146,1.6106,1.6005,1.5985,1.5945,1.5791,1.5784,1.5784,1.5784,1.5784,1.5784,1.5784,1.5784,1.5439,1.4609,1.4166,1.2909,1.073,1.2328,1.359,1.4424,1.5343,1.5146,1.3926,1.3926,1.3199,1.1853,1.1068,1.1116,1.1848,1.1023,1.1746,1.3387,1.2459,1.2793,1.3913,1.355,1.3513,1.3934,1.5461,1.5763,1.5595,1.7217,1.7675,1.7437,1.6624,1.5934,1.5055,1.336,1.2405,1.1754,1.1129,1.1737,1.2364,1.1459,1.2768,1.4084,1.3035,1.2486,1.1916,1.0899,1.0127,0.9537,0.934,0.9248,0.9332,0.9618,1.0457,1.1428,1.2453,1.3426,1.4073,1.4073,1.4073,1.3857,1.3372,1.4556,1.5417,1.5417,1.5902,1.6605,1.7529,1.6711,1.6605,1.7582,1.7221,1.7148,1.7474,1.7061,1.6814,1.6707,1.6413,1.5869,1.5004,1.4732,1.4124,1.2784,1.2931,1.3085,1.3085,1.3347,1.3626,1.3726,1.4249,1.474,1.4796,1.505,1.5337,1.5631,1.5685,1.5718,1.5764,1.5784,1.5784,1.5784,1.5784,1.5784,1.5784,1.5784,1.5784,1.5784,1.5784,1.5784,1.5784,1.5384,0.0,1.3974,1.3049,1.1789,1.0047,1.2086,1.383,1.5146,1.5146,1.4513,1.3199,1.2813,1.1891,1.0583,0.9706,0.9801,1.0534,0.9702,1.0288,1.1853,1.1458,1.1644,1.2178,1.1849,1.1841,1.2242,1.3838,1.4182,1.4109,1.5552,1.61,1.6015,1.4984,1.4341,1.3583,1.1701,1.0726,1.0209,0.9328,1.0016,1.0755,0.9668,1.1032,1.2432,1.1383,1.1235,1.1076,1.0001,0.9669,0.949,0.9337,0.9184,0.9066,0.9018,0.9732,1.0511,1.1055,1.1914,1.2566,1.2566,1.2566,1.2349,1.1864,1.3534,1.4716,1.4716,1.5577,1.6552,1.7529,1.6658,1.6333,1.6823,1.6465,1.6232,1.6168,1.5771,1.5538,1.5446,1.5688,1.5301,1.4298,1.3554,1.2522,0.0,0.0,0.0,1.358,1.3586,1.366,1.3975,1.4048,1.4142,1.4422,1.4716,1.5062,1.5317,1.5371,1.5464,1.5711,1.5771,1.5784,1.5784,1.5784,1.5778,1.5771,1.5764,1.5764,1.5758,1.5758,1.5758,1.5758,1.459,1.3866,1.3813,1.1351,0.9948,0.9989,1.1209,1.2512,1.3807,1.3861,1.3188,1.1838,1.0578,0.9316,0.7988,0.7988,0.7988,0.7988,0.7988,0.946,1.1702,1.0435,1.0681,1.1678,1.0693,1.0264,1.0336,1.2108,1.1959,1.1084,1.2504,1.3126,1.3264,1.3264,1.2295,1.1105,1.1051,1.0025,0.8885,0.8888,0.9157,0.9384,0.9388,0.9602,0.9815,0.9808,0.9812,0.9815,0.9815,0.9585,0.9418,0.9571,0.9245,0.8988,0.918,0.9035,0.9379,1.0844,1.1067,1.1067,1.1063,1.1059,1.0515,0.9047,1.1483,1.3264,1.3318,1.5902,1.7529,1.7529,1.7529,1.6876,1.5417,1.5352,1.4705,1.3308,1.3303,1.3186,1.2953,1.414,1.4563,1.415,1.2536,1.1116,1.314,0.0,0.0,0.0,0.0,0.0,1.2879,1.3133,1.3474,1.3554,1.3808,1.4119,1.4669,1.4763,1.4856,1.5157,1.5558,1.5784,1.5784,1.5784,1.5752,1.5538,1.5518,1.5431,1.5224,1.5204,1.5204,0.0,1.4201,1.3119,1.221,0.9869,0.8962,0.9847,1.0982,1.1806,1.2153,1.3076,1.2505,1.0368,1.0125,0.9316,0.7988,0.7988,0.7988,0.7988,0.7988,0.8432,0.9069,0.8676,0.8775,0.9072,0.8774,0.8715,0.9027,1.0531,1.1014,1.1084,1.2504,1.3126,1.3102,1.2077,1.1433,1.0891,0.9809,0.921,0.8905,0.9062,0.9232,0.9408,0.9517,0.9605,0.9639,0.953,0.9588,0.9666,0.9666,0.9432,0.932,0.9415,0.9256,0.9072,0.9008,0.9052,0.9261,0.9648,0.9801,0.9834,0.9718,0.97,0.9493,0.895,1.0566,1.2132,1.321,1.4936,1.6009,1.6009,1.6009,1.5364,1.3965,1.3641,1.3393,1.307,1.2912,1.2725,1.2557,1.3006,1.2633,1.1463,0.9834,0.8871,1.3127,1.3514,1.3774,1.354,0.0,0.0,1.2913,1.2939,1.2979,1.2859,1.3166,1.3527,1.3873,1.4033,1.4289,1.471,1.5064,1.5331,1.5451,1.5471,1.5404,1.5237,1.5217,1.515,1.5028,1.5008,1.4777,1.4276,1.3251,1.1873,1.0105,0.8702,0.8432,0.9627,1.0339,1.0888,1.1415,1.1724,1.1176,0.981,0.9376,0.8775,0.7988,0.7988,0.7988,0.7988,0.7988,0.7988,0.7988,0.7988,0.7988,0.7988,0.7988,0.8096,0.8275,0.9114,0.963,1.0026,1.0857,1.1251,1.1324,1.0457,1.0186,1.0021,0.9154,0.8885,0.8902,0.9042,0.9218,0.9415,0.9568,0.9652,0.9676,0.9585,0.9588,0.9608,0.9608,0.9418,0.935,0.9445,0.9252,0.9055,0.9032,0.9096,0.921,0.921,0.934,0.9327,0.9228,0.921,0.9096,0.8898,1.0241,1.1433,1.2295,1.3696,1.4502,1.4502,1.4502,1.3857,1.2457,1.2178,1.1844,1.1312,1.1072,1.0893,1.0681,1.1341,1.089,0.9361,0.8425,0.7988,1.2994,1.3687,1.4182,1.4376,1.3881,0.0,1.3473,1.3153,1.2744,1.2371,1.2732,1.312,1.3153,1.336,1.3726,1.4289,1.4359,1.4549,1.4955,1.5008,1.4995,1.4961,1.4961,1.4948,1.4914,1.4908,1.4404,1.3174,1.1935,1.0275,0.8079,0.7875,0.8275,0.9235,0.9393,0.9892,1.0842,1.0097,0.9685,0.9546,0.8494,0.7988,0.7988,0.7988,0.7988,0.7988,0.7988,0.7988,0.7988,0.7988,0.7988,0.7988,0.7988,0.7988,0.7988,0.7988,0.8228,0.8482,0.8482,0.8682,0.8885,0.8885,0.8885,0.8885,0.8885,0.8885,0.8888,0.8902,0.914,0.9367,0.952,0.9652,0.9744,0.9727,0.9639,0.9557,0.9557,0.9439,0.9378,0.953,0.9249,0.9022,0.919,0.9224,0.9234,0.9234,0.935,0.9327,0.9228,0.921,0.9096,0.8898,1.0076,1.0945,1.1105,1.2295,1.3053,1.3053,1.3053,1.2403,1.0945,1.0836,1.0233,0.8913,0.8747,0.8533,0.8323,0.9552,0.9411,0.7988,0.7988,0.7988,1.3282,1.3946,1.4335,1.3873,1.3999,0.0,1.3166,1.3026,1.2966,1.2412,1.2398,1.2552,1.2831,1.3093,1.3333,1.3447,1.362,1.4039,1.4901,1.5008,1.4921,1.4636,1.4603,1.4516,1.4282,1.4262,1.3765,1.2573,1.0789,0.9137,0.7729,0.7767,0.7798,0.783,0.8691,0.8779,0.7934,0.8912,0.8937,0.8019,0.8007,0.7988,0.7988,0.7988,0.7988,0.7988,0.7988,0.7988,0.7988,0.7988,0.7988,0.7988,0.7988,0.7988,0.7988,0.7988,0.8228,0.8482,0.8482,0.8682,0.8885,0.8885,0.8885,0.8885,0.8885,0.8885,0.8908,0.9079,0.9069,0.9059,0.9205,0.932,0.9256,0.9137,0.9178,0.9299,0.9299,0.9127,0.9069,0.9215,0.9269,0.9266,0.9224,0.9313,0.9337,0.9337,0.9361,0.9327,0.9228,0.921,0.9096,0.8898,0.9154,0.9805,1.1,1.1378,1.1538,1.1538,1.1538,1.0891,0.9372,0.9316,0.915,0.8757,0.8492,0.833,0.8323,0.8391,0.8314,0.7988,0.7988,0.7988,1.3307,1.3926,0.0,1.4073,1.4039,0.0,0.0,1.3086,1.2891,1.2398,1.2305,1.2345,1.2536,1.2652,1.2806,1.2953,1.31,1.3407,1.4001,1.4088,1.4035,1.3881,1.3868,1.3814,1.3661,1.3184,1.2242,1.0725,0.9095,0.8024,0.7637,0.7594,0.7798,0.8223,0.8136,0.8053,0.8017,0.8219,0.8116,0.76,0.7821,0.7917,0.7988,0.7988,0.7988,0.7988,0.7988,0.7988,0.7988,0.7988,0.7988,0.7988,0.7988,0.7988,0.7988,0.7988,0.8184,0.8387,0.8459,0.8632,0.8835,0.8858,0.8885,0.8885,0.8885,0.8885,0.8898,0.9025,0.9045,0.9062,0.919,0.9265,0.9249,0.9178,0.9154,0.921,0.921,0.9042,0.8905,0.9032,0.9167,0.9222,0.9072,0.9232,0.9354,0.9337,0.9334,0.9327,0.9228,0.921,0.9096,0.8898,0.8885,0.921,0.9915,1.0025,1.0025,1.0025,1.0025,0.9644,0.8937,0.8885,0.8811,0.8713,0.8489,0.8391,0.8323,0.8194,0.8113,0.7988,0.7335,0.6983,1.3509,0.0,0.0,0.0,0.0,1.3838,0.0,0.0,0.0,1.2719,1.2486,1.2378,1.2556,1.2456,1.2449,1.2522,1.2677,1.279,1.2779,1.2879,1.3039,1.3267,1.324,1.3233,1.3287,1.2098,1.0639,0.8927,0.776,0.7193,0.7458,0.7407,0.7804,0.8702,0.7686,0.7577,0.854,0.7817,0.7478,0.76,0.7773,0.787,0.7988,0.7988,0.7988,0.7988,0.7988,0.7988,0.7988,0.7988,0.7988,0.7988,0.7988,0.7988,0.7988,0.7988,0.8136,0.8337,0.8401,0.856,0.873,0.8801,0.8858,0.8885,0.8885,0.8885,0.8885,0.8885,0.9022,0.9169,0.9169,0.9205,0.9296,0.9296,0.9201,0.9169,0.9169,0.9022,0.8885,0.8885,0.9055,0.9173,0.8998,0.9178,0.9354,0.9228,0.9235,0.9252,0.9183,0.9169,0.9066,0.8895,0.8885,0.8885,0.8885,0.8885,0.8885,0.8885,0.8885,0.8868,0.8841,0.8841,0.8821,0.8669,0.8574,0.8334,0.7904,0.7904,0.7829,0.7587,0.6481,0.5879,0.0,0.0,0.0,0.0,1.4116,0.0,0.0,0.0,1.3614,1.3905,0.0,1.2556,1.3382,0.0,0.0,1.1697,1.2268,1.2435,1.139,1.169,1.2412,1.3427,1.3327,1.3273,1.3527,1.1456,0.9639,0.8543,0.763,0.7058,0.6967,0.7238,0.7399,0.7344,0.719,0.7183,0.7316,0.7473,0.7584,0.7604,0.7833,0.7971,0.7988,0.7988,0.7988,0.7988,0.7988,0.7988,0.7988,0.7988,0.7988,0.7988,0.7988,0.7988,0.7988,0.7988,0.8136,0.8323,0.834,0.8476,0.8713,0.873,0.8828,0.8885,0.8885,0.8885,0.8885,0.8885,0.8895,0.8908,0.8908,0.8922,0.8932,0.8932,0.8922,0.8908,0.8908,0.8895,0.8885,0.8885,0.9055,0.9204,0.9187,0.9214,0.9228,0.921,0.9059,0.8929,0.8908,0.8908,0.8902,0.8885,0.8885,0.8885,0.8885,0.8885,0.8885,0.8885,0.8885,0.8821,0.8743,0.8737,0.8665,0.8509,0.8625,0.7955,0.6551,0.6551,0.6441,0.6229,0.6079,0.5375,0.0,0.0,0.0,0.0,0.0,0.0,1.3269,0.0,1.3601,0.0,0.0,0.0,0.0,0.0,0.0,0.0,1.2033,1.204,1.1336,1.1456,1.1864,1.2532,0.0,0.0,1.1187,1.0172,0.8913,0.7398,0.6967,0.6766,0.6797,0.6915,0.6993,0.6974,0.6974,0.7014,0.7095,0.7223,0.738,0.7468,0.7682,0.7828,0.7909,0.7948,0.7988,0.7988,0.7988,0.7988,0.7988,0.7988,0.7988,0.7988,0.7988,0.7988,0.7988,0.7988,0.8029,0.815,0.8238,0.835,0.8482,0.8655,0.8754,0.8821,0.8858,0.8885,0.8885,0.8885,0.8885,0.8885,0.8885,0.8885,0.8885,0.8885,0.8885,0.8885,0.8885,0.8885,0.8885,0.8885,0.8988,0.9028,0.9028,0.9096,0.918,0.9042,0.8977,0.8885,0.8885,0.8885,0.8885,0.8885,0.8885,0.8885,0.8885,0.8885,0.8885,0.8885,0.8885,0.8854,0.879,0.8757,0.8285,0.7485,0.7411,0.6664,0.5085,0.5085,0.4599,0.3668,0.3668,0.3367,1.113,0.0,0.0,0.0,0.0,0.0,0.0,0.0,0.0,0.0,0.0,0.0,0.0,0.0,0.0,0.0,0.0,1.1899,1.1162,1.1242,1.1536,1.1866,0.0,0.0,0.0,0.9296,0.8521,0.6601,0.6491,0.668,0.7037,0.684,0.6895,0.7304,0.7054,0.6953,0.7095,0.7139,0.7258,0.7419,0.7526,0.7675,0.7814,0.7877,0.7948,0.7988,0.7988,0.7988,0.7988,0.7988,0.7988,0.7988,0.7988,0.7988,0.7988,0.7988,0.7988,0.8005,0.8167,0.8235,0.8313,0.8567,0.8676,0.873,0.8842,0.8851,0.8885,0.8885,0.8885,0.8885,0.8885,0.8885,0.8885,0.8885,0.8885,0.8885,0.8885,0.8885,0.8885,0.8885,0.8885,0.8885,0.8885,0.9025,0.9059,0.8898,0.8885,0.8885,0.8885,0.8885,0.8885,0.8885,0.8885,0.8885,0.8885,0.8885,0.8885,0.8885,0.8844,0.8653,0.8265,0.8129,0.743,0.6013,0.5969,0.5186,0.3607,0.3626,0.2905,0.146,0.1812,0.1812,0.0,0.0,0.0,1.1426,0.0,0.0,0.0,0.0,1.4274,0.0,0.0,0.0,0.0,0.0,0.0,0.0,0.0,0.0,0.0,1.0856,1.1536,1.1866,1.2118,0.0,0.0,0.9296,0.8466,0.6458,0.6433,0.6907,0.7899,0.7145,0.7222,0.831,0.7393,0.6953,0.7095,0.7288,0.7412,0.7419,0.7526,0.7675,0.7811,0.7818,0.7899,0.7988,0.7988,0.7988,0.7988,0.7988,0.7988,0.7988,0.7988,0.7988,0.7988,0.7988,0.7988,0.7988,0.7995,0.8143,0.8347,0.8442,0.8587,0.8713,0.8716,0.8821,0.8885,0.8885,0.8885,0.8885,0.8885,0.8885,0.8885,0.8885,0.8885,0.8885,0.8885,0.8885,0.8885,0.8885,0.8885,0.8885,0.8885,0.8888,0.8888,0.8885,0.8885,0.8885,0.8885,0.8885,0.8885,0.8885,0.8885,0.8885,0.8885,0.8885,0.8885,0.8885,0.8801,0.8062,0.6645,0.6587,0.5789,0.414,0.4421,0.3759,0.2067,0.2207,0.1489,0.0101,0.141,0.131,0.0,0.0,0.9377,0.9953,0.0,0.0,0.0,0.0,0.0,0.0,0.0,0.0,0.0,0.0,0.0,0.0,0.0,0.0,0.0,1.0668,1.0758,1.0464,1.0787,1.0472,0.8975,0.0,0.7555,0.6218,0.6753,0.7359,0.7824,0.8203,0.8383,0.8292,0.7931,0.7565,0.7092,0.7146,0.7217,0.7221,0.7373,0.7526,0.7675,0.777,0.7896,0.7988,0.7988,0.7988,0.7988,0.7988,0.7988,0.7988,0.7988,0.7988,0.7988,0.7988,0.7988,0.7988,0.7988,0.8022,0.8157,0.8401,0.8516,0.8598,0.8801,0.8844,0.8885,0.8885,0.8885,0.8885,0.8885,0.8885,0.8885,0.8885,0.8885,0.8885,0.8885,0.8885,0.8885,0.8885,0.8885,0.8885,0.8885,0.8885,0.8885,0.8885,0.8885,0.8885,0.8885,0.8885,0.8885,0.8885,0.8885,0.8885,0.8885,0.8885,0.8885,0.8885,0.8834,0.8194,0.6699,0.6608,0.5445,0.2841,0.291,0.2233,0.0668,0.0724,0.0462,0.0,0.0454,0.0454,0.7641,0.7726,0.0,0.9083,0.9288,0.0,1.0479,0.0,1.102,0.0,0.0,0.0,0.0,0.0,0.0,0.0,0.0,0.0,0.0,1.066,1.0334,0.9628,0.9919,0.9611,0.8277,0.7717,0.7025,0.6061,0.6615,0.7356,0.8304,0.0,0.838,0.8658,0.8008,0.748,0.7018,0.7071,0.7095,0.7098,0.7241,0.74,0.7604,0.7695,0.7845,0.7988,0.7988,0.7988,0.7988,0.7988,0.7988,0.7988,0.7988,0.7988,0.7988,0.7988,0.7988,0.7995,0.8102,0.8035,0.8039,0.8387,0.8482,0.853,0.8781,0.8841,0.8871,0.8817,0.8841,0.8871,0.8817,0.8844,0.8885,0.8885,0.8885,0.8885,0.8885,0.8885,0.8885,0.8885,0.8885,0.8885,0.8885,0.8885,0.8885,0.8885,0.8885,0.8885,0.8885,0.8885,0.8885,0.8885,0.8885,0.8885,0.8885,0.8885,0.8885,0.8885,0.8885,0.7986,0.5975,0.5941,0.4474,0.1488,0.1407,0.0958,0.0,0.0,0.0,0.0,0.0,0.0]},{"header":{"parameterUnit":"m.s-1","parameterCategory":1,"la1":30.6,"la2":29.2853,"lo1":-89.7004,"lo2":-87.6739,"dx":0.0162,"dy":0.0183,"nx":112,"ny":82,"refTime":"2023-02-01T06:00:00:Z","depth":0,"parameterNumber":3,"parameterNumberName":"V-component_of_WINDS"},"data":[0.0,0.0,0.0,0.0,0.0,0.0,0.0,0.0,0.0,0.0,0.0,0.0,0.0,0.0,0.0,0.0,0.0,0.0,0.0,0.0,0.0,0.0,0.0,0.0,0.0,0.0,0.0,0.0,0.0,0.0,0.0,0.0,0.0,0.0,0.0,0.0,0.0,0.0,0.0,0.0,0.0,0.0,0.0,0.0,0.0,0.0,0.0,0.0,0.0,0.0,0.0,0.0,0.0,0.0,0.0,0.0,0.0,0.0,0.0,0.0,0.0,0.0,0.0,0.0,0.0,0.0,0.0,0.0,0.0,0.0,0.0,0.0,0.0,0.0,0.0,0.0,0.0,0.0,0.0,0.0,0.0,0.0,0.0,0.0,0.0,0.0,0.0,0.0,0.0,0.0,1.036,1.0136,1.0972,1.1139,1.0099,1.1143,1.2035,1.252,0.0,0.0,0.0,0.0,0.0,0.0,0.0,0.0,0.0,0.0,0.0,0.0,0.0,0.0,0.0,0.0,0.0,0.0,0.0,0.0,0.0,0.0,0.0,0.0,0.0,0.0,0.0,0.0,0.0,0.0,0.0,0.0,0.0,0.0,0.0,0.0,0.0,0.0,0.0,0.0,0.0,0.0,0.0,0.0,0.0,0.0,0.0,0.0,0.0,0.0,0.0,0.0,0.0,0.0,0.0,0.0,0.0,0.0,0.0,0.0,0.0,0.0,0.0,0.0,0.0,0.0,0.0,0.0,0.0,0.0,0.0,0.0,0.0,0.0,0.0,0.0,0.0,0.0,0.0,0.0,0.0,0.0,0.0,0.0,0.0,0.0,0.0,0.0,0.0,0.0,0.0,0.0,0.0,0.0,0.0,0.0,0.0,0.0,0.0,0.0,0.0,0.0,0.0,0.0,1.0931,1.1433,1.2203,1.2072,1.062,1.0904,1.1727,1.3079,0.0,0.0,0.0,0.0,0.0,0.0,0.0,0.0,0.0,0.0,0.0,0.0,0.0,0.0,0.0,0.0,0.0,0.0,0.0,0.0,0.0,0.0,0.0,0.0,0.0,0.0,0.0,0.0,0.0,0.0,0.0,0.0,0.0,0.0,0.0,0.0,0.0,0.0,0.0,0.0,0.0,0.0,0.0,0.0,0.0,0.0,0.0,0.0,0.0,0.0,0.0,0.0,0.0,0.0,0.0,0.0,0.0,0.0,0.0,0.0,0.0,0.0,0.0,0.0,0.0,0.0,0.0,0.0,0.0,0.0,0.0,0.0,0.0,0.0,0.0,0.0,0.0,0.0,0.0,0.0,0.0,0.0,0.0,0.0,0.0,0.0,0.0,0.0,0.0,0.0,0.0,0.0,0.0,0.0,0.0,0.0,0.0,0.0,0.0,0.0,0.0,0.0,0.0,1.0623,1.1443,1.2301,1.2691,1.2425,1.1246,1.1195,1.2084,1.4082,1.5686,0.0,0.0,0.0,0.0,0.0,0.0,0.0,0.0,0.0,0.0,0.0,0.0,0.0,0.0,0.0,0.0,0.0,0.0,0.0,0.0,0.0,0.0,0.0,0.0,0.0,0.0,0.0,0.0,0.0,0.0,0.0,0.0,0.0,0.0,0.0,0.0,0.0,0.0,0.0,0.0,0.0,0.0,0.0,0.0,0.0,0.0,0.0,0.0,0.0,0.0,0.0,0.0,0.0,0.0,0.0,0.0,0.0,0.0,0.0,0.0,0.0,0.0,0.0,0.0,0.0,0.0,0.0,0.0,0.0,0.0,0.0,0.0,0.0,0.0,0.0,0.0,0.0,0.0,0.0,0.0,0.0,0.0,0.0,0.0,0.0,0.0,0.0,0.0,0.0,0.0,0.0,0.0,0.0,0.0,0.0,0.0,0.0,0.0,0.0,0.0,0.0,0.0,1.1212,1.1868,1.2793,1.2905,1.2553,1.1675,1.1484,1.2373,1.467,1.4796,0.0,0.0,0.0,0.0,0.0,0.0,0.0,0.0,0.0,0.0,0.0,0.0,0.0,0.0,0.0,0.0,0.0,0.0,0.0,0.0,0.0,0.0,0.0,0.0,0.0,0.0,0.0,0.0,0.0,0.0,0.0,0.0,0.0,0.0,0.0,0.0,0.0,0.0,0.0,0.0,0.0,0.0,0.0,0.0,0.0,0.0,0.0,0.0,0.0,0.0,0.0,0.0,0.0,0.0,0.0,0.0,0.0,0.0,0.0,0.0,0.0,0.0,0.0,0.0,0.0,0.0,0.0,0.0,0.0,0.0,0.0,0.0,0.0,0.0,0.0,0.0,0.0,0.0,0.0,0.0,0.0,0.0,0.0,0.0,0.0,0.0,0.0,0.0,0.0,0.0,0.0,0.0,0.0,0.0,0.0,0.0,0.0,0.0,0.0,0.0,0.0,0.0,1.1365,1.2067,1.2822,1.2905,1.2553,1.1675,1.1484,1.2227,1.4143,1.4606,0.0,0.0,0.0,0.0,0.0,0.0,0.0,0.0,0.0,0.0,0.0,0.0,0.0,0.0,0.0,0.0,0.0,0.0,0.0,0.0,0.0,0.0,0.0,0.0,0.0,0.0,0.0,0.0,0.0,0.0,0.0,0.0,0.0,0.0,0.0,0.0,0.0,0.0,0.0,0.0,0.0,0.0,0.0,0.0,0.0,0.0,0.0,0.0,0.0,0.0,0.0,0.0,0.0,0.0,0.0,0.0,0.0,0.0,0.0,0.0,0.0,0.0,0.0,0.0,0.0,0.0,0.0,0.0,0.0,0.0,0.0,0.0,0.0,0.0,0.0,0.0,0.0,0.0,0.0,0.0,0.0,0.0,0.0,0.0,0.0,0.0,0.0,0.0,0.0,0.0,0.0,0.0,0.0,0.0,0.0,0.0,0.0,0.0,0.0,0.0,0.0,0.0,1.2064,1.2584,1.2881,1.2637,1.2355,1.207,1.1386,1.2009,1.4472,0.0,0.0,0.0,0.0,0.0,0.0,0.0,0.0,0.0,0.0,0.0,0.0,0.0,0.0,0.0,0.0,0.0,0.0,0.0,0.0,0.0,0.0,0.0,0.0,0.0,0.0,0.0,0.0,0.0,0.0,0.0,0.0,0.0,0.0,0.0,0.0,0.0,0.0,0.0,0.0,0.0,0.0,0.0,0.0,0.0,0.0,0.0,0.0,0.0,0.0,0.0,0.0,0.0,0.0,0.0,0.0,0.0,0.0,0.0,0.0,0.0,0.0,0.0,0.0,0.0,0.0,0.0,0.0,0.0,0.0,0.0,0.0,0.0,0.0,0.0,0.0,0.0,0.0,0.0,0.0,0.0,0.0,0.0,0.0,0.0,0.0,0.0,0.0,0.0,0.0,0.0,0.0,0.0,0.0,0.0,0.0,0.0,0.0,0.0,0.0,0.0,0.0,1.1864,1.2452,1.2905,1.2905,1.249,1.2163,1.2058,1.1226,1.1765,1.4249,0.0,0.0,0.0,0.0,0.0,0.0,0.0,0.0,0.0,0.0,0.0,0.0,0.0,0.0,0.0,0.0,0.0,0.0,0.0,0.0,0.0,0.0,0.0,0.0,0.0,0.0,0.0,0.0,0.0,0.0,0.0,0.0,0.0,0.0,0.0,0.0,0.0,0.0,0.0,0.0,0.0,0.0,0.0,0.0,0.0,0.0,0.0,0.0,0.0,0.0,0.0,0.0,0.0,0.0,0.0,0.0,0.0,0.0,0.0,0.0,0.0,0.0,0.0,0.0,0.0,0.0,0.0,0.0,0.0,0.0,0.0,0.0,0.0,0.0,0.0,0.0,0.0,0.0,0.0,0.0,0.0,0.0,0.0,0.0,0.0,0.0,0.0,0.0,0.0,0.0,0.0,0.0,0.0,0.0,0.0,0.0,0.0,0.0,0.0,0.0,0.0,0.0,1.1814,1.2452,1.2905,1.2905,1.249,1.2022,1.1552,1.1007,1.1444,0.0,0.0,0.0,0.0,0.0,0.0,0.0,0.0,0.0,0.0,0.0,0.0,0.0,0.0,0.0,0.0,0.0,0.0,0.0,0.0,0.0,0.0,0.0,0.0,0.0,0.0,0.0,0.0,0.0,0.0,0.0,0.0,0.0,0.0,0.0,0.0,0.0,0.0,0.0,0.0,0.0,0.0,0.0,0.0,0.0,0.0,0.0,0.0,0.0,0.0,0.0,0.0,0.0,0.0,0.0,0.0,0.0,0.0,0.0,0.0,0.0,0.0,0.0,0.0,0.0,0.0,0.0,0.0,0.0,0.0,0.0,0.0,0.0,0.0,0.0,0.0,0.0,0.0,0.0,0.0,0.0,0.0,0.0,0.0,0.0,0.0,0.0,0.0,0.0,0.0,0.0,0.0,0.0,0.0,0.0,0.0,0.0,0.0,0.0,0.0,0.0,0.0,0.0,1.2584,1.2774,1.2905,1.2905,1.223,1.186,1.2047,1.1311,1.1716,1.3728,0.0,0.0,0.0,0.0,0.0,0.0,0.0,0.0,0.0,0.0,0.0,0.0,0.0,0.0,0.0,0.0,0.0,0.0,0.0,0.0,0.0,0.0,0.0,0.0,0.0,0.0,0.0,0.0,0.0,0.0,0.0,0.0,0.0,0.0,0.0,0.0,0.0,0.0,0.0,0.0,0.0,0.0,0.0,0.0,0.0,0.0,0.0,0.0,0.0,0.0,0.0,0.0,0.0,0.0,0.0,0.0,0.0,0.0,0.0,0.0,0.0,0.0,0.0,0.0,0.0,0.0,0.0,0.0,0.0,0.0,0.0,0.0,0.0,0.0,0.0,0.0,0.0,0.0,0.0,0.0,0.0,0.0,0.0,0.0,0.0,0.0,0.0,0.0,0.0,0.0,0.0,0.0,0.0,0.0,0.0,0.0,0.0,0.0,0.0,0.0,0.0,0.0,1.334,1.3111,1.2964,1.3115,1.2367,1.1868,1.1964,1.1481,1.183,1.3371,0.0,0.0,0.0,0.0,0.0,0.0,0.0,0.0,0.0,0.0,0.0,0.0,0.0,0.0,0.0,0.0,0.0,0.0,0.0,0.0,0.0,0.0,0.0,0.0,0.0,0.0,0.0,0.0,0.0,0.0,0.0,0.0,0.0,0.0,0.0,0.0,0.0,0.0,0.0,0.0,0.0,0.0,0.0,0.0,0.0,0.0,0.0,0.0,0.0,0.0,0.0,0.0,0.0,0.0,0.0,0.0,0.0,0.0,0.0,0.0,0.0,0.0,0.0,0.0,0.0,0.0,0.0,0.0,0.0,0.0,0.0,0.0,0.0,0.0,0.0,0.0,0.0,0.0,0.0,0.0,0.0,0.0,0.0,0.0,0.0,0.0,0.0,0.0,0.0,0.0,0.0,0.0,0.0,0.0,0.0,0.0,0.0,0.0,0.0,0.0,0.0,0.0,1.4007,1.3398,1.3037,1.3467,1.272,1.2009,1.1542,1.1615,1.1922,1.246,0.0,0.0,0.0,0.0,0.0,0.0,0.0,0.0,0.0,0.0,0.0,0.0,0.0,0.0,0.0,0.0,0.0,0.0,0.0,0.0,0.0,0.0,0.0,0.0,0.0,0.0,0.0,0.0,0.0,0.0,0.0,0.0,0.0,0.0,0.0,0.0,0.0,0.0,0.0,0.0,0.0,0.0,0.0,0.0,0.0,0.0,0.0,0.0,0.0,0.0,0.0,0.0,0.0,0.0,0.0,0.0,0.0,0.0,0.0,0.0,1.7648,0.0,0.0,0.0,0.0,0.0,0.0,0.0,0.0,0.0,0.0,0.0,0.0,0.0,0.0,0.0,0.0,0.0,0.0,0.0,0.0,0.0,0.0,0.0,0.0,0.0,0.0,0.0,0.0,0.0,0.0,0.0,0.0,0.0,0.0,0.0,0.0,0.0,0.0,0.0,0.0,0.0,1.4036,1.3398,1.3037,1.3467,1.272,1.2034,1.1616,1.1978,1.2326,1.2556,1.3631,0.0,0.0,0.0,0.0,0.0,0.0,0.0,0.0,0.0,0.0,0.0,0.0,0.0,0.0,0.0,0.0,0.0,0.0,0.0,0.0,0.0,0.0,0.0,0.0,0.0,0.0,0.0,0.0,0.0,0.0,0.0,0.0,0.0,0.0,0.0,0.0,0.0,0.0,0.0,0.0,0.0,0.0,0.0,0.0,0.0,0.0,0.0,0.0,0.0,0.0,0.0,0.0,0.0,0.0,0.0,0.0,0.0,0.0,0.0,0.0,1.8477,0.0,0.0,0.0,0.0,0.0,0.0,0.0,0.0,0.0,0.0,0.0,0.0,0.0,0.0,0.0,0.0,0.0,0.0,0.0,0.0,0.0,0.0,0.0,0.0,0.0,0.0,0.0,0.0,0.0,0.0,0.0,0.0,0.0,0.0,0.0,0.0,0.0,0.0,0.0,0.0,1.4611,1.3652,1.3125,1.3714,1.3047,1.2363,1.1924,1.2383,1.2638,1.2513,1.3686,0.0,0.0,0.0,0.0,0.0,0.0,0.0,0.0,0.0,0.0,0.0,0.0,0.0,0.0,0.0,0.0,0.0,0.0,0.0,0.0,0.0,0.0,0.0,0.0,0.0,0.0,0.0,0.0,0.0,0.0,0.0,0.0,0.0,0.0,0.0,0.0,0.0,0.0,0.0,0.0,0.0,0.0,0.0,0.0,0.0,0.0,0.0,0.0,0.0,0.0,0.0,0.0,0.0,2.1389,2.2302,2.3939,2.3834,2.3774,2.3618,2.0905,1.958,1.9358,1.9166,0.0,0.0,0.0,0.0,0.0,0.0,0.0,0.0,0.0,0.0,0.0,0.0,0.0,0.0,0.0,0.0,0.0,0.0,0.0,0.0,0.0,0.0,0.0,0.0,2.0548,2.0606,0.0,0.0,0.0,0.0,0.0,0.0,0.0,0.0,0.0,0.0,0.0,0.0,1.5166,1.4077,1.3472,1.4212,1.3555,1.2901,1.2556,1.2915,1.3006,1.2583,1.3825,1.4638,0.0,0.0,0.0,0.0,0.0,0.0,0.0,0.0,0.0,0.0,0.0,0.0,0.0,0.0,0.0,0.0,0.0,0.0,0.0,0.0,0.0,0.0,0.0,0.0,0.0,0.0,0.0,0.0,0.0,0.0,0.0,0.0,1.9046,1.9633,0.0,0.0,0.0,0.0,0.0,0.0,0.0,0.0,0.0,0.0,0.0,0.0,0.0,1.9806,2.0261,2.0901,2.1881,2.3177,2.3333,2.4084,2.533,2.4724,2.447,2.441,2.341,0.0,2.1262,2.0205,0.0,0.0,0.0,0.0,0.0,0.0,0.0,0.0,0.0,0.0,0.0,0.0,0.0,0.0,0.0,0.0,0.0,0.0,0.0,0.0,0.0,0.0,2.0054,2.1198,2.152,2.152,0.0,2.0863,2.0448,2.0372,1.899,0.0,0.0,0.0,0.0,0.0,0.0,0.0,1.4956,1.4598,1.4526,1.4925,1.4198,1.3729,1.385,1.3868,1.3682,1.3222,1.3699,1.4416,1.5368,1.6491,0.0,0.0,0.0,0.0,0.0,0.0,0.0,0.0,0.0,0.0,0.0,0.0,0.0,0.0,0.0,0.0,0.0,0.0,0.0,0.0,0.0,0.0,0.0,0.0,0.0,0.0,0.0,0.0,0.0,1.9914,2.0363,2.0273,2.0587,2.0716,0.0,0.0,0.0,0.0,0.0,0.0,0.0,0.0,0.0,2.0026,2.0796,2.1628,2.2458,2.3357,2.4373,2.554,2.6188,2.6979,2.7829,2.7545,2.741,2.735,2.6288,2.5323,2.4313,2.2289,2.0858,1.9815,0.0,0.0,0.0,0.0,1.74,1.7808,1.7253,1.7269,0.0,1.6761,0.0,0.0,0.0,0.0,0.0,0.0,0.0,0.0,0.0,0.0,2.1133,2.2043,2.1964,2.1695,2.1695,2.1767,2.1701,0.0,2.0353,1.9453,1.9076,0.0,0.0,0.0,0.0,1.6142,1.6354,1.5624,1.526,1.5662,1.4871,1.4345,1.4429,1.4443,1.4219,1.3717,1.4312,1.4757,1.4934,1.6537,1.7668,0.0,0.0,0.0,0.0,0.0,0.0,0.0,0.0,0.0,0.0,0.0,0.0,0.0,0.0,0.0,0.0,0.0,0.0,0.0,0.0,0.0,0.0,0.0,0.0,0.0,0.0,0.0,0.0,2.0701,2.1262,2.0764,2.1451,2.1733,0.0,0.0,0.0,0.0,0.0,0.0,1.9811,2.0337,2.1169,2.231,2.3119,2.3966,2.4911,2.6088,2.7187,2.8197,2.9145,2.9951,3.0582,3.0402,3.0238,3.0013,2.8858,2.7859,2.6901,2.4268,2.2426,2.1163,2.0154,1.9629,1.9317,1.8372,1.8518,1.9146,1.8756,1.8882,1.907,1.8267,0.0,1.8883,1.7612,0.0,0.0,0.0,0.0,2.1765,2.2418,2.2513,2.2607,2.3287,2.3056,2.2697,2.2697,2.3206,2.3362,0.0,2.1363,2.0754,2.0278,0.0,0.0,0.0,0.0,1.7198,1.7582,1.6914,1.639,1.6441,1.5655,1.5131,1.5164,1.521,1.5053,1.4662,1.5349,1.5577,1.5179,1.697,1.7953,1.7953,0.0,0.0,0.0,0.0,0.0,0.0,0.0,0.0,0.0,0.0,0.0,0.0,0.0,0.0,0.0,0.0,0.0,0.0,0.0,0.0,0.0,0.0,0.0,0.0,0.0,0.0,0.0,0.0,0.0,2.0705,2.1845,0.0,0.0,0.0,0.0,2.1495,2.1529,2.1733,2.2112,2.2644,2.3446,2.4613,2.608,2.711,2.7694,2.9338,3.0489,3.1172,3.196,3.2662,3.3275,3.2647,3.2004,3.1376,3.0672,2.9654,2.8293,2.5606,2.3837,2.2722,2.189,2.1302,2.0811,1.9978,1.971,1.9761,1.9736,1.9748,1.9748,1.9698,2.0553,2.1605,2.1585,2.2436,0.0,0.0,2.3519,2.3702,2.4304,2.4462,2.4619,2.5277,2.5435,2.5405,2.5405,2.5929,2.5668,0.0,2.17,2.1043,2.1511,0.0,1.8084,1.8735,1.9173,1.9018,1.792,1.8347,1.8303,1.7166,1.661,1.634,1.6396,1.6414,1.6389,1.6382,1.6767,1.6999,1.6971,1.8049,1.8657,1.8657,1.9348,0.0,0.0,0.0,0.0,0.0,0.0,0.0,0.0,0.0,0.0,0.0,0.0,0.0,0.0,0.0,0.0,0.0,0.0,0.0,0.0,0.0,0.0,0.0,0.0,0.0,0.0,0.0,0.0,2.3157,2.4767,0.0,2.5518,2.4341,2.3844,2.4516,2.3379,2.317,2.4343,2.5531,2.6511,2.7306,2.881,2.9871,3.0392,3.1602,3.2309,3.2508,3.338,3.3679,3.3484,3.3245,3.2781,3.2123,3.1869,3.1271,3.0389,2.9433,2.7563,2.5156,2.396,2.3375,2.3052,2.1862,2.1882,2.2397,2.1669,2.1616,2.1813,2.1276,2.1193,2.1524,2.2757,2.3426,2.3933,2.4699,2.5233,2.5631,2.5836,2.6213,2.6572,2.6836,2.6557,2.6243,2.6243,2.6422,2.6318,2.5398,2.423,2.3312,2.3055,2.1237,2.0156,2.1143,2.0727,2.0268,2.0183,1.976,1.9178,1.8413,1.7562,1.7032,1.7023,1.7005,1.687,1.6526,1.7204,1.7301,1.6624,1.7954,1.8702,1.8702,1.9346,1.9708,0.0,0.0,0.0,0.0,0.0,0.0,0.0,0.0,0.0,0.0,0.0,0.0,0.0,0.0,0.0,0.0,0.0,0.0,0.0,0.0,0.0,0.0,0.0,0.0,0.0,2.3241,2.4873,2.5538,2.7205,2.8274,2.8274,2.7222,2.6804,2.752,2.6495,2.6377,2.7633,2.8672,2.9457,2.9981,3.0993,3.1873,3.2519,3.3159,3.3622,3.3911,3.4545,3.4592,3.4173,3.4173,3.3814,3.317,3.317,3.2796,3.2168,3.2168,3.0896,2.8729,2.6778,2.5854,2.5434,2.3962,2.3891,2.4406,2.3477,2.3432,2.3769,2.339,2.3265,2.3492,2.4969,2.557,2.5909,2.6713,2.726,2.7615,2.7615,2.7779,2.8004,2.8229,2.7764,2.727,2.7185,2.7397,2.7514,2.7229,2.5999,2.4934,2.4716,2.2834,2.1865,2.3265,2.2187,2.1418,2.197,2.1066,2.01,1.9334,1.8458,1.7849,1.7626,1.7748,1.7686,1.7328,1.8068,1.8192,1.7473,1.8464,1.9031,1.9031,1.961,1.9909,1.9909,0.0,0.0,0.0,0.0,0.0,0.0,0.0,0.0,0.0,0.0,0.0,0.0,0.0,0.0,0.0,0.0,0.0,0.0,0.0,0.0,0.0,0.0,0.0,2.2909,2.5053,2.6956,2.7644,2.8912,2.9726,2.9726,3.0225,3.051,3.0403,3.0888,3.1415,3.1833,3.1875,3.2118,3.2635,3.2692,3.3115,3.4022,3.4027,3.4543,3.5504,3.5504,3.5504,3.5504,3.5504,3.513,3.4503,3.4533,3.4159,3.3529,3.3544,3.3544,3.3226,3.0259,2.8699,2.794,2.6349,2.5711,2.5623,2.5086,2.5047,2.5362,2.6063,2.6877,2.7746,2.8438,2.9101,2.9636,2.9636,2.9651,2.9651,2.9621,2.9146,2.8846,2.946,2.9131,2.8604,2.8409,2.9029,2.9347,2.851,2.6821,2.5771,2.6551,2.4309,2.308,2.4939,2.3592,0.0,2.3032,2.2171,2.1121,2.0,1.9415,1.8873,1.8332,1.8702,1.8938,1.8898,1.943,1.9701,1.9705,1.9744,1.9729,1.9729,2.0124,2.0331,2.0331,0.0,0.0,0.0,0.0,0.0,0.0,0.0,0.0,0.0,0.0,0.0,0.0,0.0,0.0,0.0,0.0,0.0,0.0,0.0,0.0,0.0,2.6677,2.7375,2.5744,2.7409,2.9182,3.0312,3.1632,3.2422,3.2422,3.2015,3.1903,3.2299,3.19,3.2067,3.3046,3.3296,3.355,3.3901,3.4413,3.4675,3.4663,3.494,3.5213,3.5504,3.5504,3.5504,3.5504,3.5504,3.513,3.4533,3.4996,3.4831,3.4279,3.4741,3.4651,3.4019,3.2081,3.119,3.0849,2.9361,2.8246,2.7444,2.7327,2.7019,2.6844,2.7555,2.7967,2.8405,2.9612,3.0103,3.0253,3.0253,3.0612,3.0748,2.9846,3.0148,3.0614,3.0328,3.0118,2.9973,2.99,2.9741,2.9525,2.9277,2.8681,2.834,2.8722,2.682,2.5453,2.5981,2.424,0.0,2.3083,2.2546,2.2069,2.1838,2.139,2.0863,2.0197,2.028,1.9953,1.8965,1.9689,1.9977,1.9633,2.028,2.0632,2.0632,2.0747,2.0813,0.0,0.0,0.0,0.0,0.0,0.0,0.0,0.0,0.0,0.0,0.0,0.0,0.0,0.0,0.0,0.0,0.0,0.0,0.0,0.0,0.0,0.0,2.9026,3.0178,2.9564,3.0238,3.13,3.2602,3.3694,3.4442,3.4726,3.4531,3.4515,3.4878,3.4423,3.4436,3.5167,3.5334,3.5479,3.5654,3.5691,3.5791,3.5936,3.5791,3.59,3.6297,3.6043,3.5923,3.5908,3.5624,3.5295,3.4936,3.5325,3.528,3.4936,3.534,3.5265,0.0,0.0,0.0,0.0,0.0,2.9744,2.8903,2.8623,2.8535,2.8631,2.9058,2.9595,3.0249,3.1082,3.1345,3.1405,3.1674,3.1615,3.1391,3.0926,3.0956,3.1047,3.0928,3.0913,3.0887,3.0821,3.1025,3.1124,3.0748,3.0896,0.0,3.0826,2.8771,2.7261,2.7552,2.5817,2.4446,2.44,2.3506,2.2923,2.3002,2.2297,2.1535,2.0859,2.0829,0.0,0.0,0.0,2.0299,2.0196,2.0715,0.0,0.0,0.0,2.1405,2.1713,0.0,0.0,0.0,2.2021,2.1728,0.0,0.0,0.0,0.0,0.0,0.0,0.0,0.0,0.0,0.0,0.0,0.0,0.0,0.0,0.0,0.0,3.1195,3.2497,3.3754,3.344,3.3469,3.4608,3.531,3.5953,3.6537,3.709,3.7404,3.7404,3.7404,3.7434,3.7524,0.0,0.0,0.0,0.0,3.6541,3.7322,3.6541,3.6582,3.7404,3.6851,3.6596,3.6567,3.5908,3.5609,3.5609,3.5534,3.5504,3.5504,3.5504,3.5504,3.5392,3.4509,3.3801,3.3095,3.172,3.0886,3.0317,2.9708,0.0,0.0,3.0667,3.1543,3.2617,3.2617,3.2677,3.2841,3.335,3.2706,3.1959,3.2497,3.1674,3.0896,3.157,3.1675,3.1589,3.1487,3.2532,3.3254,3.2521,3.296,3.3305,3.2721,3.0299,2.8631,2.9215,2.7667,2.6353,2.6238,2.4803,2.3802,2.3802,0.0,0.0,2.1095,2.1071,2.0961,2.0555,2.07,2.0947,2.1263,2.1359,2.1392,2.1392,2.1737,2.2249,2.2908,2.3313,2.3864,2.4474,2.2731,2.2147,0.0,0.0,0.0,0.0,0.0,0.0,0.0,0.0,0.0,0.0,0.0,0.0,0.0,0.0,0.0,3.2617,3.4307,3.5789,3.6552,3.6537,3.6372,3.6133,3.6656,3.709,3.7225,3.7345,3.7404,3.7404,3.7404,3.7644,3.8167,3.7704,3.7484,3.7701,3.7331,3.7057,3.6918,3.7072,3.7218,3.7404,0.0,0.0,3.721,3.6582,3.6297,3.6267,3.5729,3.5504,3.5504,3.5504,3.5504,3.5472,3.5279,3.4797,3.4188,3.3881,3.3391,3.2815,3.2651,3.2745,3.2882,3.2882,3.3063,3.3305,3.3305,3.3679,0.0,3.3604,3.3694,3.3814,3.341,3.2721,3.2287,3.2961,3.2706,3.2437,3.2958,3.3303,3.3454,3.3285,3.3392,3.3455,3.332,3.1436,2.9834,2.942,2.7682,2.6381,2.6353,2.5637,2.5126,2.5126,2.497,2.4357,2.3139,2.3449,2.32,2.2068,2.2764,2.3145,2.2936,2.3502,2.382,2.382,2.3898,2.4012,2.4146,2.424,2.4355,2.4491,2.411,2.3992,0.0,0.0,0.0,0.0,0.0,0.0,0.0,0.0,0.0,0.0,0.0,2.9254,2.9946,0.0,3.3829,3.4831,3.6372,3.7554,3.7853,3.8482,3.8422,3.7105,3.7509,3.8033,3.8377,3.8706,3.9035,3.9379,3.9095,3.92,3.9858,3.926,3.9133,3.9597,3.9156,3.8784,3.859,3.8472,3.8407,3.8407,3.8063,3.7898,3.7883,3.724,3.6776,3.6477,3.6148,3.5804,3.5504,3.5504,3.5504,3.5504,3.5504,3.5295,3.4951,3.4638,3.4294,3.3933,3.3604,3.3499,3.3499,3.3499,3.3724,3.4071,3.4425,3.4775,3.5126,3.5534,3.5123,3.4592,3.4577,3.3774,3.308,3.3425,3.3499,3.3589,3.3918,3.4262,3.4502,3.4502,3.4502,3.4382,3.4038,3.3133,3.2,3.0661,2.9595,2.8612,2.7631,2.6928,2.6417,2.6094,2.5477,2.495,2.4576,2.4646,2.4262,2.322,2.3803,2.4137,2.3951,2.4305,2.4491,2.4491,2.4491,2.4677,2.505,2.505,2.5252,2.5608,2.5608,2.5218,0.0,0.0,0.0,0.0,0.0,0.0,0.0,2.8537,2.9386,2.9697,3.051,3.1699,3.3268,3.4881,3.6262,3.7171,3.842,3.9194,3.9011,3.9903,3.9948,3.8197,3.8452,3.905,3.9723,4.0172,4.0666,4.1324,4.0891,4.0816,4.1354,4.0876,4.0831,4.1369,4.0876,4.0591,4.0591,4.0068,3.9798,3.9783,3.911,3.8781,3.8751,3.7958,3.7417,3.7089,3.7002,3.6508,3.5878,3.5878,3.5878,3.5863,3.5744,3.5699,3.5609,3.4921,3.4698,3.4638,3.4068,3.3997,3.409,3.409,3.4575,3.5247,3.5869,3.6032,3.6289,3.7472,3.6577,3.5377,3.5714,3.485,3.3909,3.3874,3.4188,3.4548,3.4683,3.5115,3.5504,3.5504,3.5504,3.5325,3.4771,3.4698,3.4053,3.2168,3.1675,3.0928,2.937,2.8353,2.754,2.6881,2.5719,2.522,2.58,2.5581,2.5126,2.4481,2.4757,2.4863,2.4728,2.4846,2.4931,2.4931,2.4931,2.5218,2.5812,2.5947,2.6336,2.6911,2.7063,2.6352,2.5997,2.6579,2.775,2.9097,2.9673,3.0401,0.0,3.2807,3.31,3.4084,3.5659,3.6988,3.7303,3.9491,4.1022,4.0318,4.1392,4.2017,4.1175,4.1175,4.0965,4.0157,4.0127,4.0427,4.11,4.0696,4.0666,4.1324,4.1347,4.1309,4.1422,4.1347,4.1309,4.1422,4.1347,4.1265,4.1265,4.119,4.116,4.1145,4.0487,4.0172,4.0127,3.8856,3.8648,3.932,3.8718,3.7981,3.7195,3.7195,3.7195,3.7135,3.6596,3.6372,3.6297,3.5639,3.5385,3.5385,3.531,3.5699,3.623,3.623,3.6808,3.7433,3.752,3.7549,3.7594,3.7761,3.7636,3.7308,3.6658,3.5935,3.5354,3.5275,3.4876,3.4668,3.525,3.5444,3.5504,3.5504,3.5504,3.5489,3.54,3.5385,3.4906,3.3484,3.2243,3.1421,3.1197,2.9609,2.8218,2.7555,2.6811,2.6565,2.7063,2.6955,2.674,2.6404,2.6438,2.615,2.5507,2.6099,2.6454,2.6454,2.6454,2.6488,2.6573,2.7232,2.7604,2.7689,2.8399,2.7927,2.8498,2.9082,2.9939,3.0581,3.1715,3.2904,3.3884,3.477,3.5618,3.6462,3.7628,3.8877,4.0146,4.1338,4.2237,4.2671,4.3569,4.4043,4.3669,4.3158,4.2561,4.1903,4.096,4.0651,4.1309,4.113,4.1399,4.2432,4.2162,4.2156,4.2491,4.2162,4.2132,4.2506,4.2147,4.1991,4.1991,4.1564,4.1422,4.1422,4.11,4.0965,4.0973,4.0527,4.0067,3.967,3.8987,3.8218,3.7404,3.7404,3.7404,3.7379,3.722,3.6895,3.6417,3.5744,3.5504,3.5554,3.6006,3.6337,3.6676,3.716,3.7515,3.7863,3.8302,3.8442,3.8525,3.8995,3.8789,3.8274,3.7499,3.6731,3.6061,3.5608,3.5295,3.516,3.5444,3.5504,3.5504,3.5504,3.5504,3.5504,3.5504,3.5504,3.531,3.4756,3.3858,3.2826,3.1645,3.0793,2.9729,2.829,2.8532,2.8539,2.7875,2.8461,2.8419,2.7401,2.7334,2.7012,2.6268,2.6539,2.6691,2.6691,2.7131,2.7334,2.7334,2.8129,2.8501,2.8501,2.884,2.8654,3.0649,3.1241,3.1952,3.2598,3.41,3.5588,3.6214,3.7215,3.8275,3.9169,3.9808,4.074,4.2488,4.3124,4.365,4.4415,4.5286,4.5701,4.5234,4.4591,4.385,4.2958,4.1628,4.1025,4.1772,4.1421,4.1654,4.297,4.2626,4.2641,4.326,4.2895,4.2851,4.329,4.288,4.2626,4.2626,4.2162,4.2061,4.2349,4.1881,4.1965,4.2447,4.2653,4.1879,4.0313,4.0291,3.9668,3.8684,3.8684,3.8684,3.8675,3.8587,3.8211,3.7678,3.699,3.6326,3.5894,3.6415,3.6873,3.7336,3.7905,3.8262,3.8541,3.9059,3.9236,3.9342,3.9927,3.9688,3.9059,3.8318,3.7671,3.697,3.602,3.5922,3.5983,3.5804,3.5908,3.5983,3.5804,3.5774,3.5714,3.5534,3.5504,3.5504,3.5504,3.5085,3.4173,3.2557,3.2028,3.1165,2.9536,3.0329,3.0557,2.9473,3.0007,2.9939,2.8804,2.8348,2.7892,2.7368,2.7317,2.7317,2.7317,2.7858,2.8128,2.8128,2.8924,2.9314,2.9314,2.9517,2.9619,3.2039,3.2763,3.3863,3.6084,3.7212,3.8362,4.051,4.1026,4.1482,4.2926,4.3263,4.3506,4.4361,4.5679,4.6357,4.5494,4.6585,4.6961,4.5314,4.5096,4.4535,4.3179,4.2213,4.2022,4.2871,4.1423,4.098,4.2336,4.241,4.2641,4.326,4.3275,4.3275,4.329,4.3275,4.326,4.326,4.3245,4.3711,4.4675,4.3114,4.3337,4.5069,4.531,4.4136,4.1997,4.3578,4.3339,4.1869,4.1869,4.1869,4.1805,4.1165,4.0878,4.0766,4.0092,3.846,3.6584,3.6569,3.7584,3.881,3.8854,3.9394,4.002,4.0045,4.007,4.007,4.0096,4.007,3.9876,3.9086,3.8792,3.8386,3.6923,3.6964,3.718,3.6596,3.6926,3.718,3.6567,3.6462,3.6252,3.5609,3.5504,3.5504,3.5504,3.5489,3.5205,3.4518,3.3325,3.2295,3.1582,3.2066,3.2407,3.2364,3.1629,3.114,3.1089,2.9754,2.8959,2.8925,2.8925,2.8925,2.8925,2.8942,2.8959,2.8976,2.9702,3.0074,3.0072,3.0801,3.1123,3.3563,3.5047,3.6806,3.8556,3.9529,4.0409,4.1644,4.232,4.2675,4.2675,4.3064,4.3477,4.3758,4.4637,4.5578,4.6227,4.7155,4.7615,4.7048,4.6453,4.5391,4.348,4.288,4.2374,4.1741,4.0905,4.1181,4.312,4.3308,4.3313,4.3299,4.4502,4.4952,4.432,4.4297,4.4297,4.4297,4.4297,4.4488,4.4812,4.4903,4.5301,4.6077,4.6126,4.5239,4.3611,4.4153,4.35,4.1997,4.1997,4.1997,4.1997,4.1866,4.1482,4.0986,4.085,4.0326,3.9654,3.9654,3.9989,4.0502,4.1013,4.1341,4.1484,4.0984,4.0832,4.0832,4.0832,4.0832,4.0761,4.0498,4.0414,4.0125,3.9093,3.8998,3.9062,3.8874,3.8968,3.8872,3.809,3.7609,3.7048,3.6277,3.5789,3.5668,3.618,3.5845,3.5462,3.5263,3.4498,3.3882,3.3615,3.3322,3.3137,3.3086,3.2828,3.2239,3.1258,3.0717,3.0025,2.9044,2.8993,2.8993,2.8993,2.9482,2.9736,2.9736,3.0463,3.0835,3.0835,3.1072,3.119,3.5757,3.7364,3.9106,4.0832,4.1644,4.2202,4.2946,4.3267,4.3284,4.2794,4.2861,4.3014,4.3014,4.342,4.4164,4.5382,4.5991,4.6469,4.7056,4.6636,4.5863,4.4743,4.4225,4.3733,4.3117,4.2262,4.235,4.372,4.3837,4.3979,4.4335,4.553,4.5941,4.5322,4.5285,4.5285,4.5285,4.5285,4.5285,4.5322,4.6574,4.6929,4.6519,4.7105,4.6466,4.4883,4.5133,4.4379,4.2923,4.2923,4.2923,4.2951,4.3032,4.2745,4.2307,4.2377,4.2399,4.2287,4.1484,4.1359,4.1683,4.2153,4.2286,4.2202,4.1728,4.1593,4.1593,4.1593,4.1593,4.1589,4.1593,4.1586,4.1387,4.0609,4.0559,4.065,4.0424,4.0538,4.0402,3.9275,3.8539,3.7805,3.7023,3.6575,3.6477,3.695,3.6898,3.6676,3.641,3.6059,3.5694,3.5433,3.4965,3.4536,3.4209,3.3947,3.3389,3.2425,3.1867,3.1176,3.0211,2.9924,2.9788,2.9788,3.0243,3.0497,3.0497,3.097,3.119,3.119,3.119,3.119,3.8497,3.9723,4.084,4.2946,4.3477,4.3707,4.4395,4.3927,4.3308,4.324,4.2642,4.2117,4.2066,4.2134,4.2439,4.3257,4.346,4.4035,4.5602,4.5855,4.6109,4.6718,4.6088,4.5934,4.6727,4.5289,4.4309,4.4292,4.4087,4.4569,4.6035,4.6295,4.6314,4.6279,4.6279,4.6279,4.6279,4.6279,4.6279,4.6349,4.8161,4.8161,4.6682,4.8274,4.7834,4.5855,4.6549,4.6024,4.4716,4.4716,4.4716,4.4716,4.4716,4.4716,4.4716,4.4716,4.4716,4.4384,4.223,4.1894,4.2405,4.2405,4.2405,4.2405,4.2354,4.2354,4.2354,4.2354,4.2354,4.2354,4.2405,4.2373,4.2146,4.1526,4.1745,4.1981,4.1337,4.1675,4.1709,4.0169,3.9271,3.8524,3.7794,3.775,3.7863,3.7863,3.8497,3.8688,3.7933,3.7844,3.76,3.6928,3.6829,3.6468,3.5667,3.4962,3.4539,3.4489,3.3156,3.2344,3.2293,3.1599,3.119,3.119,3.119,3.119,3.119,3.119,3.119,3.119,3.119,3.119,4.0189,4.2016,4.3599,4.413,4.4705,4.4874,4.3927,4.3115,4.2269,4.1153,4.0341,3.9665,3.9123,3.9918,4.1255,4.3088,4.4367,4.5635,4.7111,4.7817,4.7817,4.6904,4.708,4.7167,4.6836,4.6275,4.619,4.6874,4.6273,4.5661,4.518,4.7154,4.7982,4.7273,4.7239,4.7239,4.7239,4.7239,4.7589,4.8289,4.875,4.8776,4.8387,4.8824,4.8392,4.7361,4.7547,4.709,4.6227,4.6227,4.6227,4.6227,4.6227,4.6227,4.6227,4.6227,4.6227,4.6177,4.5551,4.4766,4.4022,4.4022,4.4022,4.3904,4.3301,4.3132,4.3132,4.3132,4.3132,4.3267,4.387,4.4018,4.3945,4.376,4.3853,4.3881,4.3726,4.3826,4.3614,4.2572,4.0858,3.9387,3.8688,3.8601,3.8635,3.8635,3.9289,3.9518,3.8714,3.8661,3.842,3.7696,3.7134,3.6468,3.5667,3.543,3.5098,3.4523,3.3626,3.2865,3.2327,3.1599,3.119,3.119,3.119,3.119,3.119,3.119,3.119,3.119,3.119,3.119,4.2777,4.4113,4.5077,4.5077,4.4891,4.4384,4.32,4.2277,4.1356,4.0178,3.9341,3.8715,3.8265,3.8724,3.9749,4.1644,4.2963,4.4485,4.665,4.7581,4.797,4.7784,4.8139,4.8359,4.8257,4.8159,4.8274,4.8704,4.7701,4.6913,4.6643,4.8129,4.8576,4.7622,4.8015,4.8225,4.8225,4.8225,4.8465,4.9001,4.9001,4.9001,4.9001,4.9001,4.8612,4.7889,0.0,4.7479,4.6786,4.6786,4.6786,4.6786,4.6786,4.6786,4.6786,4.6786,4.6786,4.6786,4.6786,4.6244,4.5579,4.5579,4.5579,4.5466,4.5026,4.4891,4.4823,4.4519,4.4418,4.4451,4.4581,4.4615,4.4615,4.4615,4.4615,4.4615,4.4615,4.4615,4.4254,4.3102,4.1504,4.017,3.956,3.9446,3.9437,3.9437,3.9808,3.9927,3.9489,3.9455,3.9191,3.8464,3.7719,3.6958,3.6197,3.5785,3.5414,3.5013,3.4286,3.3694,3.3292,3.2259,3.1684,3.1684,3.136,3.119,3.119,3.119,3.119,3.119,3.119,3.119,4.5432,4.5923,4.594,4.5754,4.4705,4.3436,4.2477,4.1481,4.0504,3.9673,3.892,3.8417,3.8456,3.8203,3.8526,4.013,4.1001,4.2557,4.5585,4.6532,4.7462,4.8849,4.9001,4.9289,5.0016,5.0084,5.0083,4.9972,4.8795,4.8329,4.895,4.9075,4.8759,4.7952,4.8532,4.8911,4.9137,4.9052,4.9001,4.9001,4.9001,4.9001,4.9001,4.9001,4.8663,4.8041,4.8041,0.0,4.709,4.709,4.709,4.709,4.709,4.709,4.709,4.709,4.709,4.709,4.709,4.709,4.7056,4.6853,4.6786,4.6786,4.6786,4.6786,4.6667,4.6024,4.5788,4.5551,4.4891,4.4682,4.4615,4.4615,4.4615,4.4615,4.4615,4.4615,4.421,4.2862,4.1914,4.1147,4.0635,4.0383,4.0248,4.0248,4.0163,4.0096,4.0096,4.0096,3.9825,3.9073,3.843,3.7753,3.7015,3.6315,3.5853,3.5752,3.5064,3.459,3.4489,3.319,3.2446,3.2446,3.1735,3.1343,3.1343,3.1241,3.119,3.119,3.119,3.119,4.6194,4.7056,4.7242,4.6007,4.5517,4.4716,4.2568,4.094,3.9648,3.8728,3.7972,3.7484,3.7675,3.8104,3.9238,4.1545,4.254,4.4051,4.7077,4.7648,4.8037,4.89,4.9001,4.9289,5.0016,5.0084,5.0325,5.0906,5.072,5.0023,4.8812,4.9483,4.9818,4.9675,4.8493,4.8508,4.9898,4.9306,4.9001,4.9001,4.9001,4.9001,4.9001,4.9001,4.8934,4.8815,4.8815,0.0,4.8612,4.8612,4.8612,4.8612,4.8612,4.8612,4.8612,4.8612,4.8612,4.8612,4.8612,4.8612,4.8426,4.7192,4.6786,4.6786,4.6786,4.6786,4.6769,4.665,4.6177,4.5669,4.5551,4.5043,4.4615,4.4615,4.4615,4.4615,4.4615,4.4615,4.4536,4.4243,4.353,4.293,4.284,4.1818,4.1018,4.1018,4.0476,4.0096,4.0096,4.0096,3.9825,3.9073,3.8886,3.8514,3.777,3.7584,3.7246,3.6643,3.5859,3.5148,3.4523,3.3677,3.322,3.322,3.2476,3.2107,3.2107,3.1515,3.119,3.119,3.119,3.119,4.7335,4.7588,4.7073,4.5974,4.5024,4.3786,4.1336,4.0045,3.9104,3.8255,3.7488,3.7022,3.7288,3.8042,3.9026,4.0358,4.1525,4.3318,4.6346,4.6769,4.7327,4.8832,4.934,4.9712,5.005,5.0777,5.1386,5.1758,5.2164,5.1697,5.0108,4.9127,4.8912,4.9494,4.7803,4.772,4.9526,4.9187,4.9001,4.9001,4.9001,4.9204,4.956,4.9187,4.9204,4.9543,4.9171,0.0,4.9001,4.9001,4.9001,4.9001,4.9001,4.9001,4.9001,4.9001,4.9001,4.9063,4.9389,4.9521,4.9401,4.8711,4.8213,4.7936,4.7936,4.7936,4.7851,4.7479,4.7124,4.6769,4.638,4.6007,4.572,4.572,4.5449,4.506,4.4682,4.4615,4.4615,4.4615,4.3944,4.3392,4.3392,4.2506,4.1644,4.1271,4.0899,4.0527,4.0146,4.0096,3.996,3.9622,3.9249,3.8853,3.8497,3.8125,3.7753,3.7381,3.7009,3.6468,3.5746,3.4962,3.437,3.3981,3.2886,3.2293,3.2293,3.1546,3.119,3.1207,3.1599,3.1769,4.8269,4.7934,4.6849,4.6062,4.4506,4.2635,4.054,3.9378,3.8616,3.8157,3.7431,3.7011,3.7486,3.8114,3.8745,3.9313,4.029,4.2016,4.5043,4.5602,4.6464,4.8528,4.9424,4.9982,5.0287,5.1386,5.2198,5.2536,5.3145,5.2841,5.1269,4.9066,4.832,4.9429,4.7685,4.7617,4.9444,4.9171,4.9001,4.9001,4.9171,4.9458,4.9847,4.9593,4.9627,4.983,4.9424,0.0,0.0,4.9001,4.9001,4.9001,4.9001,4.9001,4.9001,4.9001,4.9077,4.9286,4.9821,5.01,5.0241,5.0241,4.978,4.9182,4.9046,4.9001,4.8883,4.8308,4.8007,4.7753,4.7192,4.6921,4.6786,4.6786,4.6363,4.5788,4.5207,4.4953,4.4852,4.4852,4.4198,4.3673,4.3673,4.3031,4.2337,4.1762,4.1407,4.0984,4.0417,4.0197,4.0096,4.0096,3.9588,3.9225,3.9225,3.87,3.8311,3.8159,3.8142,3.7736,3.6846,3.6197,3.5504,3.4742,3.3444,3.2723,3.2675,3.1944,3.156,3.1485,3.2156,3.2437,4.8363,4.8328,4.7564,4.6639,4.4742,4.2762,4.1538,3.9499,3.8053,3.8515,3.8001,3.7716,3.867,3.8572,3.8848,4.0452,4.0427,4.1264,4.4293,4.528,4.6278,4.7804,4.8663,4.9644,5.098,5.1202,5.1894,5.3281,5.3467,5.2841,5.1269,5.0158,5.0024,5.0982,4.936,4.9294,5.0965,4.9678,4.9001,4.9018,4.9678,4.9678,4.9137,5.0439,5.0321,4.9137,4.9729,4.961,0.0,4.9001,4.9001,4.9001,4.9001,4.9001,4.9001,4.9001,4.9389,4.9919,4.9976,5.0445,5.1008,5.1008,5.05,4.9792,4.9182,4.9001,4.8984,4.8934,4.8426,4.7872,4.7804,4.731,4.6786,4.6786,4.6735,4.6667,4.6599,4.6058,4.5602,4.5602,4.4993,4.4496,4.4496,4.3826,4.3274,4.3206,4.2066,4.1187,4.1119,4.0493,4.0096,4.0096,4.0045,3.9994,3.9994,3.9943,3.9622,3.8937,3.8886,3.8261,3.6863,3.6728,3.6299,3.5498,3.4709,3.418,3.3943,3.3185,3.2682,3.2384,3.2768,3.2945,4.7362,4.7809,4.7387,4.6055,4.4618,4.3031,4.1116,3.9078,3.7831,3.8551,3.7661,3.7101,3.816,3.8326,3.8561,3.9366,3.9084,3.9817,4.2794,4.3081,4.4045,4.6904,4.7902,4.8934,5.0388,5.1336,5.2334,5.3416,5.3501,5.3027,5.1928,5.0975,5.0491,5.0543,4.9327,4.9493,5.1168,4.9746,4.9221,4.9661,4.9949,5.0168,5.0355,5.0947,5.0896,5.0338,5.0168,4.9678,0.0,4.9001,4.9001,4.9001,4.9001,4.9243,4.9593,4.9593,5.0033,5.0716,5.112,5.1469,5.1692,5.1692,5.1241,5.0527,4.9838,4.9316,4.9001,4.9001,4.8798,4.8578,4.8578,4.8342,4.8003,4.7581,4.7462,4.7344,4.6887,4.6566,4.6227,4.5788,4.5821,4.5618,4.475,4.4705,4.4485,4.3527,4.2885,4.2219,4.1322,4.0933,4.0578,4.0146,4.0096,4.0096,4.0096,4.0096,3.9977,3.969,3.9673,3.9125,3.7928,3.7876,3.7469,3.658,3.5799,3.5339,3.5232,3.4514,3.4076,3.3967,3.4534,3.4812,4.6036,4.6735,4.6584,4.5404,4.4091,4.2638,4.0854,3.8745,3.7437,3.8487,3.7422,3.6673,3.7909,3.8043,3.8166,0.0,3.8311,3.8853,4.1593,4.1711,4.2591,4.5449,4.6464,4.7665,4.9593,5.1522,5.2892,5.3467,5.3501,5.3061,5.2029,5.1547,5.1045,5.0424,4.9573,4.9674,5.0879,4.9644,4.9255,4.9779,5.0467,5.0949,5.1242,5.1907,5.1975,5.1515,5.0769,5.0016,0.0,4.9086,4.9001,4.9001,4.9001,4.9419,5.0004,5.0004,5.0581,5.1469,5.1928,5.2247,5.2445,5.2445,5.197,5.1292,5.0779,5.0004,4.9329,4.9551,4.9462,4.9256,4.9063,4.9001,4.8927,4.8596,4.852,4.8455,4.8152,4.79,4.7523,4.6783,4.6873,4.6683,4.5418,4.5579,4.5544,4.4446,4.3962,4.338,4.2533,4.186,4.1348,4.0971,4.0755,4.0538,4.0343,4.0179,4.0229,4.057,4.0441,4.001,3.9251,3.9203,3.8698,3.7581,3.6998,3.6539,3.6203,3.5704,3.5397,3.5334,3.5935,3.6274,4.45,4.5027,4.5085,4.4931,4.3154,4.1378,4.1144,3.86,3.6762,3.8377,3.7422,3.6798,3.8414,3.7896,3.7704,0.0,0.0,3.8684,4.0899,4.183,4.2574,4.3325,4.413,4.5799,4.8731,5.1725,5.3501,5.3501,5.3501,5.2841,5.1269,5.1878,5.1961,5.1202,5.0473,5.0084,5.0101,4.9373,4.9001,4.9035,5.13,5.1997,5.1356,5.358,5.3788,5.2337,5.1549,5.0777,0.0,4.9306,4.9001,4.9001,4.9001,4.9419,5.0004,5.0004,5.0885,5.2089,5.2112,5.2576,5.3185,5.3185,5.2684,5.2089,5.2089,5.1094,5.0129,5.0876,5.0554,4.985,4.9182,4.9001,4.9152,4.9804,4.9987,5.0185,5.0911,5.0466,4.9756,4.902,4.8223,4.7439,4.6708,4.6473,4.6383,4.6365,4.5226,4.4607,4.5181,4.3383,4.2311,4.2921,4.2253,4.1534,4.0949,4.0417,4.057,4.1725,4.1223,4.0829,4.0678,4.0683,3.9959,3.8415,3.838,3.7807,3.6705,3.6705,3.6536,3.6288,3.6558,3.6861,4.1209,4.1923,4.2214,4.163,4.0515,3.938,3.8786,3.6964,3.572,3.6835,3.6652,3.6509,3.7219,3.7273,3.757,3.867,3.8334,3.8497,4.0206,4.1534,4.2963,4.4773,4.7868,5.0219,5.1166,5.2621,5.3501,5.3501,5.2993,5.2469,5.1978,5.1217,5.0676,5.0456,5.0219,5.0338,5.0862,4.9627,4.9784,5.1318,5.2052,5.2503,5.2775,5.4541,5.3982,5.1621,5.237,0.0,0.0,5.0137,5.0146,4.9722,5.023,5.085,5.1426,5.1426,5.2042,5.2853,5.2853,5.2999,5.3185,5.3185,5.2684,5.2183,5.2684,5.1874,5.0796,5.1034,5.0929,5.0689,5.049,5.0435,5.049,5.0689,5.0743,5.0823,5.1034,5.0935,5.0521,4.9784,4.9843,4.9442,4.7653,4.7724,4.767,4.6566,4.6028,4.5652,4.5338,4.4235,4.3361,4.3018,4.2274,4.1707,4.1534,4.1375,4.142,4.1789,4.1621,4.1418,4.1181,4.1165,4.0616,3.9435,3.9434,3.8975,3.8065,3.8065,3.8018,3.7955,3.8037,3.8113,3.8505,3.9588,4.0068,3.957,3.8836,3.812,3.7621,3.6211,3.5334,3.6505,3.6505,3.6464,3.7058,3.7327,3.7707,3.8478,3.8345,3.8625,3.9918,4.1382,4.3149,4.5432,4.912,5.1471,5.1471,5.2706,5.3382,5.3078,5.2587,5.2063,5.1505,5.0591,4.9965,4.9678,4.9678,4.9915,5.0388,4.9702,5.0103,5.15,5.266,5.3263,5.3413,5.5,5.4525,5.2461,5.2783,0.0,0.0,5.0839,5.0823,5.0445,5.0929,5.1519,5.2112,5.2112,5.2576,5.3185,5.3185,5.3185,5.3185,5.3185,5.2875,5.2599,5.306,5.2595,5.1825,5.1562,5.1469,5.1419,5.1164,5.1086,5.1164,5.1419,5.1469,5.1544,5.1825,5.1874,5.1682,5.0937,5.1137,5.0797,4.8811,4.879,4.8623,4.7312,4.6914,4.6691,4.6449,4.5272,4.435,4.4117,4.3093,4.2426,4.2426,4.2062,4.1982,4.2406,4.2264,4.2169,4.2196,4.2196,4.1756,4.0818,4.0799,4.0414,3.9625,3.9625,3.9294,3.8707,3.9019,3.9001,0.0,3.7734,3.834,3.8285,3.7734,3.7221,3.7206,3.5984,0.0,3.6861,3.6663,3.6514,3.7549,3.786,3.8077,3.8565,3.8654,3.9026,3.9968,4.1542,4.3453,4.5737,4.8578,5.0304,5.0253,5.2164,5.3112,5.2367,5.2198,5.1539,5.0152,5.0033,4.9712,4.9018,4.9001,4.9032,4.9077,4.9693,5.0067,5.0205,5.3125,5.4068,5.3346,5.4959,5.5187,0.0,0.0,0.0,0.0,5.1439,5.1164,5.1164,5.1215,5.1636,5.2183,5.2183,5.2599,5.3185,5.3185,5.3185,5.3185,5.3185,5.3185,5.3185,5.3185,5.3185,5.306,5.2358,5.2183,5.2042,5.1393,5.1241,5.1411,5.2042,5.2183,5.2358,5.3042,5.3185,5.2999,5.2294,5.2127,5.1608,5.0118,4.9721,4.9315,4.8508,4.7854,4.7674,4.823,4.6452,4.5352,4.5847,4.4507,4.3552,4.3515,4.2542,4.2366,4.3427,4.3032,4.2976,4.3479,4.3515,4.3112,4.2323,4.2249,4.1864,4.1095,4.1095,4.0325,3.8891,3.957,3.9496,3.3366,0.0,3.4798,3.4179,3.4357,3.4582,0.0,3.3908,3.3745,3.4126,3.4713,3.54,3.622,3.7429,3.843,3.8835,3.925,3.9635,4.006,4.3379,4.6566,4.8798,5.1217,5.2469,5.1843,5.2266,5.2503,5.2317,5.1251,5.0456,5.0101,4.956,4.9187,4.9018,4.9001,4.9243,4.978,4.9919,5.0593,5.1775,5.3007,5.349,5.3351,5.4911,5.4555,5.2684,0.0,0.0,5.1378,5.1714,5.1856,5.1928,5.2486,5.2809,5.2937,5.2937,5.3042,5.3185,5.3185,5.3185,5.3185,5.3185,5.3185,5.3185,5.3185,5.3185,5.3164,5.2999,5.2937,5.2915,5.2765,5.2702,5.2743,5.2915,5.2937,5.2999,5.3164,5.3185,5.3164,5.2977,5.2917,5.2614,5.1627,5.0922,5.0196,4.9352,4.8576,4.8152,4.8287,4.7311,4.6432,4.5938,4.5021,4.4176,4.3551,4.3249,4.3214,4.3479,4.3392,4.3375,4.3479,4.3515,4.3112,4.2323,4.1699,4.1279,4.1095,4.1095,4.0912,4.0526,4.0102,3.979,3.0931,3.2601,3.4252,3.3812,3.4032,3.4261,3.3849,3.347,3.3244,3.34,3.4156,3.5083,3.598,3.7351,3.8591,3.9261,3.9583,4.0197,4.1443,4.4604,4.7614,4.983,5.1792,5.2926,5.2858,5.252,5.2164,5.1826,5.0744,4.9949,4.961,4.9221,4.9001,4.9001,4.9316,4.9652,5.0004,5.0352,5.1088,5.2212,5.3284,5.3622,5.3295,5.4507,5.4151,0.0,0.0,0.0,5.2078,5.2089,5.2294,5.264,5.3042,5.3185,5.3185,5.3185,5.3185,5.3185,5.3185,5.3185,5.3185,5.3185,5.3185,5.3185,5.3185,5.3185,5.3185,5.3185,5.3185,5.3185,5.3185,5.3185,5.3185,5.3185,5.3185,5.3185,5.3185,5.3185,5.3185,5.3185,5.3185,5.2949,5.2142,5.1628,5.093,4.9719,4.9169,4.8746,4.8361,4.759,4.6929,4.6507,4.5736,4.4929,4.4121,4.4048,4.3883,4.3533,4.3515,4.3515,4.3515,4.3515,4.3313,4.2855,4.2415,4.2029,4.1662,4.2029,4.1827,4.1095,4.1038,4.0598,2.9666,3.2216,3.4912,3.4546,3.4821,3.5038,3.4408,3.3849,3.3521,3.3822,3.4341,3.5161,3.6438,3.7757,3.8986,3.9853,4.0164,4.1163,4.3728,4.5855,4.7919,5.0016,5.1572,5.2706,5.3264,5.2604,5.1877,5.1236,5.0405,4.9661,4.9035,4.9107,4.9152,4.9152,4.9792,5.0213,5.0307,5.0955,5.1544,5.2112,5.3529,5.3806,5.3057,5.3861,5.3849,5.3164,0.0,0.0,5.3124,5.2404,5.2513,5.3185,5.3185,5.3185,5.3185,5.3185,5.3185,5.3185,5.3185,5.3185,5.3185,5.3185,5.3185,5.3185,5.3185,5.3185,5.3185,5.3185,5.3185,5.3185,5.3185,5.3185,5.3185,5.3185,5.3185,5.3185,5.3185,5.3185,5.317,5.3041,5.3133,5.2949,5.2142,5.1885,5.1353,4.9996,4.9574,4.9132,4.8398,4.77,4.7241,4.7113,4.6489,4.5755,4.4947,4.4782,4.4415,4.3718,4.357,4.3515,4.3515,4.3515,4.3515,4.3515,4.3515,4.3149,4.2488,4.3167,4.28,4.148,4.1919,4.1387,3.1702,3.35,3.4509,3.2467,3.4045,3.5674,3.4097,3.4143,3.4569,3.4623,3.4588,3.5238,3.7507,3.9292,4.0549,4.0914,4.2029,4.3857,4.6802,4.8054,4.9255,5.0845,5.2384,5.3095,5.2536,5.1809,5.1303,5.1217,4.9949,4.912,4.9018,4.9551,4.985,4.985,5.0554,5.1197,5.1765,5.188,5.2,5.2112,5.2981,5.3003,5.2294,5.3025,5.3314,5.3164,0.0,5.2513,5.3124,5.2404,5.2513,5.3185,5.3185,5.3185,5.3185,5.3185,5.3185,5.3185,5.3185,5.3185,5.3185,5.3185,5.3185,5.3185,5.3185,5.3185,5.3185,5.3185,5.3185,5.3185,5.3185,5.3185,5.3185,5.3185,5.3185,5.3185,5.3185,5.3185,5.3004,5.2307,5.2729,5.2949,5.2142,5.1444,5.0894,5.0655,4.9407,4.8453,4.8324,4.8196,4.7846,4.7168,4.6984,4.6581,4.5773,4.5094,4.4636,4.4525,4.3883,4.3515,4.3515,4.3515,4.3515,4.3515,4.3515,4.3441,4.3331,4.3441,4.3369,4.3094,4.1864,4.115,3.1097,3.2803,3.4087,3.2963,3.4835,3.6555,3.504,3.4964,3.5289,3.5474,3.5776,3.6614,3.8598,3.9989,4.1186,4.2224,4.4218,4.5913,4.6595,4.8037,4.9407,5.049,5.1234,5.1826,5.2266,5.1268,5.0608,5.0608,4.961,4.9152,4.9504,4.9821,5.0185,5.0581,5.1266,5.1783,5.2112,5.249,5.2684,5.2684,5.3042,5.302,5.2725,5.306,5.3185,5.3164,0.0,5.2513,5.3124,5.2404,5.2513,5.3185,5.3185,5.3185,5.3185,5.3185,5.3185,5.3185,5.3185,5.3185,5.3185,5.3185,5.3185,5.3185,5.3185,5.3185,5.3185,5.3185,5.3185,5.3185,5.3185,5.3185,5.3185,5.3185,5.3185,5.3185,5.3185,5.3185,5.3096,5.2729,5.2949,5.3096,5.2711,5.1977,5.1298,5.0875,4.9774,4.882,4.8361,4.8306,4.8159,4.7791,4.7736,4.7406,4.6617,4.6214,4.5425,4.4121,4.3699,4.3515,4.3515,4.3515,4.3515,4.3515,4.3515,4.3515,4.3515,4.3515,4.3515,4.3478,4.2745,4.2158,3.0944,3.2394,3.3844,3.4027,3.5661,3.7021,3.629,3.614,3.6364,3.7202,3.7627,3.8352,4.0034,4.1091,4.2334,4.4325,4.6505,4.7655,4.6827,4.8342,4.9729,5.0287,5.0355,5.0794,5.1928,5.0862,5.0084,5.0084,4.9576,4.9393,4.9688,5.0018,5.0462,5.1051,5.1544,5.1978,5.234,5.2714,5.3023,5.3185,5.3185,5.3185,5.3185,5.3004,5.2931,5.2892,5.2126,5.2229,5.2871,5.2326,5.252,5.3185,5.3185,5.3185,5.3185,5.3185,5.3185,5.3185,5.3185,5.3185,5.3185,5.3185,5.3185,5.3185,5.3185,5.3185,5.3185,5.3185,5.3185,5.3185,5.3185,5.3185,5.3185,5.3185,5.3185,5.3185,5.3185,5.3185,5.313,5.2968,5.3057,5.3075,5.2711,5.2123,5.1444,5.0637,4.9811,4.904,4.8398,4.8306,4.8306,4.8306,4.8306,4.7957,4.7168,4.6929,4.5957,4.3901,4.3606,4.3515,4.3515,4.3515,4.3515,4.3515,4.3515,4.3515,4.3515,4.3515,4.3515,4.3515,4.3296,4.2892,3.3128,3.366,3.3972,3.4729,3.5661,3.6622,3.7525,3.7731,3.8381,4.0636,4.0208,4.005,4.2109,4.3326,4.4997,4.7849,4.8648,4.9114,4.9678,5.0507,5.105,5.11,5.1133,5.1166,5.1252,5.0557,5.0084,5.0084,4.9975,4.9608,4.891,5.0133,5.0872,5.0924,5.0906,5.1621,5.3124,5.2433,5.2454,5.3185,5.3185,5.3185,5.3167,5.2435,5.2087,5.2032,5.1238,5.1348,5.2068,5.2027,5.2485,5.3185,5.3185,5.3185,5.3185,5.3185,5.3185,5.3185,5.3185,5.3185,5.3185,5.3185,5.3185,5.3185,5.3185,5.3185,5.3185,5.3185,5.3185,5.3185,5.3185,5.3185,5.3185,5.3185,5.3185,5.3185,5.3185,5.3185,5.2986,5.2234,5.2692,5.2747,5.1242,5.093,5.0618,4.9812,4.8948,4.8379,4.8324,4.8306,4.8306,4.8306,4.8306,4.7957,4.7168,4.6416,4.559,4.4672,4.3901,4.3515,4.3515,4.3515,4.3515,4.3515,4.3515,4.3515,4.3515,4.3515,4.3515,4.3478,4.2727,4.2359,3.2889,3.3775,3.4747,3.5591,3.6431,3.7283,3.8193,3.9548,4.1188,4.3086,4.3506,4.3809,4.4716,4.5573,4.6583,4.7822,4.9343,5.0274,5.0068,5.0311,5.068,5.1141,5.0772,5.0814,5.1732,5.0759,5.0033,4.9987,4.9535,4.9288,4.9352,4.9864,5.0353,5.0818,5.0808,5.1096,5.1701,5.1903,5.2142,5.2454,5.2968,5.3185,5.3185,5.2894,5.2472,5.1977,5.1665,5.172,5.1958,5.1463,5.2032,5.3185,5.3185,5.3185,5.3185,5.3185,5.3185,5.3185,5.3185,5.3185,5.3185,5.3185,5.3185,5.3185,5.3185,5.3185,5.3185,5.3185,5.3185,5.3185,5.3185,5.3185,5.3185,5.3185,5.3185,5.3185,5.3185,5.3185,5.3115,5.2821,5.3004,5.2858,5.1738,5.1132,5.0527,4.9721,4.8857,4.8306,4.8306,4.8765,4.8893,4.8361,4.8306,4.8196,4.7865,4.7094,4.6305,4.5498,4.4213,4.3515,4.3515,4.3515,4.3515,4.3515,4.3515,4.3515,4.3515,4.3515,4.3515,4.3496,4.3185,4.3039,3.2601,3.3408,3.4454,3.5293,3.6688,3.8212,3.9551,4.1111,4.291,4.5021,4.5902,4.6396,4.6791,4.7087,4.7513,4.8164,5.0084,5.1259,5.0457,5.0593,5.0843,5.1133,5.0683,5.0737,5.175,5.0714,4.9967,4.9912,4.938,4.9142,4.9316,4.9521,4.9895,5.0417,5.016,5.027,5.0802,5.1077,5.1353,5.1628,5.2179,5.2708,5.3167,5.2674,5.2142,5.1591,5.1059,5.1132,5.1555,5.0747,5.1371,5.2858,5.3093,5.3185,5.3185,5.3185,5.3185,5.3185,5.3185,5.3185,5.3185,5.3185,5.3185,5.3185,5.3185,5.3185,5.3185,5.3185,5.3185,5.3185,5.3185,5.3185,5.3185,5.3185,5.3185,5.3185,5.3185,5.3185,5.3185,5.3185,5.3185,5.2949,5.2142,5.1536,5.082,4.9757,4.9297,4.8912,4.8379,4.9058,4.928,4.8398,4.8306,4.8306,4.8306,4.7553,4.6746,4.5957,4.4617,4.3754,4.3515,4.3515,4.3515,4.3515,4.3515,4.3515,4.3515,4.3515,4.3515,4.3515,4.3515,4.3515,3.2601,3.2619,3.2821,3.3623,3.6285,3.935,4.1772,4.2323,4.324,4.6452,4.7113,4.7369,4.8196,4.7775,4.7843,4.9433,5.1112,5.1945,5.1218,5.1732,5.19,5.12,5.1094,5.1094,5.1094,5.0378,4.9884,4.991,4.977,4.9343,4.8546,4.9179,4.9574,4.9574,4.8728,4.9095,5.0747,4.9996,4.9994,5.0802,5.0802,5.1628,5.3112,5.1536,5.0802,5.071,4.904,4.926,5.0729,4.9941,5.0565,5.2068,5.2876,5.3185,5.3185,5.3185,5.3185,5.3185,5.3185,5.3185,5.3185,5.3185,5.3185,5.3185,5.3185,5.3185,5.3185,5.3185,5.3185,5.3185,5.3185,5.3185,5.3185,5.3185,5.3185,5.3185,5.3185,5.3185,5.3185,5.3185,5.3185,5.2949,5.2142,5.1995,5.1444,4.9849,5.0288,5.0196,4.8545,4.9058,4.9242,4.8398,4.8306,4.8306,4.8306,4.7571,4.6764,4.5957,4.5168,4.436,4.3533,4.3515,4.3515,4.3515,4.3515,4.3515,4.3515,4.3515,4.3515,4.3515,4.3515,4.3515,3.344,3.3848,3.4619,3.6046,3.7988,4.0175,4.258,4.3571,4.4911,4.8177,4.8857,4.9095,4.9903,4.9891,4.9935,5.041,5.1411,5.2034,5.1825,5.1101,5.0665,5.0928,5.0456,5.0315,5.0838,5.0208,4.9739,4.9694,4.9169,4.8724,4.8379,4.8026,4.7847,4.7847,4.759,4.7681,4.8177,4.9132,4.9721,4.9978,5.0527,5.1059,5.1499,5.1022,5.049,4.9941,4.9445,4.95,4.9996,5.0306,5.0729,5.1242,5.2032,5.2711,5.3185,5.3185,5.3185,5.3185,5.3185,5.3185,5.3185,5.3185,5.3185,5.3185,5.3185,5.3185,5.3185,5.3185,5.3185,5.3185,5.3185,5.3185,5.3185,5.3185,5.3185,5.3185,5.3185,5.3185,5.3185,5.3185,5.3185,5.2949,5.2142,5.1995,5.1646,5.06,5.0655,5.0618,5.0123,4.926,4.882,4.9169,4.8673,4.8306,4.8306,4.8067,4.759,4.6782,4.5993,4.4929,4.357,4.4048,4.4085,4.3515,4.4066,4.4066,4.3515,4.3515,4.3515,4.3515,4.3515,4.3515,3.2852,3.3426,3.4527,3.6505,3.8484,4.0616,4.3351,4.5351,4.7297,4.9591,5.0068,5.0306,5.1132,5.1022,5.0894,5.1224,5.1992,5.2531,5.2531,5.1486,5.0888,5.1292,5.0624,5.0299,5.0762,5.011,4.9646,4.9609,4.8867,4.8386,4.8305,4.7535,4.7094,4.7094,4.7094,4.7094,4.7094,4.8416,4.9077,4.9077,4.9572,4.9811,4.9829,5.016,5.005,4.961,4.9574,4.939,4.9169,5.0325,5.0618,5.0417,5.1555,5.2289,5.2766,5.3096,5.3185,5.3185,5.3185,5.3185,5.3185,5.3185,5.3185,5.3185,5.3185,5.3185,5.3185,5.3185,5.3185,5.3185,5.3185,5.3185,5.3185,5.3185,5.3185,5.3185,5.3185,5.3185,5.3185,5.3185,5.3185,5.3059,5.2564,5.2472,5.2197,5.1389,5.1004,5.0674,5.0362,4.9444,4.8893,4.9058,4.8618,4.8306,4.8306,4.8306,4.7957,4.7149,4.6342,4.5461,4.4488,4.4305,4.4158,4.3975,4.414,4.3975,4.3515,4.3515,4.3515,4.3515,4.3515,4.3515,3.169,3.2265,3.3426,3.5991,3.8487,4.1111,4.414,4.7223,4.9721,5.0527,5.0747,5.1041,5.1848,5.1389,5.1151,5.1867,5.2619,5.3096,5.3096,5.2325,5.1775,5.1775,5.1004,5.0472,5.0472,4.9738,4.9262,4.9262,4.8526,4.8086,4.8086,4.7314,4.6874,4.6874,4.6874,4.6911,4.6984,4.7791,4.8233,4.8306,4.8306,4.8306,4.8343,4.9114,4.9482,4.9482,4.9407,4.8985,4.8416,4.9939,5.0178,4.9757,5.1226,5.1867,5.2087,5.2821,5.3151,5.3185,5.3185,5.3185,5.3185,5.3185,5.3185,5.3185,5.3185,5.3185,5.3185,5.3185,5.3185,5.3185,5.3185,5.3185,5.3185,5.3185,5.3185,5.3185,5.3185,5.3185,5.3185,5.3185,5.3185,5.3185,5.3185,5.3185,5.2931,5.2105,5.1316,5.0508,4.9702,4.9537,4.9169,4.8379,4.8306,4.8306,4.8306,4.8306,4.7975,4.7259,4.6452,4.6049,4.6122,4.4562,4.403,4.469,4.4121,4.3718,4.3515,4.357,4.357,4.3515,4.3515,4.3515,3.3885,3.4344,3.5224,3.834,4.1423,4.4011,4.5351,4.7168,4.882,4.9684,5.0362,5.1041,5.1848,5.1848,5.1793,5.1958,5.2142,5.2252,5.2252,5.1004,5.0124,5.0124,4.8802,4.7901,4.7901,4.7168,4.6691,4.6691,4.6526,4.6416,4.6416,4.5663,4.5205,4.5205,4.5205,4.5535,4.6159,4.6947,4.7681,0.0,4.8306,4.8306,4.8324,4.8489,4.8581,4.8581,4.8563,4.8471,4.8343,4.8691,4.9132,4.9629,4.9978,5.0896,5.2013,5.2179,5.2656,5.3185,5.3185,5.3185,5.3185,5.3185,5.3185,5.3185,5.3185,5.3185,5.3185,5.3185,5.3185,5.3185,5.3185,5.3185,5.3185,5.3185,5.3185,5.3185,5.3185,5.3185,5.3185,5.3185,5.3185,5.3185,5.3185,5.3185,5.2931,5.2105,5.1316,5.0508,4.9702,4.9003,4.8508,4.8324,4.8306,4.8306,4.8306,4.8306,4.8233,4.8048,4.7278,4.7131,4.7774,4.6232,4.5168,4.4727,4.5755,4.5388,4.3515,4.4121,4.4121,4.3515,4.3515,4.3515,3.3628,3.4417,3.5885,3.957,4.2304,4.4342,4.5149,4.6269,4.7498,4.8728,4.9958,5.093,5.1353,5.1426,5.1426,5.1426,5.1426,5.1426,5.1426,5.0013,4.8967,4.8967,4.7535,4.6544,4.6544,4.6159,4.5902,4.5902,4.5902,4.5902,4.5902,4.5149,4.4691,4.4691,4.4691,4.4911,4.5333,4.6122,4.6746,4.715,4.715,4.715,4.7186,4.7957,4.8104,4.7755,4.8329,4.8495,4.8325,4.8513,4.8753,4.9022,4.9445,5.0106,5.0951,5.1722,5.227,5.2674,5.3078,5.3185,5.3151,5.2747,5.2894,5.3133,5.2747,5.2894,5.3185,5.3185,5.3185,5.3185,5.3185,5.3185,5.3185,5.3185,5.3185,5.3185,5.3185,5.3185,5.3185,5.3185,5.3359,5.3313,5.2734,5.2307,5.1793,5.0987,5.082,5.0362,4.9132,4.8948,4.8765,4.8343,4.8306,4.8306,4.8306,4.8306,4.8306,4.8306,4.7535,4.7278,4.77,4.6911,4.6287,4.5847,4.592,4.5315,4.4066,4.4103,4.3901,4.3515,4.3515,4.3515,3.2931,3.4307,3.6527,4.0196,4.2213,4.3534,4.4488,4.5223,4.6104,4.759,4.9205,5.0417,5.0563,5.0582,5.0582,5.0582,5.0582,5.0545,5.0398,4.9058,4.8049,4.7902,4.6599,4.5681,4.5681,4.5571,4.548,4.548,4.548,4.548,4.548,4.4856,4.4524,4.4575,4.4575,4.4649,4.4777,4.5457,4.5809,4.5902,4.5902,4.5828,4.5736,4.7223,4.7535,4.6948,4.8004,4.8324,4.8124,4.8541,4.8546,4.8379,4.9077,4.9482,4.9757,5.1098,5.1665,5.1903,5.2711,5.2913,5.2711,5.216,5.2362,5.2692,5.216,5.2362,5.2837,5.3112,5.3093,5.3023,5.317,5.3185,5.3185,5.3185,5.3251,5.3295,5.3295,5.3295,5.3336,5.34,5.3571,5.3312,5.2089,5.1347,5.0589,4.9721,5.016,5.005,4.8508,4.893,4.9095,4.8379,4.8306,4.8306,4.8306,4.8306,4.8306,4.8306,4.7681,4.7314,4.7314,4.7314,4.7241,4.7094,4.5792,4.4911,4.4488,4.3956,4.3626,4.3515,4.3515,4.3515,3.4307,3.6399,3.8655,4.0618,4.1791,4.2855,4.436,4.4764,4.5131,4.603,4.7517,4.8857,4.9629,4.9757,4.9757,4.9757,4.9757,4.9499,4.8746,4.7828,4.7003,4.6305,4.5424,4.4874,4.4874,4.4232,4.3827,4.3827,4.3827,4.3827,4.3827,4.3718,4.3795,4.4076,4.4092,4.4426,4.5133,4.5244,4.5493,4.5902,4.5902,4.5535,4.4892,4.581,4.6159,4.6085,4.6541,4.6936,4.7297,4.769,4.8029,4.8324,4.8434,4.893,4.9629,4.9849,5.0343,5.1077,5.1885,5.1701,5.1224,5.1811,5.1591,5.1242,5.1811,5.1591,5.1408,5.2821,5.2711,5.2307,5.3023,5.3185,5.3185,5.3185,5.3464,5.372,5.372,5.372,5.3833,5.4257,5.3755,5.2869,5.16,5.1304,5.0861,4.9761,4.9702,4.9427,4.8434,4.8398,4.8434,4.8324,4.8306,4.8306,4.8306,4.8306,4.8306,4.8306,4.8214,4.8141,4.8141,4.8141,4.781,4.7113,4.6892,4.5737,4.3644,4.425,4.4176,4.3515,4.3515,4.3515,3.4692,3.6142,3.7734,3.935,4.0691,4.1937,4.3094,4.4066,4.48,4.5149,4.6159,4.7076,4.7443,4.7536,4.7536,4.7536,4.7536,4.7388,4.7003,4.6269,4.5608,4.5278,4.4525,4.403,4.403,4.3699,4.3515,4.3515,4.3515,4.3515,4.3515,4.3515,4.3646,4.4001,4.382,4.3987,4.4522,4.4339,4.4346,4.4562,4.4562,4.436,4.4065,4.4581,4.4989,4.5259,4.6094,4.6453,4.6471,4.6854,4.7251,4.7626,4.7626,4.8141,4.893,4.9427,4.9831,5.0233,5.1041,5.1096,5.0784,5.0674,5.071,5.0826,5.0914,5.099,5.1269,5.2213,5.2382,5.2306,5.2437,5.2507,5.2553,5.2762,5.2976,5.3327,5.4042,5.3813,5.3461,5.3427,5.2941,5.2258,5.145,5.0555,4.9779,4.9268,4.9029,4.8728,4.8361,4.8306,4.8306,4.8306,4.8306,4.8306,4.8306,4.8513,4.855,4.8325,4.8513,4.8347,4.7664,4.7626,4.7241,4.6452,4.6434,4.5681,4.4176,4.4066,4.3846,4.3515,4.3515,4.3515,3.4527,3.5477,3.6597,3.779,3.946,4.102,4.1809,4.3094,4.4158,4.436,4.4874,4.5278,4.5278,4.5626,4.5902,4.5902,4.5902,4.5828,4.5626,4.5094,4.4618,4.4415,4.3864,4.3515,4.3515,4.3515,4.3515,4.3515,4.3515,4.3515,4.3515,4.358,4.3788,4.4132,4.3915,4.3899,4.4146,4.371,4.3548,4.3631,4.3631,4.3679,4.3791,4.4031,4.4336,4.4718,4.5631,4.5846,4.5626,4.6113,4.6517,4.6838,4.7132,4.7611,4.8237,4.8988,4.9339,4.9527,5.0256,5.0343,5.0105,4.9721,4.9927,5.0284,5.0135,5.0457,5.0983,5.1685,5.2121,5.2347,5.2266,5.2427,5.2715,5.2955,5.3111,5.3501,5.4446,5.4072,5.3366,5.2851,5.2328,5.1771,5.1097,4.9996,4.9139,4.893,4.8639,4.8458,4.8458,4.8458,4.8495,4.8586,4.8513,4.8458,4.8458,4.8621,4.8622,4.8325,4.8586,4.8344,4.7443,4.7388,4.7021,4.6214,4.6214,4.581,4.5002,4.4195,4.3791,4.3791,4.3606,4.3515,3.3844,3.5055,3.6321,3.6395,3.8212,4.0175,4.0967,4.1827,4.2635,4.3423,4.3606,4.3608,4.3608,4.4856,4.5902,4.5902,4.5902,4.5626,4.4856,4.4728,4.4415,4.3662,4.3533,4.3515,4.3515,4.3515,4.3515,4.3515,4.3515,4.3515,4.3515,4.3804,4.4165,4.4553,4.454,4.454,4.4567,4.3871,4.3662,4.3971,4.3971,4.4161,4.454,4.4553,4.4572,4.4616,4.4667,4.4715,4.4817,4.5548,4.5882,4.6067,4.721,4.7692,4.777,4.82,4.8605,4.9016,4.9489,4.9114,4.8563,4.9353,4.9344,4.9142,4.9868,4.9851,4.9912,5.1458,5.1963,5.219,5.2944,5.3757,5.4363,5.4396,5.4703,5.4991,5.5061,5.4724,5.418,5.3325,5.2469,5.154,5.035,5.0087,4.9787,4.9011,4.888,4.8863,4.8863,4.8863,4.9011,4.9401,4.9092,4.8863,4.8863,4.855,4.8325,4.8306,4.8325,4.8288,4.8251,4.8251,4.7846,4.7058,4.7039,4.6636,4.5847,4.5039,4.4654,4.4618,4.3864,4.3515,3.4564,3.5004,3.5463,3.5463,3.6927,3.8447,3.8707,4.0212,4.1625,4.1901,4.2378,4.2892,4.3387,4.3956,4.436,4.436,4.436,4.425,4.3975,4.392,4.3809,4.3533,4.3515,4.3515,4.3515,4.3515,4.3515,4.3515,4.3515,4.3597,4.382,4.3924,4.429,4.4908,4.4455,4.4106,4.3902,4.3631,4.3679,4.4001,4.4001,4.4204,4.4624,4.4806,4.4793,4.4606,4.4837,4.4814,4.4658,4.4925,4.5359,4.5866,4.63,4.7124,4.7999,4.7939,4.8334,4.8902,4.8789,4.8563,4.84,4.8974,4.9039,4.905,4.9862,4.9987,5.0165,5.1527,5.2133,5.2509,5.3054,5.3437,5.3732,5.4036,5.4626,5.5173,5.5423,5.4973,5.4087,5.2635,5.2115,5.1604,5.0657,5.0272,4.9999,4.9714,4.946,4.928,4.928,4.928,4.9341,4.9475,4.9139,4.8897,4.8897,4.8761,4.8568,4.8325,4.8532,4.8568,4.8306,4.7315,4.7113,4.7846,4.6874,4.6195,4.5902,4.5094,4.4812,4.5006,4.4191,4.3958,3.5004,3.5408,3.583,3.583,3.667,3.7566,3.7841,3.9148,4.0361,4.0653,4.135,4.2139,4.2947,4.3094,4.3185,4.346,4.3515,4.3515,4.3515,4.3515,4.3515,4.3515,4.3515,4.3515,4.3515,4.3515,4.3515,4.3515,4.3595,0.0,4.3986,4.4228,4.4581,4.5085,4.4521,4.4031,4.3679,4.3679,4.3852,4.4204,4.4318,4.4574,4.4943,4.518,4.514,4.4954,4.5161,4.5011,4.4624,4.4707,4.5023,4.5447,4.5817,4.6625,4.7551,4.7477,4.8069,4.8802,4.8403,4.847,4.8745,4.9011,4.9202,4.9397,4.9936,5.0195,5.0462,5.1267,5.2132,5.2862,5.3131,5.3623,5.4118,5.4428,5.4917,5.5368,5.5651,5.4838,5.3818,5.2953,5.2087,5.1414,5.1144,5.0656,5.026,5.0123,4.9866,4.9706,4.9706,4.9706,4.976,4.9898,4.9431,4.9092,4.9092,4.8846,4.8586,4.8325,4.855,4.8639,4.8513,4.748,4.7478,4.8674,4.7653,4.6949,4.667,4.5723,4.5236,4.5174,4.4505,4.4401,0.0,0.0,0.0,3.7437,3.7456,3.7658,3.8395,3.8597,3.8854,3.9625,4.0432,4.1242,4.2084,4.2231,4.2488,4.3313,4.3478,4.3515,4.3515,4.3515,4.3496,4.3478,4.346,4.346,4.3441,4.3441,4.3441,4.3441,4.3765,4.3979,4.3975,4.4694,4.5107,4.5058,4.475,4.4363,4.3957,4.396,4.4167,4.4568,4.4924,4.5282,4.5594,4.5594,4.5594,4.5594,4.5594,4.5232,4.4644,4.4977,4.4919,4.4751,4.586,4.6298,4.6382,4.6819,4.7744,4.8736,4.8351,4.8772,4.9504,4.9504,4.9773,5.0092,5.0104,5.0399,5.0712,5.0731,5.1933,5.3222,5.3241,5.4453,5.5665,5.5626,5.5645,5.5665,5.5665,5.4357,5.3414,5.428,5.2433,5.0971,5.1731,5.1241,5.0603,5.0209,5.0181,5.0181,5.0162,5.0142,5.0279,5.0663,4.9987,4.9504,4.9489,4.8761,4.8325,4.8325,4.8325,4.8495,4.8897,4.8876,4.9054,4.9451,4.9433,4.8999,4.8131,4.6981,4.6012,4.5221,4.4823,4.4793,3.6101,0.0,0.0,0.0,0.0,0.0,3.5385,3.6083,3.7019,3.7239,3.7936,3.8924,4.0304,4.0561,4.0818,4.1644,4.2745,4.3515,4.3515,4.3515,4.3277,4.269,4.2635,4.2396,4.1827,4.1772,4.1772,0.0,4.2597,4.3249,4.3474,4.4745,4.5055,4.4189,4.3841,4.3302,4.2557,4.2936,4.3431,4.403,4.4748,4.5282,4.5594,4.5594,4.5594,4.5594,4.5594,4.5495,4.5332,4.5429,4.541,4.5351,4.5669,4.6177,4.6714,4.6538,4.7469,4.8736,4.8351,4.8772,4.9547,4.9827,5.0019,5.0159,5.0462,5.0614,5.0827,5.1395,5.2356,5.3356,5.3972,5.4472,5.4664,5.4049,5.4376,5.4818,5.4818,5.3491,5.2519,5.3395,5.2491,5.1452,5.1087,5.1337,5.1538,5.1427,5.1935,5.2107,5.1493,5.1397,5.1217,5.076,5.0249,4.9813,4.9518,4.9046,4.8727,4.8727,4.8727,4.8913,4.9311,4.8773,4.8497,4.8565,4.798,4.7282,4.6458,4.6699,4.6538,4.5975,4.5532,4.5371,3.6562,3.7129,3.7845,3.7202,0.0,0.0,3.5477,3.555,3.5661,3.533,3.6174,3.729,3.8245,3.8686,3.9258,4.0414,4.1387,4.2121,4.2451,4.2506,4.2323,4.1864,4.1809,4.1625,4.115,4.1095,4.1158,4.1314,4.235,4.3365,4.4211,4.4767,4.468,4.3878,4.3274,4.2676,4.2052,4.2818,4.3409,4.3798,4.4831,4.541,4.5594,4.5594,4.5594,4.5594,4.5594,4.5594,4.5594,4.5594,4.5594,4.5594,4.5594,4.5913,4.6337,4.608,4.7072,4.8466,4.8226,4.8978,5.0043,5.0272,5.0347,5.038,5.0624,5.0712,5.0808,5.1279,5.2279,5.3395,5.426,5.4741,5.4876,5.4357,5.4376,5.4491,5.4491,5.3414,5.2692,5.3568,5.2472,5.1356,5.1221,5.1587,5.1904,5.1904,5.2635,5.2895,5.2,5.1904,5.1587,5.0789,5.0336,5.0019,4.9773,4.9386,4.9155,4.9155,4.9155,4.9341,4.9733,4.9299,4.9099,4.9245,4.8438,4.7417,4.6263,4.6568,4.6475,4.601,4.5734,4.5594,3.6693,3.7606,3.8964,3.9496,3.8138,0.0,3.7144,3.6138,3.4894,3.399,3.4981,3.6046,3.6138,3.6831,3.7841,3.9258,3.9585,3.9974,4.0948,4.1095,4.1058,4.0967,4.0967,4.093,4.0838,4.082,4.0959,4.131,4.2496,4.3851,4.5241,4.4662,4.4113,4.3683,4.281,4.2216,4.1921,4.3091,4.3685,4.3736,4.5006,4.5594,4.5594,4.5594,4.5594,4.5594,4.5594,4.5594,4.5594,4.5594,4.5594,4.5594,4.5594,4.5594,4.5594,4.5594,4.6663,4.8105,4.8105,4.924,5.0712,5.0712,5.0712,5.0712,5.0712,5.0712,5.0731,5.0808,5.1837,5.3126,5.3991,5.4741,5.5261,5.5164,5.4664,5.4203,5.4203,5.353,5.3183,5.4049,5.2452,5.1164,5.1788,5.1981,5.2038,5.2038,5.2692,5.2895,5.2,5.1904,5.1587,5.0789,5.0369,5.0147,5.0092,4.9773,4.958,4.958,4.958,4.9746,5.0147,5.0171,5.0298,5.0548,4.9606,4.8394,4.6904,4.643,4.6,4.5594,4.5594,4.5594,3.7378,3.8447,3.9386,3.8245,3.8594,0.0,3.605,3.5789,3.5624,3.41,3.4064,3.4486,3.5133,3.5973,3.6633,3.6945,3.7547,3.8704,4.0802,4.1095,4.0857,4.0212,4.012,3.9882,3.9239,3.9184,3.9279,3.9574,4.1532,4.2985,4.3558,4.4047,4.3665,4.2249,4.1781,4.1304,4.0818,4.2154,4.2967,4.3267,4.4837,4.5594,4.5594,4.5594,4.5594,4.5594,4.5594,4.5594,4.5594,4.5594,4.5594,4.5594,4.5594,4.5594,4.5594,4.5594,4.6663,4.8105,4.8105,4.924,5.0712,5.0712,5.0712,5.0712,5.0712,5.0712,5.0846,5.1491,5.1433,5.1375,5.2202,5.2519,5.2491,5.1818,5.2049,5.2404,5.2404,5.176,5.1433,5.226,5.2568,5.2549,5.1981,5.2481,5.2953,5.2953,5.3087,5.2895,5.2,5.1904,5.1587,5.0789,5.0624,5.0442,5.0135,5.0031,4.9974,4.9974,4.9974,5.0159,5.0565,5.0575,5.0287,4.9663,4.8163,4.724,4.6904,4.6118,4.5695,4.5594,4.5594,4.5594,3.7577,3.8392,0.0,3.8796,3.8704,0.0,0.0,3.5954,3.5298,3.4064,3.3807,3.3917,3.4325,3.4761,3.5183,3.5587,3.5991,3.6835,3.8469,3.8707,3.856,3.8138,3.8102,3.7955,3.7533,3.762,3.8245,3.9508,4.0815,4.2014,4.3038,4.3066,4.2593,4.1577,4.1137,4.0715,4.0304,4.1558,4.2494,4.3104,4.4355,4.519,4.5594,4.5594,4.5594,4.5594,4.5594,4.5594,4.5594,4.5594,4.5594,4.5594,4.5594,4.5594,4.5594,4.5594,4.6413,4.7567,4.7971,4.8952,5.0106,5.0558,5.0712,5.0712,5.0712,5.0712,5.0789,5.1183,5.1298,5.1395,5.1788,5.2212,5.2452,5.2049,5.1914,5.1904,5.1904,5.1279,5.0827,5.1221,5.1991,5.2299,5.1452,5.2356,5.3049,5.2615,5.2933,5.2895,5.2,5.1904,5.1587,5.0789,5.0712,5.0614,5.0421,5.0399,5.0399,5.0399,5.0399,5.0493,5.0683,5.0712,5.0289,4.9413,4.8144,4.7288,4.6904,4.6471,4.6009,4.5594,4.5665,4.57,3.8147,0.0,0.0,0.0,0.0,3.8279,0.0,0.0,0.0,3.4133,3.3844,3.378,3.3694,3.3876,3.4087,3.4289,3.4711,3.5023,3.511,3.5385,3.5826,3.645,3.6376,3.6358,3.6505,3.6689,3.7565,3.9452,4.0155,4.1054,4.2297,4.2008,4.1598,4.116,4.0726,4.0389,4.0177,4.1417,4.2412,4.3104,4.4085,4.4921,4.5594,4.5594,4.5594,4.5594,4.5594,4.5594,4.5594,4.5594,4.5594,4.5594,4.5594,4.5594,4.5594,4.5594,4.6144,4.6981,4.7644,4.8548,4.951,5.0231,5.0558,5.0712,5.0712,5.0712,5.0712,5.0712,5.1164,5.1673,5.1673,5.2202,5.2722,5.2722,5.2183,5.1673,5.1673,5.1164,5.0712,5.0712,5.1356,5.1692,5.1029,5.2049,5.2712,5.2,5.2375,5.2472,5.175,5.1673,5.1414,5.077,5.0712,5.0712,5.0712,5.0712,5.0712,5.0712,5.0712,5.0616,5.0462,5.0462,5.0029,4.9163,4.8625,4.7874,4.6917,4.6917,4.6474,4.5643,4.5754,4.5816,0.0,0.0,0.0,0.0,4.0997,0.0,0.0,0.0,3.6655,3.4743,0.0,3.3694,3.3332,0.0,0.0,3.2137,3.3592,3.405,3.1292,3.2118,3.41,3.7015,3.674,3.6593,3.729,3.7181,3.727,3.7756,3.9484,4.0285,3.9765,4.1046,4.1434,4.0611,4.0519,4.0481,4.0457,4.2115,4.3008,4.3124,4.471,4.5498,4.5594,4.5594,4.5594,4.5594,4.5594,4.5594,4.5594,4.5594,4.5594,4.5594,4.5594,4.5594,4.5594,4.5594,4.6144,4.6904,4.7,4.8067,4.9413,4.951,5.0067,5.0712,5.0712,5.0712,5.0712,5.0712,5.077,5.0846,5.0846,5.0923,5.0981,5.0981,5.0923,5.0846,5.0846,5.077,5.0712,5.0712,5.1356,5.1865,5.1769,5.1923,5.2,5.1904,5.1375,5.0962,5.0846,5.0846,5.0808,5.0712,5.0712,5.0712,5.0712,5.0712,5.0712,5.0712,5.0712,5.0346,4.9586,4.9548,4.9144,4.8259,4.8913,4.8512,4.6987,4.6987,4.6568,4.5769,4.579,4.5838,0.0,0.0,0.0,0.0,0.0,0.0,3.881,0.0,3.7118,0.0,0.0,0.0,0.0,0.0,0.0,0.0,3.2949,3.2968,3.1146,3.1476,3.2596,3.4431,0.0,0.0,3.5752,3.5769,3.6083,3.6982,3.7821,3.8373,3.8546,3.9219,3.9662,3.9804,3.9804,4.0035,4.0496,4.1227,4.1854,4.2354,4.3566,4.4393,4.4855,4.5364,4.5594,4.5594,4.5594,4.5594,4.5594,4.5594,4.5594,4.5594,4.5594,4.5594,4.5594,4.5594,4.5825,4.622,4.6721,4.7355,4.8105,4.9086,4.9644,5.0029,5.0558,5.0712,5.0712,5.0712,5.0712,5.0712,5.0712,5.0712,5.0712,5.0712,5.0712,5.0712,5.0712,5.0712,5.0712,5.0712,5.0971,5.1202,5.1202,5.1587,5.1731,5.1279,5.0914,5.0712,5.0712,5.0712,5.0712,5.0712,5.0712,5.0712,5.0712,5.0712,5.0712,5.0712,5.0712,5.0539,5.0173,4.9663,4.9507,4.9713,4.9586,4.8963,4.7875,4.7875,4.7218,4.5967,4.5967,4.599,4.2088,0.0,0.0,0.0,0.0,0.0,0.0,0.0,0.0,0.0,0.0,0.0,0.0,0.0,0.0,0.0,0.0,3.2583,3.0668,3.0993,3.1696,3.2491,0.0,0.0,0.0,3.4694,3.5154,3.6279,3.6577,3.694,3.751,3.7824,3.837,3.9169,3.9254,3.9688,4.0496,4.0746,4.1162,4.1808,4.2681,4.3528,4.4316,4.496,4.5364,4.5594,4.5594,4.5594,4.5594,4.5594,4.5594,4.5594,4.5594,4.5594,4.5594,4.5594,4.5594,4.5691,4.6317,4.6701,4.7144,4.8586,4.9202,4.951,5.0144,5.0519,5.0712,5.0712,5.0712,5.0712,5.0712,5.0712,5.0712,5.0712,5.0712,5.0712,5.0712,5.0712,5.0712,5.0712,5.0712,5.0712,5.0712,5.1183,5.1375,5.0789,5.0712,5.0712,5.0712,5.0712,5.0712,5.0712,5.0712,5.0712,5.0712,5.0712,5.0712,5.0712,5.0481,5.0356,5.0401,4.9572,4.9346,4.9873,4.9505,4.8827,4.7833,4.8086,4.7489,4.6149,4.6117,4.6117,0.0,0.0,0.0,4.2272,0.0,0.0,0.0,0.0,3.8306,0.0,0.0,0.0,0.0,0.0,0.0,0.0,0.0,0.0,0.0,2.9928,3.1696,3.2491,3.3293,0.0,0.0,3.4694,3.4926,3.5491,3.625,3.66,3.6379,3.741,3.827,3.8888,3.9172,3.9688,4.0496,4.1335,4.1769,4.1808,4.2681,4.3528,4.4297,4.4335,4.4797,4.5594,4.5594,4.5594,4.5594,4.5594,4.5594,4.5594,4.5594,4.5594,4.5594,4.5594,4.5594,4.5594,4.5633,4.6182,4.7038,4.7875,4.8702,4.9413,4.9433,5.0029,5.0712,5.0712,5.0712,5.0712,5.0712,5.0712,5.0712,5.0712,5.0712,5.0712,5.0712,5.0712,5.0712,5.0712,5.0712,5.0712,5.0712,5.0731,5.0731,5.0712,5.0712,5.0712,5.0712,5.0712,5.0712,5.0712,5.0712,5.0712,5.0712,5.0712,5.0712,5.0712,4.9913,4.9504,4.9635,4.8796,4.8012,4.7319,4.8117,4.7762,4.6184,4.7018,4.7047,4.6289,4.615,4.6173,0.0,0.0,4.4591,4.3545,0.0,0.0,0.0,0.0,0.0,0.0,0.0,0.0,0.0,0.0,0.0,0.0,0.0,0.0,0.0,2.931,3.0171,3.1161,3.2474,3.3212,3.3061,0.0,3.4255,3.4602,3.474,3.4996,3.5475,3.571,3.6491,3.7992,3.8129,3.892,4.0477,4.0785,4.0931,4.095,4.1816,4.2681,4.3528,4.4066,4.4778,4.5594,4.5594,4.5594,4.5594,4.5594,4.5594,4.5594,4.5594,4.5594,4.5594,4.5594,4.5594,4.5594,4.5594,4.5787,4.6259,4.7644,4.8298,4.8759,4.9913,5.0481,5.0712,5.0712,5.0712,5.0712,5.0712,5.0712,5.0712,5.0712,5.0712,5.0712,5.0712,5.0712,5.0712,5.0712,5.0712,5.0712,5.0712,5.0712,5.0712,5.0712,5.0712,5.0712,5.0712,5.0712,5.0712,5.0712,5.0712,5.0712,5.0712,5.0712,5.0712,5.0712,5.0423,5.0314,5.0456,5.0192,4.9722,4.9078,4.9348,4.8699,4.7085,4.7397,4.7107,4.6308,4.6248,4.6267,4.3335,4.3816,0.0,4.3196,4.2553,0.0,4.0704,0.0,4.0419,0.0,0.0,0.0,0.0,0.0,0.0,0.0,0.0,0.0,0.0,2.9189,2.9285,3.0079,3.1339,3.2189,3.2296,3.2936,3.359,3.4154,3.4031,3.4238,3.4925,0.0,3.5589,3.6948,3.7474,3.8479,4.0054,4.0362,4.0496,4.0516,4.1066,4.197,4.3124,4.3643,4.4489,4.5594,4.5594,4.5594,4.5594,4.5594,4.5594,4.5594,4.5594,4.5594,4.5594,4.5594,4.5594,4.5633,4.5951,4.5864,4.5883,4.7567,4.8105,4.8375,4.9798,5.0462,5.0635,5.0327,5.0462,5.0635,5.0327,5.0481,5.0712,5.0712,5.0712,5.0712,5.0712,5.0712,5.0712,5.0712,5.0712,5.0712,5.0712,5.0712,5.0712,5.0712,5.0712,5.0712,5.0712,5.0712,5.0712,5.0712,5.0712,5.0712,5.0712,5.0712,5.0712,5.0712,5.0712,5.0782,5.0959,5.0668,5.0505,5.0505,4.9609,4.8799,4.8066,4.7441,4.6855,4.6308,4.6308,4.6308]}]]